<?xml version="1.0" encoding="utf-8"?>
<gpx xmlns:xsi="http://www.w3.org/2001/XMLSchema-instance" xmlns:xsd="http://www.w3.org/2001/XMLSchema" version="1.1" creator="Shapelink.com" xmlns="http://www.topografix.com/GPX/1/1" xmlns:gpxtpx="http://www.garmin.com/xmlschemas/TrackPointExtension/v1">
  <metadata>
    <name>Löpning 6.99 km, 2017-12-25</name>
    <desc></desc>
    <author><name>Bengt-Åke Forslund</name></author> 
    <time>2017-12-25T12:04:25Z</time>
  </metadata>
  <trk>
    <name>Löpning 6.99 km, 2017-12-25</name>
    <trkseg>
      <trkpt lat="62.637162200784" lon="17.966069812617">
        <ele>47.6</ele>
        <time>2017-12-25T12:04:25Z</time>
      </trkpt>
      <trkpt lat="62.637136216894" lon="17.965514427923">
        <ele>47</ele>
        <time>2017-12-25T12:05:06Z</time>
      </trkpt>
      <trkpt lat="62.637129427555" lon="17.965485258911">
        <ele>47</ele>
        <time>2017-12-25T12:05:07Z</time>
      </trkpt>
      <trkpt lat="62.637121380931" lon="17.965452318044">
        <ele>47</ele>
        <time>2017-12-25T12:05:08Z</time>
      </trkpt>
      <trkpt lat="62.637111574108" lon="17.965424406317">
        <ele>47</ele>
        <time>2017-12-25T12:05:09Z</time>
      </trkpt>
      <trkpt lat="62.637101767285" lon="17.965396410771">
        <ele>47</ele>
        <time>2017-12-25T12:05:10Z</time>
      </trkpt>
      <trkpt lat="62.63708961353" lon="17.965355926194">
        <ele>47</ele>
        <time>2017-12-25T12:05:11Z</time>
      </trkpt>
      <trkpt lat="62.637077962689" lon="17.965322985327">
        <ele>47</ele>
        <time>2017-12-25T12:05:12Z</time>
      </trkpt>
      <trkpt lat="62.637068574961" lon="17.965291217926">
        <ele>47</ele>
        <time>2017-12-25T12:05:13Z</time>
      </trkpt>
      <trkpt lat="62.637058349043" lon="17.965259282887">
        <ele>47</ele>
        <time>2017-12-25T12:05:14Z</time>
      </trkpt>
      <trkpt lat="62.637049548048" lon="17.965227012572">
        <ele>47</ele>
        <time>2017-12-25T12:05:15Z</time>
      </trkpt>
      <trkpt lat="62.637038819216" lon="17.965188707289">
        <ele>47</ele>
        <time>2017-12-25T12:05:16Z</time>
      </trkpt>
      <trkpt lat="62.637028593298" lon="17.965151491653">
        <ele>47</ele>
        <time>2017-12-25T12:05:17Z</time>
      </trkpt>
      <trkpt lat="62.637024402348" lon="17.965114611293">
        <ele>47</ele>
        <time>2017-12-25T12:05:18Z</time>
      </trkpt>
      <trkpt lat="62.637015182258" lon="17.965087956851">
        <ele>47</ele>
        <time>2017-12-25T12:05:19Z</time>
      </trkpt>
      <trkpt lat="62.637003447598" lon="17.965058536382">
        <ele>47</ele>
        <time>2017-12-25T12:05:20Z</time>
      </trkpt>
      <trkpt lat="62.636986767617" lon="17.965007406792">
        <ele>46.8</ele>
        <time>2017-12-25T12:05:21Z</time>
      </trkpt>
      <trkpt lat="62.636974110948" lon="17.964969269147">
        <ele>47</ele>
        <time>2017-12-25T12:05:22Z</time>
      </trkpt>
      <trkpt lat="62.636960951365" lon="17.964926940552">
        <ele>47</ele>
        <time>2017-12-25T12:05:23Z</time>
      </trkpt>
      <trkpt lat="62.636946450678" lon="17.964876481514">
        <ele>47</ele>
        <time>2017-12-25T12:05:24Z</time>
      </trkpt>
      <trkpt lat="62.636934464561" lon="17.964840523163">
        <ele>47</ele>
        <time>2017-12-25T12:05:25Z</time>
      </trkpt>
      <trkpt lat="62.636915689105" lon="17.96479802693">
        <ele>47</ele>
        <time>2017-12-25T12:05:26Z</time>
      </trkpt>
      <trkpt lat="62.636897165106" lon="17.964757542353">
        <ele>47</ele>
        <time>2017-12-25T12:05:27Z</time>
      </trkpt>
      <trkpt lat="62.636877467641" lon="17.964721500183">
        <ele>46.8</ele>
        <time>2017-12-25T12:05:28Z</time>
      </trkpt>
      <trkpt lat="62.636860284746" lon="17.964677746665">
        <ele>46.8</ele>
        <time>2017-12-25T12:05:29Z</time>
      </trkpt>
      <trkpt lat="62.63684318567" lon="17.964636759174">
        <ele>47</ele>
        <time>2017-12-25T12:05:30Z</time>
      </trkpt>
      <trkpt lat="62.636824410214" lon="17.964590323448">
        <ele>47</ele>
        <time>2017-12-25T12:05:31Z</time>
      </trkpt>
      <trkpt lat="62.636807394957" lon="17.964547575758">
        <ele>46.8</ele>
        <time>2017-12-25T12:05:32Z</time>
      </trkpt>
      <trkpt lat="62.636789709148" lon="17.964506755905">
        <ele>46.8</ele>
        <time>2017-12-25T12:05:33Z</time>
      </trkpt>
      <trkpt lat="62.636773448262" lon="17.964461326007">
        <ele>46.8</ele>
        <time>2017-12-25T12:05:34Z</time>
      </trkpt>
      <trkpt lat="62.636760456317" lon="17.964420589973">
        <ele>46.8</ele>
        <time>2017-12-25T12:05:35Z</time>
      </trkpt>
      <trkpt lat="62.636746207087" lon="17.964376752636">
        <ele>46.8</ele>
        <time>2017-12-25T12:05:36Z</time>
      </trkpt>
      <trkpt lat="62.636728437459" lon="17.964332077109">
        <ele>46.8</ele>
        <time>2017-12-25T12:05:37Z</time>
      </trkpt>
      <trkpt lat="62.636712092754" lon="17.964285389926">
        <ele>46.8</ele>
        <time>2017-12-25T12:05:38Z</time>
      </trkpt>
      <trkpt lat="62.636696083325" lon="17.96424063058">
        <ele>46.8</ele>
        <time>2017-12-25T12:05:39Z</time>
      </trkpt>
      <trkpt lat="62.636684935398" lon="17.964199894546">
        <ele>46.8</ele>
        <time>2017-12-25T12:05:40Z</time>
      </trkpt>
      <trkpt lat="62.636674960937" lon="17.9641551352">
        <ele>46.6</ele>
        <time>2017-12-25T12:05:41Z</time>
      </trkpt>
      <trkpt lat="62.636661968992" lon="17.964112638967">
        <ele>46.6</ele>
        <time>2017-12-25T12:05:42Z</time>
      </trkpt>
      <trkpt lat="62.636647384486" lon="17.964070394191">
        <ele>46.6</ele>
        <time>2017-12-25T12:05:43Z</time>
      </trkpt>
      <trkpt lat="62.636633051437" lon="17.964035441668">
        <ele>46.6</ele>
        <time>2017-12-25T12:05:44Z</time>
      </trkpt>
      <trkpt lat="62.636614275981" lon="17.96399001177">
        <ele>46.6</ele>
        <time>2017-12-25T12:05:45Z</time>
      </trkpt>
      <trkpt lat="62.636598015095" lon="17.963946844985">
        <ele>46.8</ele>
        <time>2017-12-25T12:05:46Z</time>
      </trkpt>
      <trkpt lat="62.636585693702" lon="17.963906025132">
        <ele>46.6</ele>
        <time>2017-12-25T12:05:47Z</time>
      </trkpt>
      <trkpt lat="62.636571109196" lon="17.96386260689">
        <ele>46.4</ele>
        <time>2017-12-25T12:05:48Z</time>
      </trkpt>
      <trkpt lat="62.636557279061" lon="17.963826061806">
        <ele>46.6</ele>
        <time>2017-12-25T12:05:49Z</time>
      </trkpt>
      <trkpt lat="62.63654479003" lon="17.963795216414">
        <ele>46.6</ele>
        <time>2017-12-25T12:05:50Z</time>
      </trkpt>
      <trkpt lat="62.636526768945" lon="17.963777279148">
        <ele>46.6</ele>
        <time>2017-12-25T12:05:51Z</time>
      </trkpt>
      <trkpt lat="62.636508244946" lon="17.963777362967">
        <ele>46.4</ele>
        <time>2017-12-25T12:05:52Z</time>
      </trkpt>
      <trkpt lat="62.636488212205" lon="17.963794797319">
        <ele>46.6</ele>
        <time>2017-12-25T12:05:53Z</time>
      </trkpt>
      <trkpt lat="62.636472286595" lon="17.963814913879">
        <ele>46.6</ele>
        <time>2017-12-25T12:05:54Z</time>
      </trkpt>
      <trkpt lat="62.636456360985" lon="17.963835449534">
        <ele>46.4</ele>
        <time>2017-12-25T12:05:55Z</time>
      </trkpt>
      <trkpt lat="62.636437417891" lon="17.963859924682">
        <ele>46.4</ele>
        <time>2017-12-25T12:05:56Z</time>
      </trkpt>
      <trkpt lat="62.636422330471" lon="17.963880376518">
        <ele>46.4</ele>
        <time>2017-12-25T12:05:57Z</time>
      </trkpt>
      <trkpt lat="62.636404896119" lon="17.963906025132">
        <ele>46.4</ele>
        <time>2017-12-25T12:05:58Z</time>
      </trkpt>
      <trkpt lat="62.636387042672" lon="17.96393301485">
        <ele>46.4</ele>
        <time>2017-12-25T12:05:59Z</time>
      </trkpt>
      <trkpt lat="62.636371452338" lon="17.963948856641">
        <ele>46.4</ele>
        <time>2017-12-25T12:06:00Z</time>
      </trkpt>
      <trkpt lat="62.636345216991" lon="17.963980456404">
        <ele>46.6</ele>
        <time>2017-12-25T12:06:01Z</time>
      </trkpt>
      <trkpt lat="62.63632602244" lon="17.964001662611">
        <ele>46.4</ele>
        <time>2017-12-25T12:06:02Z</time>
      </trkpt>
      <trkpt lat="62.636305570604" lon="17.964027897958">
        <ele>46.6</ele>
        <time>2017-12-25T12:06:03Z</time>
      </trkpt>
      <trkpt lat="62.636284029121" lon="17.96405119964">
        <ele>46.6</ele>
        <time>2017-12-25T12:06:04Z</time>
      </trkpt>
      <trkpt lat="62.636266008036" lon="17.964074082227">
        <ele>46.6</ele>
        <time>2017-12-25T12:06:05Z</time>
      </trkpt>
      <trkpt lat="62.636244131277" lon="17.964101155764">
        <ele>46.8</ele>
        <time>2017-12-25T12:06:06Z</time>
      </trkpt>
      <trkpt lat="62.636224014717" lon="17.964123535437">
        <ele>46.8</ele>
        <time>2017-12-25T12:06:07Z</time>
      </trkpt>
      <trkpt lat="62.636204233433" lon="17.964150357517">
        <ele>46.8</ele>
        <time>2017-12-25T12:06:08Z</time>
      </trkpt>
      <trkpt lat="62.636180931751" lon="17.964175922312">
        <ele>46.8</ele>
        <time>2017-12-25T12:06:09Z</time>
      </trkpt>
      <trkpt lat="62.636162994485" lon="17.96419788289">
        <ele>47</ele>
        <time>2017-12-25T12:06:10Z</time>
      </trkpt>
      <trkpt lat="62.636141285364" lon="17.9642221904">
        <ele>47</ele>
        <time>2017-12-25T12:06:11Z</time>
      </trkpt>
      <trkpt lat="62.636118318958" lon="17.964244067159">
        <ele>47</ele>
        <time>2017-12-25T12:06:12Z</time>
      </trkpt>
      <trkpt lat="62.636097531846" lon="17.964269883411">
        <ele>47</ele>
        <time>2017-12-25T12:06:13Z</time>
      </trkpt>
      <trkpt lat="62.636075906544" lon="17.964288910324">
        <ele>47</ele>
        <time>2017-12-25T12:06:14Z</time>
      </trkpt>
      <trkpt lat="62.636055873803" lon="17.964304835934">
        <ele>47</ele>
        <time>2017-12-25T12:06:15Z</time>
      </trkpt>
      <trkpt lat="62.636034164682" lon="17.964322186467">
        <ele>47.2</ele>
        <time>2017-12-25T12:06:16Z</time>
      </trkpt>
      <trkpt lat="62.636014802493" lon="17.964340039914">
        <ele>47.2</ele>
        <time>2017-12-25T12:06:17Z</time>
      </trkpt>
      <trkpt lat="62.635993009553" lon="17.964357893361">
        <ele>47.2</ele>
        <time>2017-12-25T12:06:18Z</time>
      </trkpt>
      <trkpt lat="62.635973228269" lon="17.964377004093">
        <ele>47.6</ele>
        <time>2017-12-25T12:06:19Z</time>
      </trkpt>
      <trkpt lat="62.635952105881" lon="17.964395444273">
        <ele>47.6</ele>
        <time>2017-12-25T12:06:20Z</time>
      </trkpt>
      <trkpt lat="62.635929810027" lon="17.964414052091">
        <ele>47.4</ele>
        <time>2017-12-25T12:06:21Z</time>
      </trkpt>
      <trkpt lat="62.635912040399" lon="17.964433246642">
        <ele>47.8</ele>
        <time>2017-12-25T12:06:22Z</time>
      </trkpt>
      <trkpt lat="62.635891756201" lon="17.96445353084">
        <ele>47.8</ele>
        <time>2017-12-25T12:06:23Z</time>
      </trkpt>
      <trkpt lat="62.635875746772" lon="17.964472557753">
        <ele>47.6</ele>
        <time>2017-12-25T12:06:24Z</time>
      </trkpt>
      <trkpt lat="62.635858647696" lon="17.964491919942">
        <ele>47.8</ele>
        <time>2017-12-25T12:06:25Z</time>
      </trkpt>
      <trkpt lat="62.635838447317" lon="17.964511114493">
        <ele>47.8</ele>
        <time>2017-12-25T12:06:26Z</time>
      </trkpt>
      <trkpt lat="62.635824030449" lon="17.964534248537">
        <ele>47.8</ele>
        <time>2017-12-25T12:06:27Z</time>
      </trkpt>
      <trkpt lat="62.635802321328" lon="17.964556209115">
        <ele>47.8</ele>
        <time>2017-12-25T12:06:28Z</time>
      </trkpt>
      <trkpt lat="62.635783042958" lon="17.964574900752">
        <ele>48</ele>
        <time>2017-12-25T12:06:29Z</time>
      </trkpt>
      <trkpt lat="62.635762842579" lon="17.964594514398">
        <ele>48</ele>
        <time>2017-12-25T12:06:30Z</time>
      </trkpt>
      <trkpt lat="62.635740295268" lon="17.964614630958">
        <ele>48.2</ele>
        <time>2017-12-25T12:06:31Z</time>
      </trkpt>
      <trkpt lat="62.635719927251" lon="17.964636172441">
        <ele>48</ele>
        <time>2017-12-25T12:06:32Z</time>
      </trkpt>
      <trkpt lat="62.635696206474" lon="17.96465637282">
        <ele>48.2</ele>
        <time>2017-12-25T12:06:33Z</time>
      </trkpt>
      <trkpt lat="62.635672820973" lon="17.964673220439">
        <ele>48.2</ele>
        <time>2017-12-25T12:06:34Z</time>
      </trkpt>
      <trkpt lat="62.635653877879" lon="17.964689984239">
        <ele>48.2</ele>
        <time>2017-12-25T12:06:35Z</time>
      </trkpt>
      <trkpt lat="62.635628313084" lon="17.96471001698">
        <ele>48.2</ele>
        <time>2017-12-25T12:06:36Z</time>
      </trkpt>
      <trkpt lat="62.635609453809" lon="17.96472426621">
        <ele>48.2</ele>
        <time>2017-12-25T12:06:37Z</time>
      </trkpt>
      <trkpt lat="62.635588750516" lon="17.964741197648">
        <ele>48.2</ele>
        <time>2017-12-25T12:06:38Z</time>
      </trkpt>
      <trkpt lat="62.635565867929" lon="17.964758464362">
        <ele>48.4</ele>
        <time>2017-12-25T12:06:39Z</time>
      </trkpt>
      <trkpt lat="62.635545080817" lon="17.964771288669">
        <ele>48.4</ele>
        <time>2017-12-25T12:06:40Z</time>
      </trkpt>
      <trkpt lat="62.635520857126" lon="17.964789896487">
        <ele>48.4</ele>
        <time>2017-12-25T12:06:41Z</time>
      </trkpt>
      <trkpt lat="62.635497136349" lon="17.964804648631">
        <ele>48.6</ele>
        <time>2017-12-25T12:06:42Z</time>
      </trkpt>
      <trkpt lat="62.635473499391" lon="17.964818562585">
        <ele>48.4</ele>
        <time>2017-12-25T12:06:43Z</time>
      </trkpt>
      <trkpt lat="62.635446090578" lon="17.964830632521">
        <ele>48.4</ele>
        <time>2017-12-25T12:06:44Z</time>
      </trkpt>
      <trkpt lat="62.635423878543" lon="17.964839014421">
        <ele>48.6</ele>
        <time>2017-12-25T12:06:45Z</time>
      </trkpt>
      <trkpt lat="62.635399151938" lon="17.964851168176">
        <ele>48.6</ele>
        <time>2017-12-25T12:06:46Z</time>
      </trkpt>
      <trkpt lat="62.635372916591" lon="17.964859885352">
        <ele>48.4</ele>
        <time>2017-12-25T12:06:47Z</time>
      </trkpt>
      <trkpt lat="62.635348273805" lon="17.964867764338">
        <ele>48.6</ele>
        <time>2017-12-25T12:06:48Z</time>
      </trkpt>
      <trkpt lat="62.635324804485" lon="17.964874637496">
        <ele>48.6</ele>
        <time>2017-12-25T12:06:49Z</time>
      </trkpt>
      <trkpt lat="62.635301838079" lon="17.964880840102">
        <ele>48.6</ele>
        <time>2017-12-25T12:06:50Z</time>
      </trkpt>
      <trkpt lat="62.635279290768" lon="17.964892239486">
        <ele>48.8</ele>
        <time>2017-12-25T12:06:51Z</time>
      </trkpt>
      <trkpt lat="62.635256156724" lon="17.964900034653">
        <ele>48.8</ele>
        <time>2017-12-25T12:06:52Z</time>
      </trkpt>
      <trkpt lat="62.63523218449" lon="17.964907326906">
        <ele>49</ele>
        <time>2017-12-25T12:06:53Z</time>
      </trkpt>
      <trkpt lat="62.635207374066" lon="17.964916127901">
        <ele>49</ele>
        <time>2017-12-25T12:06:54Z</time>
      </trkpt>
      <trkpt lat="62.635185078212" lon="17.964919145385">
        <ele>49</ele>
        <time>2017-12-25T12:06:55Z</time>
      </trkpt>
      <trkpt lat="62.635161525073" lon="17.964923252516">
        <ele>48.8</ele>
        <time>2017-12-25T12:06:56Z</time>
      </trkpt>
      <trkpt lat="62.635142581979" lon="17.964927275828">
        <ele>49</ele>
        <time>2017-12-25T12:06:57Z</time>
      </trkpt>
      <trkpt lat="62.635119447935" lon="17.964931718235">
        <ele>49</ele>
        <time>2017-12-25T12:06:58Z</time>
      </trkpt>
      <trkpt lat="62.635095056606" lon="17.964935909185">
        <ele>49</ele>
        <time>2017-12-25T12:06:59Z</time>
      </trkpt>
      <trkpt lat="62.635074018037" lon="17.964940351592">
        <ele>49.4</ele>
        <time>2017-12-25T12:07:00Z</time>
      </trkpt>
      <trkpt lat="62.63504778269" lon="17.96494638656">
        <ele>49.4</ele>
        <time>2017-12-25T12:07:01Z</time>
      </trkpt>
      <trkpt lat="62.63502598975" lon="17.964952421528">
        <ele>49.4</ele>
        <time>2017-12-25T12:07:02Z</time>
      </trkpt>
      <trkpt lat="62.635001430783" lon="17.964958875591">
        <ele>49.4</ele>
        <time>2017-12-25T12:07:03Z</time>
      </trkpt>
      <trkpt lat="62.63497905111" lon="17.964961725437">
        <ele>49.4</ele>
        <time>2017-12-25T12:07:04Z</time>
      </trkpt>
      <trkpt lat="62.634959437464" lon="17.964964323826">
        <ele>49.4</ele>
        <time>2017-12-25T12:07:05Z</time>
      </trkpt>
      <trkpt lat="62.634932531565" lon="17.964969688242">
        <ele>49.4</ele>
        <time>2017-12-25T12:07:06Z</time>
      </trkpt>
      <trkpt lat="62.634912163548" lon="17.964972118993">
        <ele>49.6</ele>
        <time>2017-12-25T12:07:07Z</time>
      </trkpt>
      <trkpt lat="62.634886347296" lon="17.964978153961">
        <ele>49.6</ele>
        <time>2017-12-25T12:07:08Z</time>
      </trkpt>
      <trkpt lat="62.634861033958" lon="17.964977818685">
        <ele>49.6</ele>
        <time>2017-12-25T12:07:09Z</time>
      </trkpt>
      <trkpt lat="62.634840414484" lon="17.964983015463">
        <ele>49.8</ele>
        <time>2017-12-25T12:07:10Z</time>
      </trkpt>
      <trkpt lat="62.634815436422" lon="17.964986787318">
        <ele>49.8</ele>
        <time>2017-12-25T12:07:11Z</time>
      </trkpt>
      <trkpt lat="62.634791799464" lon="17.964988044603">
        <ele>49.8</ele>
        <time>2017-12-25T12:07:12Z</time>
      </trkpt>
      <trkpt lat="62.634768413963" lon="17.964990475354">
        <ele>49.8</ele>
        <time>2017-12-25T12:07:13Z</time>
      </trkpt>
      <trkpt lat="62.634741424245" lon="17.964990642992">
        <ele>49.8</ele>
        <time>2017-12-25T12:07:14Z</time>
      </trkpt>
      <trkpt lat="62.634721056228" lon="17.96498997244">
        <ele>49.8</ele>
        <time>2017-12-25T12:07:15Z</time>
      </trkpt>
      <trkpt lat="62.634696916356" lon="17.964991313544">
        <ele>49.8</ele>
        <time>2017-12-25T12:07:16Z</time>
      </trkpt>
      <trkpt lat="62.634672608846" lon="17.964992906105">
        <ele>50</ele>
        <time>2017-12-25T12:07:17Z</time>
      </trkpt>
      <trkpt lat="62.634650648268" lon="17.964995672132">
        <ele>49.8</ele>
        <time>2017-12-25T12:07:18Z</time>
      </trkpt>
      <trkpt lat="62.634628268595" lon="17.964993744295">
        <ele>50</ele>
        <time>2017-12-25T12:07:19Z</time>
      </trkpt>
      <trkpt lat="62.634606391836" lon="17.964991229725">
        <ele>50.2</ele>
        <time>2017-12-25T12:07:20Z</time>
      </trkpt>
      <trkpt lat="62.634582838697" lon="17.964988547517">
        <ele>50.2</ele>
        <time>2017-12-25T12:07:21Z</time>
      </trkpt>
      <trkpt lat="62.634559620834" lon="17.964986284404">
        <ele>50.2</ele>
        <time>2017-12-25T12:07:22Z</time>
      </trkpt>
      <trkpt lat="62.634534307496" lon="17.964987206413">
        <ele>50.2</ele>
        <time>2017-12-25T12:07:23Z</time>
      </trkpt>
      <trkpt lat="62.634511089633" lon="17.964983350739">
        <ele>50.4</ele>
        <time>2017-12-25T12:07:24Z</time>
      </trkpt>
      <trkpt lat="62.63448787177" lon="17.964982177273">
        <ele>50.4</ele>
        <time>2017-12-25T12:07:25Z</time>
      </trkpt>
      <trkpt lat="62.634464150993" lon="17.964981003807">
        <ele>50.4</ele>
        <time>2017-12-25T12:07:26Z</time>
      </trkpt>
      <trkpt lat="62.634439592026" lon="17.964979662703">
        <ele>50.4</ele>
        <time>2017-12-25T12:07:27Z</time>
      </trkpt>
      <trkpt lat="62.634416290344" lon="17.964980919988">
        <ele>50.4</ele>
        <time>2017-12-25T12:07:28Z</time>
      </trkpt>
      <trkpt lat="62.634392569567" lon="17.964978405418">
        <ele>50.6</ele>
        <time>2017-12-25T12:07:29Z</time>
      </trkpt>
      <trkpt lat="62.634366669496" lon="17.96496566493">
        <ele>50.6</ele>
        <time>2017-12-25T12:07:30Z</time>
      </trkpt>
      <trkpt lat="62.63434118852" lon="17.964962144532">
        <ele>50.6</ele>
        <time>2017-12-25T12:07:31Z</time>
      </trkpt>
      <trkpt lat="62.634315120811" lon="17.964958288858">
        <ele>50.6</ele>
        <time>2017-12-25T12:07:32Z</time>
      </trkpt>
      <trkpt lat="62.634290980939" lon="17.964959127048">
        <ele>50.8</ele>
        <time>2017-12-25T12:07:33Z</time>
      </trkpt>
      <trkpt lat="62.634268601266" lon="17.964961976894">
        <ele>50.8</ele>
        <time>2017-12-25T12:07:34Z</time>
      </trkpt>
      <trkpt lat="62.634245131946" lon="17.964961138704">
        <ele>50.8</ele>
        <time>2017-12-25T12:07:35Z</time>
      </trkpt>
      <trkpt lat="62.634218058409" lon="17.964962060713">
        <ele>50.8</ele>
        <time>2017-12-25T12:07:36Z</time>
      </trkpt>
      <trkpt lat="62.634193583261" lon="17.964962731265">
        <ele>51</ele>
        <time>2017-12-25T12:07:37Z</time>
      </trkpt>
      <trkpt lat="62.634165000982" lon="17.964959210867">
        <ele>51</ele>
        <time>2017-12-25T12:07:38Z</time>
      </trkpt>
      <trkpt lat="62.634142286033" lon="17.964958624134">
        <ele>51</ele>
        <time>2017-12-25T12:07:39Z</time>
      </trkpt>
      <trkpt lat="62.634117643247" lon="17.96495644484">
        <ele>51</ele>
        <time>2017-12-25T12:07:40Z</time>
      </trkpt>
      <trkpt lat="62.634092413728" lon="17.964955103736">
        <ele>51.2</ele>
        <time>2017-12-25T12:07:41Z</time>
      </trkpt>
      <trkpt lat="62.634068273856" lon="17.964957953582">
        <ele>51</ele>
        <time>2017-12-25T12:07:42Z</time>
      </trkpt>
      <trkpt lat="62.634042960518" lon="17.964954097908">
        <ele>51.2</ele>
        <time>2017-12-25T12:07:43Z</time>
      </trkpt>
      <trkpt lat="62.634018653008" lon="17.964952337709">
        <ele>51.2</ele>
        <time>2017-12-25T12:07:44Z</time>
      </trkpt>
      <trkpt lat="62.633997446801" lon="17.964950493691">
        <ele>51.2</ele>
        <time>2017-12-25T12:07:45Z</time>
      </trkpt>
      <trkpt lat="62.633970624721" lon="17.964949823139">
        <ele>51.2</ele>
        <time>2017-12-25T12:07:46Z</time>
      </trkpt>
      <trkpt lat="62.633948412686" lon="17.964949152587">
        <ele>51.2</ele>
        <time>2017-12-25T12:07:47Z</time>
      </trkpt>
      <trkpt lat="62.633924272814" lon="17.964950158415">
        <ele>51.2</ele>
        <time>2017-12-25T12:07:48Z</time>
      </trkpt>
      <trkpt lat="62.633902228417" lon="17.964952337709">
        <ele>51.4</ele>
        <time>2017-12-25T12:07:49Z</time>
      </trkpt>
      <trkpt lat="62.633884542608" lon="17.964963569455">
        <ele>51.4</ele>
        <time>2017-12-25T12:07:50Z</time>
      </trkpt>
      <trkpt lat="62.633867359713" lon="17.964985949128">
        <ele>51.6</ele>
        <time>2017-12-25T12:07:51Z</time>
      </trkpt>
      <trkpt lat="62.633857636709" lon="17.96501595633">
        <ele>51.6</ele>
        <time>2017-12-25T12:07:52Z</time>
      </trkpt>
      <trkpt lat="62.633849003352" lon="17.965056273269">
        <ele>51.8</ele>
        <time>2017-12-25T12:07:53Z</time>
      </trkpt>
      <trkpt lat="62.63384246547" lon="17.965101284072">
        <ele>51.8</ele>
        <time>2017-12-25T12:07:54Z</time>
      </trkpt>
      <trkpt lat="62.633842297832" lon="17.965137745337">
        <ele>52</ele>
        <time>2017-12-25T12:07:55Z</time>
      </trkpt>
      <trkpt lat="62.633841375823" lon="17.965182839959">
        <ele>52.2</ele>
        <time>2017-12-25T12:07:56Z</time>
      </trkpt>
      <trkpt lat="62.633841040547" lon="17.9652280184">
        <ele>52.4</ele>
        <time>2017-12-25T12:07:57Z</time>
      </trkpt>
      <trkpt lat="62.633843722755" lon="17.965266742778">
        <ele>52.6</ele>
        <time>2017-12-25T12:07:58Z</time>
      </trkpt>
      <trkpt lat="62.633845566773" lon="17.965312256495">
        <ele>52.8</ele>
        <time>2017-12-25T12:07:59Z</time>
      </trkpt>
      <trkpt lat="62.63384917099" lon="17.965349136855">
        <ele>53</ele>
        <time>2017-12-25T12:08:00Z</time>
      </trkpt>
      <trkpt lat="62.633853445759" lon="17.965392387459">
        <ele>53.2</ele>
        <time>2017-12-25T12:08:01Z</time>
      </trkpt>
      <trkpt lat="62.633857469071" lon="17.965439829013">
        <ele>53.4</ele>
        <time>2017-12-25T12:08:02Z</time>
      </trkpt>
      <trkpt lat="62.633859732184" lon="17.965478721029">
        <ele>53.6</ele>
        <time>2017-12-25T12:08:03Z</time>
      </trkpt>
      <trkpt lat="62.633863168763" lon="17.96552054671">
        <ele>53.8</ele>
        <time>2017-12-25T12:08:04Z</time>
      </trkpt>
      <trkpt lat="62.633865348057" lon="17.965561701839">
        <ele>53.8</ele>
        <time>2017-12-25T12:08:05Z</time>
      </trkpt>
      <trkpt lat="62.633868700817" lon="17.965604198072">
        <ele>54</ele>
        <time>2017-12-25T12:08:06Z</time>
      </trkpt>
      <trkpt lat="62.633871550663" lon="17.965647364857">
        <ele>54</ele>
        <time>2017-12-25T12:08:07Z</time>
      </trkpt>
      <trkpt lat="62.63387264031" lon="17.965690364004">
        <ele>54.2</ele>
        <time>2017-12-25T12:08:08Z</time>
      </trkpt>
      <trkpt lat="62.633874065233" lon="17.965734788074">
        <ele>54.4</ele>
        <time>2017-12-25T12:08:09Z</time>
      </trkpt>
      <trkpt lat="62.633874149052" lon="17.965778206316">
        <ele>54.6</ele>
        <time>2017-12-25T12:08:10Z</time>
      </trkpt>
      <trkpt lat="62.633874651966" lon="17.965822127472">
        <ele>54.8</ele>
        <time>2017-12-25T12:08:11Z</time>
      </trkpt>
      <trkpt lat="62.633874232871" lon="17.965868647017">
        <ele>55</ele>
        <time>2017-12-25T12:08:12Z</time>
      </trkpt>
      <trkpt lat="62.633872221215" lon="17.965914160734">
        <ele>55.2</ele>
        <time>2017-12-25T12:08:13Z</time>
      </trkpt>
      <trkpt lat="62.633868952274" lon="17.965962440478">
        <ele>55.4</ele>
        <time>2017-12-25T12:08:14Z</time>
      </trkpt>
      <trkpt lat="62.6338650966" lon="17.966006110177">
        <ele>55.4</ele>
        <time>2017-12-25T12:08:15Z</time>
      </trkpt>
      <trkpt lat="62.633860318917" lon="17.966053216455">
        <ele>55.6</ele>
        <time>2017-12-25T12:08:16Z</time>
      </trkpt>
      <trkpt lat="62.633847997524" lon="17.966096802335">
        <ele>55.8</ele>
        <time>2017-12-25T12:08:17Z</time>
      </trkpt>
      <trkpt lat="62.63383324538" lon="17.966135107618">
        <ele>56</ele>
        <time>2017-12-25T12:08:18Z</time>
      </trkpt>
      <trkpt lat="62.633818409417" lon="17.966170730693">
        <ele>56.2</ele>
        <time>2017-12-25T12:08:19Z</time>
      </trkpt>
      <trkpt lat="62.633800891246" lon="17.966200821714">
        <ele>56.2</ele>
        <time>2017-12-25T12:08:20Z</time>
      </trkpt>
      <trkpt lat="62.633782451066" lon="17.966227559975">
        <ele>56.4</ele>
        <time>2017-12-25T12:08:21Z</time>
      </trkpt>
      <trkpt lat="62.633763927067" lon="17.966252035123">
        <ele>56.6</ele>
        <time>2017-12-25T12:08:22Z</time>
      </trkpt>
      <trkpt lat="62.633743475231" lon="17.966273073692">
        <ele>56.6</ele>
        <time>2017-12-25T12:08:23Z</time>
      </trkpt>
      <trkpt lat="62.6337226043" lon="17.96629168151">
        <ele>56.6</ele>
        <time>2017-12-25T12:08:24Z</time>
      </trkpt>
      <trkpt lat="62.633701146636" lon="17.966303667627">
        <ele>56.8</ele>
        <time>2017-12-25T12:08:25Z</time>
      </trkpt>
      <trkpt lat="62.633678012592" lon="17.966317162486">
        <ele>57</ele>
        <time>2017-12-25T12:08:26Z</time>
      </trkpt>
      <trkpt lat="62.633655046186" lon="17.966329148603">
        <ele>57</ele>
        <time>2017-12-25T12:08:27Z</time>
      </trkpt>
      <trkpt lat="62.633631073952" lon="17.966337195227">
        <ele>57</ele>
        <time>2017-12-25T12:08:28Z</time>
      </trkpt>
      <trkpt lat="62.633606766442" lon="17.96634532567">
        <ele>57</ele>
        <time>2017-12-25T12:08:29Z</time>
      </trkpt>
      <trkpt lat="62.633589751185" lon="17.96634784024">
        <ele>57</ele>
        <time>2017-12-25T12:08:30Z</time>
      </trkpt>
      <trkpt lat="62.633559073431" lon="17.966347924059">
        <ele>57.2</ele>
        <time>2017-12-25T12:08:31Z</time>
      </trkpt>
      <trkpt lat="62.633534598283" lon="17.966351360638">
        <ele>57.2</ele>
        <time>2017-12-25T12:08:32Z</time>
      </trkpt>
      <trkpt lat="62.63351054223" lon="17.966353120837">
        <ele>57</ele>
        <time>2017-12-25T12:08:33Z</time>
      </trkpt>
      <trkpt lat="62.633484893616" lon="17.96635035481">
        <ele>57</ele>
        <time>2017-12-25T12:08:34Z</time>
      </trkpt>
      <trkpt lat="62.633463855047" lon="17.966347924059">
        <ele>57</ele>
        <time>2017-12-25T12:08:35Z</time>
      </trkpt>
      <trkpt lat="62.633436530053" lon="17.966346080041">
        <ele>56.8</ele>
        <time>2017-12-25T12:08:36Z</time>
      </trkpt>
      <trkpt lat="62.633413228371" lon="17.966347588783">
        <ele>56.8</ele>
        <time>2017-12-25T12:08:37Z</time>
      </trkpt>
      <trkpt lat="62.633388501766" lon="17.966349768077">
        <ele>56.8</ele>
        <time>2017-12-25T12:08:38Z</time>
      </trkpt>
      <trkpt lat="62.633363439885" lon="17.966351612095">
        <ele>56.8</ele>
        <time>2017-12-25T12:08:39Z</time>
      </trkpt>
      <trkpt lat="62.63333871328" lon="17.966353959027">
        <ele>56.8</ele>
        <time>2017-12-25T12:08:40Z</time>
      </trkpt>
      <trkpt lat="62.6333202731" lon="17.966348846068">
        <ele>56.8</ele>
        <time>2017-12-25T12:08:41Z</time>
      </trkpt>
      <trkpt lat="62.633292109916" lon="17.966348426973">
        <ele>56.6</ele>
        <time>2017-12-25T12:08:42Z</time>
      </trkpt>
      <trkpt lat="62.633268640596" lon="17.966346918231">
        <ele>56.6</ele>
        <time>2017-12-25T12:08:43Z</time>
      </trkpt>
      <trkpt lat="62.633243411077" lon="17.966350187172">
        <ele>56.6</ele>
        <time>2017-12-25T12:08:44Z</time>
      </trkpt>
      <trkpt lat="62.633220696128" lon="17.966347588783">
        <ele>56.6</ele>
        <time>2017-12-25T12:08:45Z</time>
      </trkpt>
      <trkpt lat="62.633195885704" lon="17.966349348982">
        <ele>56.4</ele>
        <time>2017-12-25T12:08:46Z</time>
      </trkpt>
      <trkpt lat="62.633170656185" lon="17.966348091697">
        <ele>56.4</ele>
        <time>2017-12-25T12:08:47Z</time>
      </trkpt>
      <trkpt lat="62.633142995915" lon="17.966347253507">
        <ele>56.4</ele>
        <time>2017-12-25T12:08:48Z</time>
      </trkpt>
      <trkpt lat="62.633118688405" lon="17.966348091697">
        <ele>56.4</ele>
        <time>2017-12-25T12:08:49Z</time>
      </trkpt>
      <trkpt lat="62.633096811646" lon="17.966348175516">
        <ele>56.4</ele>
        <time>2017-12-25T12:08:50Z</time>
      </trkpt>
      <trkpt lat="62.633070241023" lon="17.966347337326">
        <ele>56.4</ele>
        <time>2017-12-25T12:08:51Z</time>
      </trkpt>
      <trkpt lat="62.633049118635" lon="17.966347924059">
        <ele>56.4</ele>
        <time>2017-12-25T12:08:52Z</time>
      </trkpt>
      <trkpt lat="62.633022799469" lon="17.966352450285">
        <ele>56.2</ele>
        <time>2017-12-25T12:08:53Z</time>
      </trkpt>
      <trkpt lat="62.632995977389" lon="17.966357730882">
        <ele>56.2</ele>
        <time>2017-12-25T12:08:54Z</time>
      </trkpt>
      <trkpt lat="62.63297242425" lon="17.9663595749">
        <ele>56</ele>
        <time>2017-12-25T12:08:55Z</time>
      </trkpt>
      <trkpt lat="62.632943422876" lon="17.966359742538">
        <ele>56</ele>
        <time>2017-12-25T12:08:56Z</time>
      </trkpt>
      <trkpt lat="62.632918444814" lon="17.966355803045">
        <ele>55.8</ele>
        <time>2017-12-25T12:08:57Z</time>
      </trkpt>
      <trkpt lat="62.632895394589" lon="17.966354797217">
        <ele>55.8</ele>
        <time>2017-12-25T12:08:58Z</time>
      </trkpt>
      <trkpt lat="62.632868907785" lon="17.966353372294">
        <ele>55.6</ele>
        <time>2017-12-25T12:08:59Z</time>
      </trkpt>
      <trkpt lat="62.632846276655" lon="17.966350606267">
        <ele>55.6</ele>
        <time>2017-12-25T12:09:00Z</time>
      </trkpt>
      <trkpt lat="62.632821047136" lon="17.966355132493">
        <ele>55.6</ele>
        <time>2017-12-25T12:09:01Z</time>
      </trkpt>
      <trkpt lat="62.632794895608" lon="17.966359658719">
        <ele>55.4</ele>
        <time>2017-12-25T12:09:02Z</time>
      </trkpt>
      <trkpt lat="62.632772013021" lon="17.966358066158">
        <ele>55.4</ele>
        <time>2017-12-25T12:09:03Z</time>
      </trkpt>
      <trkpt lat="62.632747118778" lon="17.966355970683">
        <ele>55.4</ele>
        <time>2017-12-25T12:09:04Z</time>
      </trkpt>
      <trkpt lat="62.632721470164" lon="17.966355132493">
        <ele>55.2</ele>
        <time>2017-12-25T12:09:05Z</time>
      </trkpt>
      <trkpt lat="62.632688948392" lon="17.966359826357">
        <ele>55.2</ele>
        <time>2017-12-25T12:09:06Z</time>
      </trkpt>
      <trkpt lat="62.632662880683" lon="17.96636041309">
        <ele>55.2</ele>
        <time>2017-12-25T12:09:07Z</time>
      </trkpt>
      <trkpt lat="62.632634298404" lon="17.966359071986">
        <ele>55.2</ele>
        <time>2017-12-25T12:09:08Z</time>
      </trkpt>
      <trkpt lat="62.632609571799" lon="17.966358149977">
        <ele>55.2</ele>
        <time>2017-12-25T12:09:09Z</time>
      </trkpt>
      <trkpt lat="62.632584509918" lon="17.966353288475">
        <ele>55</ele>
        <time>2017-12-25T12:09:10Z</time>
      </trkpt>
      <trkpt lat="62.632558023114" lon="17.966346331498">
        <ele>55</ele>
        <time>2017-12-25T12:09:11Z</time>
      </trkpt>
      <trkpt lat="62.632531368672" lon="17.966344738937">
        <ele>55</ele>
        <time>2017-12-25T12:09:12Z</time>
      </trkpt>
      <trkpt lat="62.632503792221" lon="17.966339709797">
        <ele>54.8</ele>
        <time>2017-12-25T12:09:13Z</time>
      </trkpt>
      <trkpt lat="62.632478143607" lon="17.966337111408">
        <ele>54.6</ele>
        <time>2017-12-25T12:09:14Z</time>
      </trkpt>
      <trkpt lat="62.632453081726" lon="17.966331327897">
        <ele>54.6</ele>
        <time>2017-12-25T12:09:15Z</time>
      </trkpt>
      <trkpt lat="62.632425589094" lon="17.966319928513">
        <ele>54.6</ele>
        <time>2017-12-25T12:09:16Z</time>
      </trkpt>
      <trkpt lat="62.632401365403" lon="17.966314647916">
        <ele>54.6</ele>
        <time>2017-12-25T12:09:17Z</time>
      </trkpt>
      <trkpt lat="62.632374627142" lon="17.966305427826">
        <ele>54.4</ele>
        <time>2017-12-25T12:09:18Z</time>
      </trkpt>
      <trkpt lat="62.632349313804" lon="17.966297800297">
        <ele>54.4</ele>
        <time>2017-12-25T12:09:19Z</time>
      </trkpt>
      <trkpt lat="62.632327604683" lon="17.966291094777">
        <ele>54.2</ele>
        <time>2017-12-25T12:09:20Z</time>
      </trkpt>
      <trkpt lat="62.632300363508" lon="17.966292352062">
        <ele>54</ele>
        <time>2017-12-25T12:09:21Z</time>
      </trkpt>
      <trkpt lat="62.632279744034" lon="17.966304757274">
        <ele>54</ele>
        <time>2017-12-25T12:09:22Z</time>
      </trkpt>
      <trkpt lat="62.63225660999" lon="17.966331998449">
        <ele>53.8</ele>
        <time>2017-12-25T12:09:23Z</time>
      </trkpt>
      <trkpt lat="62.63223649343" lon="17.96637047137">
        <ele>53.8</ele>
        <time>2017-12-25T12:09:24Z</time>
      </trkpt>
      <trkpt lat="62.632226099874" lon="17.966409447205">
        <ele>53.6</ele>
        <time>2017-12-25T12:09:25Z</time>
      </trkpt>
      <trkpt lat="62.632216628327" lon="17.966464683926">
        <ele>53.8</ele>
        <time>2017-12-25T12:09:26Z</time>
      </trkpt>
      <trkpt lat="62.632210174264" lon="17.966514053317">
        <ele>53.6</ele>
        <time>2017-12-25T12:09:27Z</time>
      </trkpt>
      <trkpt lat="62.632205061305" lon="17.966557974473">
        <ele>53.6</ele>
        <time>2017-12-25T12:09:28Z</time>
      </trkpt>
      <trkpt lat="62.632199110156" lon="17.966606421855">
        <ele>53.6</ele>
        <time>2017-12-25T12:09:29Z</time>
      </trkpt>
      <trkpt lat="62.632197433776" lon="17.96664958864">
        <ele>53.8</ele>
        <time>2017-12-25T12:09:30Z</time>
      </trkpt>
      <trkpt lat="62.632195003025" lon="17.966698455117">
        <ele>53.8</ele>
        <time>2017-12-25T12:09:31Z</time>
      </trkpt>
      <trkpt lat="62.632191314989" lon="17.966746231947">
        <ele>54</ele>
        <time>2017-12-25T12:09:32Z</time>
      </trkpt>
      <trkpt lat="62.632186704944" lon="17.966790656017">
        <ele>54</ele>
        <time>2017-12-25T12:09:33Z</time>
      </trkpt>
      <trkpt lat="62.632180586157" lon="17.96684069596">
        <ele>54.2</ele>
        <time>2017-12-25T12:09:34Z</time>
      </trkpt>
      <trkpt lat="62.632176311388" lon="17.966883611288">
        <ele>54.6</ele>
        <time>2017-12-25T12:09:35Z</time>
      </trkpt>
      <trkpt lat="62.6321719528" lon="17.966937423086">
        <ele>54.6</ele>
        <time>2017-12-25T12:09:36Z</time>
      </trkpt>
      <trkpt lat="62.632166588384" lon="17.966984613183">
        <ele>55</ele>
        <time>2017-12-25T12:09:37Z</time>
      </trkpt>
      <trkpt lat="62.632161559244" lon="17.967034820764">
        <ele>55.2</ele>
        <time>2017-12-25T12:09:38Z</time>
      </trkpt>
      <trkpt lat="62.632154183172" lon="17.967084357793">
        <ele>55.4</ele>
        <time>2017-12-25T12:09:39Z</time>
      </trkpt>
      <trkpt lat="62.632145214539" lon="17.967126602569">
        <ele>55.6</ele>
        <time>2017-12-25T12:09:40Z</time>
      </trkpt>
      <trkpt lat="62.632135659173" lon="17.967175804322">
        <ele>55.8</ele>
        <time>2017-12-25T12:09:41Z</time>
      </trkpt>
      <trkpt lat="62.632122415771" lon="17.967226514817">
        <ele>55.8</ele>
        <time>2017-12-25T12:09:42Z</time>
      </trkpt>
      <trkpt lat="62.632112692767" lon="17.96726984924">
        <ele>56.2</ele>
        <time>2017-12-25T12:09:43Z</time>
      </trkpt>
      <trkpt lat="62.632100455193" lon="17.967318631898">
        <ele>56.4</ele>
        <time>2017-12-25T12:09:44Z</time>
      </trkpt>
      <trkpt lat="62.63208897199" lon="17.967359787027">
        <ele>56.6</ele>
        <time>2017-12-25T12:09:45Z</time>
      </trkpt>
      <trkpt lat="62.632077824063" lon="17.967405552201">
        <ele>56.8</ele>
        <time>2017-12-25T12:09:46Z</time>
      </trkpt>
      <trkpt lat="62.632063993928" lon="17.967446120597">
        <ele>57</ele>
        <time>2017-12-25T12:09:47Z</time>
      </trkpt>
      <trkpt lat="62.632051672535" lon="17.967488449192">
        <ele>57.2</ele>
        <time>2017-12-25T12:09:48Z</time>
      </trkpt>
      <trkpt lat="62.632038345314" lon="17.967530107235">
        <ele>57.2</ele>
        <time>2017-12-25T12:09:49Z</time>
      </trkpt>
      <trkpt lat="62.632026610654" lon="17.967567490509">
        <ele>57.4</ele>
        <time>2017-12-25T12:09:50Z</time>
      </trkpt>
      <trkpt lat="62.6320126967" lon="17.967607220715">
        <ele>57.6</ele>
        <time>2017-12-25T12:09:51Z</time>
      </trkpt>
      <trkpt lat="62.631998363651" lon="17.967642340876">
        <ele>57.8</ele>
        <time>2017-12-25T12:09:52Z</time>
      </trkpt>
      <trkpt lat="62.631985371706" lon="17.967684250376">
        <ele>58</ele>
        <time>2017-12-25T12:09:53Z</time>
      </trkpt>
      <trkpt lat="62.631972128304" lon="17.967729093541">
        <ele>58</ele>
        <time>2017-12-25T12:09:54Z</time>
      </trkpt>
      <trkpt lat="62.631960142187" lon="17.9677677341">
        <ele>58.4</ele>
        <time>2017-12-25T12:09:55Z</time>
      </trkpt>
      <trkpt lat="62.631947150242" lon="17.967808051039">
        <ele>58.6</ele>
        <time>2017-12-25T12:09:56Z</time>
      </trkpt>
      <trkpt lat="62.631932984831" lon="17.967848367978">
        <ele>58.8</ele>
        <time>2017-12-25T12:09:57Z</time>
      </trkpt>
      <trkpt lat="62.6319204958" lon="17.967893043505">
        <ele>59</ele>
        <time>2017-12-25T12:09:58Z</time>
      </trkpt>
      <trkpt lat="62.631906833303" lon="17.967937802851">
        <ele>59.4</ele>
        <time>2017-12-25T12:09:59Z</time>
      </trkpt>
      <trkpt lat="62.631894679548" lon="17.967979628532">
        <ele>59.4</ele>
        <time>2017-12-25T12:10:00Z</time>
      </trkpt>
      <trkpt lat="62.631883028707" lon="17.968021789489">
        <ele>59.6</ele>
        <time>2017-12-25T12:10:01Z</time>
      </trkpt>
      <trkpt lat="62.631869198572" lon="17.968064369541">
        <ele>59.8</ele>
        <time>2017-12-25T12:10:02Z</time>
      </trkpt>
      <trkpt lat="62.631857044817" lon="17.968105021756">
        <ele>60</ele>
        <time>2017-12-25T12:10:03Z</time>
      </trkpt>
      <trkpt lat="62.631843969053" lon="17.968141063926">
        <ele>60.2</ele>
        <time>2017-12-25T12:10:04Z</time>
      </trkpt>
      <trkpt lat="62.631831480022" lon="17.968179620666">
        <ele>60.4</ele>
        <time>2017-12-25T12:10:05Z</time>
      </trkpt>
      <trkpt lat="62.631819913" lon="17.968218931777">
        <ele>60.6</ele>
        <time>2017-12-25T12:10:06Z</time>
      </trkpt>
      <trkpt lat="62.631806334322" lon="17.968255141585">
        <ele>60.8</ele>
        <time>2017-12-25T12:10:07Z</time>
      </trkpt>
      <trkpt lat="62.631790157255" lon="17.968294871791">
        <ele>61</ele>
        <time>2017-12-25T12:10:08Z</time>
      </trkpt>
      <trkpt lat="62.631777668224" lon="17.968336613653">
        <ele>61</ele>
        <time>2017-12-25T12:10:09Z</time>
      </trkpt>
      <trkpt lat="62.631766436478" lon="17.968375254212">
        <ele>61.2</ele>
        <time>2017-12-25T12:10:10Z</time>
      </trkpt>
      <trkpt lat="62.631757216388" lon="17.96841900773">
        <ele>61.4</ele>
        <time>2017-12-25T12:10:11Z</time>
      </trkpt>
      <trkpt lat="62.631745062633" lon="17.968467874207">
        <ele>61.6</ele>
        <time>2017-12-25T12:10:12Z</time>
      </trkpt>
      <trkpt lat="62.63173357943" lon="17.968510118983">
        <ele>61.6</ele>
        <time>2017-12-25T12:10:13Z</time>
      </trkpt>
      <trkpt lat="62.631723269693" lon="17.968552950492">
        <ele>61.6</ele>
        <time>2017-12-25T12:10:14Z</time>
      </trkpt>
      <trkpt lat="62.631712792318" lon="17.968592177784">
        <ele>62</ele>
        <time>2017-12-25T12:10:15Z</time>
      </trkpt>
      <trkpt lat="62.631705248608" lon="17.968635847483">
        <ele>62.2</ele>
        <time>2017-12-25T12:10:16Z</time>
      </trkpt>
      <trkpt lat="62.63169837545" lon="17.968681025924">
        <ele>62.4</ele>
        <time>2017-12-25T12:10:17Z</time>
      </trkpt>
      <trkpt lat="62.63169250812" lon="17.968724276528">
        <ele>62.6</ele>
        <time>2017-12-25T12:10:18Z</time>
      </trkpt>
      <trkpt lat="62.631689322998" lon="17.96877020934">
        <ele>63</ele>
        <time>2017-12-25T12:10:19Z</time>
      </trkpt>
      <trkpt lat="62.631686724609" lon="17.968818656722">
        <ele>63.2</ele>
        <time>2017-12-25T12:10:20Z</time>
      </trkpt>
      <trkpt lat="62.631687311342" lon="17.968864338077">
        <ele>63.4</ele>
        <time>2017-12-25T12:10:21Z</time>
      </trkpt>
      <trkpt lat="62.63168831717" lon="17.968903397731">
        <ele>63.6</ele>
        <time>2017-12-25T12:10:22Z</time>
      </trkpt>
      <trkpt lat="62.631691418473" lon="17.968953102398">
        <ele>63.8</ele>
        <time>2017-12-25T12:10:23Z</time>
      </trkpt>
      <trkpt lat="62.631693011034" lon="17.968988474016">
        <ele>64</ele>
        <time>2017-12-25T12:10:24Z</time>
      </trkpt>
      <trkpt lat="62.631698878364" lon="17.969026946937">
        <ele>64.2</ele>
        <time>2017-12-25T12:10:25Z</time>
      </trkpt>
      <trkpt lat="62.631707846997" lon="17.969071203369">
        <ele>64.6</ele>
        <time>2017-12-25T12:10:26Z</time>
      </trkpt>
      <trkpt lat="62.631713798146" lon="17.969117722914">
        <ele>64.8</ele>
        <time>2017-12-25T12:10:27Z</time>
      </trkpt>
      <trkpt lat="62.631721928589" lon="17.96916499683">
        <ele>64.8</ele>
        <time>2017-12-25T12:10:28Z</time>
      </trkpt>
      <trkpt lat="62.631731148679" lon="17.969209001805">
        <ele>65</ele>
        <time>2017-12-25T12:10:29Z</time>
      </trkpt>
      <trkpt lat="62.631740955502" lon="17.969255269893">
        <ele>65.2</ele>
        <time>2017-12-25T12:10:30Z</time>
      </trkpt>
      <trkpt lat="62.631752354886" lon="17.969298939592">
        <ele>65.4</ele>
        <time>2017-12-25T12:10:31Z</time>
      </trkpt>
      <trkpt lat="62.631762664623" lon="17.969339507988">
        <ele>65.6</ele>
        <time>2017-12-25T12:10:32Z</time>
      </trkpt>
      <trkpt lat="62.631773728731" lon="17.969376891262">
        <ele>65.6</ele>
        <time>2017-12-25T12:10:33Z</time>
      </trkpt>
      <trkpt lat="62.631784876658" lon="17.969405724998">
        <ele>65.6</ele>
        <time>2017-12-25T12:10:34Z</time>
      </trkpt>
      <trkpt lat="62.631795102576" lon="17.969432211802">
        <ele>66</ele>
        <time>2017-12-25T12:10:35Z</time>
      </trkpt>
      <trkpt lat="62.631807004874" lon="17.969468337791">
        <ele>66.2</ele>
        <time>2017-12-25T12:10:36Z</time>
      </trkpt>
      <trkpt lat="62.631816644059" lon="17.969491136559">
        <ele>66.4</ele>
        <time>2017-12-25T12:10:37Z</time>
      </trkpt>
      <trkpt lat="62.631822930484" lon="17.969513180956">
        <ele>66.6</ele>
        <time>2017-12-25T12:10:38Z</time>
      </trkpt>
      <trkpt lat="62.631825696511" lon="17.9695279331">
        <ele>66.8</ele>
        <time>2017-12-25T12:10:39Z</time>
      </trkpt>
      <trkpt lat="62.631829049271" lon="17.969544780719">
        <ele>66.8</ele>
        <time>2017-12-25T12:10:40Z</time>
      </trkpt>
      <trkpt lat="62.631830474194" lon="17.969570429333">
        <ele>67</ele>
        <time>2017-12-25T12:10:41Z</time>
      </trkpt>
      <trkpt lat="62.631828211081" lon="17.969585349115">
        <ele>67</ele>
        <time>2017-12-25T12:10:42Z</time>
      </trkpt>
      <trkpt lat="62.631830390375" lon="17.969574285007">
        <ele>67</ele>
        <time>2017-12-25T12:10:43Z</time>
      </trkpt>
      <trkpt lat="62.631959723092" lon="17.969589875341">
        <ele>67.6</ele>
        <time>2017-12-25T12:13:07Z</time>
      </trkpt>
      <trkpt lat="62.631980258747" lon="17.969586774038">
        <ele>67.6</ele>
        <time>2017-12-25T12:13:08Z</time>
      </trkpt>
      <trkpt lat="62.632009176302" lon="17.969582331631">
        <ele>67.8</ele>
        <time>2017-12-25T12:13:09Z</time>
      </trkpt>
      <trkpt lat="62.632034741097" lon="17.969581744898">
        <ele>68</ele>
        <time>2017-12-25T12:13:10Z</time>
      </trkpt>
      <trkpt lat="62.632061814634" lon="17.969579481785">
        <ele>68.2</ele>
        <time>2017-12-25T12:13:11Z</time>
      </trkpt>
      <trkpt lat="62.632090313094" lon="17.96957906269">
        <ele>68.2</ele>
        <time>2017-12-25T12:13:12Z</time>
      </trkpt>
      <trkpt lat="62.632114452966" lon="17.969565400193">
        <ele>68.2</ele>
        <time>2017-12-25T12:13:13Z</time>
      </trkpt>
      <trkpt lat="62.632139347209" lon="17.969559197587">
        <ele>68.4</ele>
        <time>2017-12-25T12:13:14Z</time>
      </trkpt>
      <trkpt lat="62.63216440909" lon="17.969551234782">
        <ele>68.4</ele>
        <time>2017-12-25T12:13:15Z</time>
      </trkpt>
      <trkpt lat="62.632185028564" lon="17.969545283633">
        <ele>68.4</ele>
        <time>2017-12-25T12:13:16Z</time>
      </trkpt>
      <trkpt lat="62.632215873956" lon="17.969540673588">
        <ele>68.4</ele>
        <time>2017-12-25T12:13:17Z</time>
      </trkpt>
      <trkpt lat="62.632241438751" lon="17.969542014692">
        <ele>68.4</ele>
        <time>2017-12-25T12:13:18Z</time>
      </trkpt>
      <trkpt lat="62.632269937211" lon="17.969538578113">
        <ele>68.4</ele>
        <time>2017-12-25T12:13:19Z</time>
      </trkpt>
      <trkpt lat="62.63229013759" lon="17.969532794602">
        <ele>68.6</ele>
        <time>2017-12-25T12:13:20Z</time>
      </trkpt>
      <trkpt lat="62.632317630222" lon="17.969532291688">
        <ele>68.6</ele>
        <time>2017-12-25T12:13:21Z</time>
      </trkpt>
      <trkpt lat="62.632343027379" lon="17.96953128586">
        <ele>68.6</ele>
        <time>2017-12-25T12:13:22Z</time>
      </trkpt>
      <trkpt lat="62.632367334889" lon="17.969528016919">
        <ele>68.6</ele>
        <time>2017-12-25T12:13:23Z</time>
      </trkpt>
      <trkpt lat="62.632396503901" lon="17.969526340539">
        <ele>68.6</ele>
        <time>2017-12-25T12:13:24Z</time>
      </trkpt>
      <trkpt lat="62.63242173342" lon="17.969526005263">
        <ele>68.6</ele>
        <time>2017-12-25T12:13:25Z</time>
      </trkpt>
      <trkpt lat="62.632446627663" lon="17.969527681643">
        <ele>68.4</ele>
        <time>2017-12-25T12:13:26Z</time>
      </trkpt>
      <trkpt lat="62.63247453939" lon="17.969528938928">
        <ele>68.4</ele>
        <time>2017-12-25T12:13:27Z</time>
      </trkpt>
      <trkpt lat="62.632499852728" lon="17.969531369679">
        <ele>68.4</ele>
        <time>2017-12-25T12:13:28Z</time>
      </trkpt>
      <trkpt lat="62.632528686464" lon="17.969536063543">
        <ele>68.4</ele>
        <time>2017-12-25T12:13:29Z</time>
      </trkpt>
      <trkpt lat="62.63255500563" lon="17.969544613081">
        <ele>68.4</ele>
        <time>2017-12-25T12:13:30Z</time>
      </trkpt>
      <trkpt lat="62.632582079167" lon="17.969552156791">
        <ele>68.4</ele>
        <time>2017-12-25T12:13:31Z</time>
      </trkpt>
      <trkpt lat="62.632607895419" lon="17.969566070745">
        <ele>68.6</ele>
        <time>2017-12-25T12:13:32Z</time>
      </trkpt>
      <trkpt lat="62.632634466042" lon="17.969577721586">
        <ele>68.6</ele>
        <time>2017-12-25T12:13:33Z</time>
      </trkpt>
      <trkpt lat="62.63266313214" lon="17.969583169821">
        <ele>68.6</ele>
        <time>2017-12-25T12:13:34Z</time>
      </trkpt>
      <trkpt lat="62.632685344175" lon="17.969585349115">
        <ele>68.6</ele>
        <time>2017-12-25T12:13:35Z</time>
      </trkpt>
      <trkpt lat="62.632713842635" lon="17.969593731015">
        <ele>68.6</ele>
        <time>2017-12-25T12:13:36Z</time>
      </trkpt>
      <trkpt lat="62.632738736878" lon="17.969598843974">
        <ele>68.6</ele>
        <time>2017-12-25T12:13:37Z</time>
      </trkpt>
      <trkpt lat="62.632764636949" lon="17.969601107087">
        <ele>68.6</ele>
        <time>2017-12-25T12:13:38Z</time>
      </trkpt>
      <trkpt lat="62.632792129581" lon="17.9696033702">
        <ele>68.6</ele>
        <time>2017-12-25T12:13:39Z</time>
      </trkpt>
      <trkpt lat="62.63280981539" lon="17.969607309693">
        <ele>68.8</ele>
        <time>2017-12-25T12:13:40Z</time>
      </trkpt>
      <trkpt lat="62.632841247515" lon="17.969613847575">
        <ele>68.8</ele>
        <time>2017-12-25T12:13:41Z</time>
      </trkpt>
      <trkpt lat="62.6328676505" lon="17.969618625258">
        <ele>68.8</ele>
        <time>2017-12-25T12:13:42Z</time>
      </trkpt>
      <trkpt lat="62.632893131476" lon="17.969619798724">
        <ele>69</ele>
        <time>2017-12-25T12:13:43Z</time>
      </trkpt>
      <trkpt lat="62.632922300488" lon="17.969627174796">
        <ele>69</ele>
        <time>2017-12-25T12:13:44Z</time>
      </trkpt>
      <trkpt lat="62.632944596342" lon="17.969624492588">
        <ele>69.2</ele>
        <time>2017-12-25T12:13:45Z</time>
      </trkpt>
      <trkpt lat="62.63297242425" lon="17.969630779013">
        <ele>69.2</ele>
        <time>2017-12-25T12:13:46Z</time>
      </trkpt>
      <trkpt lat="62.63299840814" lon="17.969634886144">
        <ele>69.2</ele>
        <time>2017-12-25T12:13:47Z</time>
      </trkpt>
      <trkpt lat="62.633026319867" lon="17.969639747646">
        <ele>69.2</ele>
        <time>2017-12-25T12:13:48Z</time>
      </trkpt>
      <trkpt lat="62.633054063956" lon="17.969650141202">
        <ele>69.4</ele>
        <time>2017-12-25T12:13:49Z</time>
      </trkpt>
      <trkpt lat="62.633076108353" lon="17.969655002704">
        <ele>69.6</ele>
        <time>2017-12-25T12:13:50Z</time>
      </trkpt>
      <trkpt lat="62.633106031736" lon="17.969665899174">
        <ele>69.6</ele>
        <time>2017-12-25T12:13:51Z</time>
      </trkpt>
      <trkpt lat="62.633123633726" lon="17.969669671029">
        <ele>69.6</ele>
        <time>2017-12-25T12:13:52Z</time>
      </trkpt>
      <trkpt lat="62.633158083335" lon="17.969680735137">
        <ele>69.6</ele>
        <time>2017-12-25T12:13:53Z</time>
      </trkpt>
      <trkpt lat="62.633185240691" lon="17.969690961055">
        <ele>69.8</ele>
        <time>2017-12-25T12:13:54Z</time>
      </trkpt>
      <trkpt lat="62.633208458554" lon="17.969694397634">
        <ele>69.8</ele>
        <time>2017-12-25T12:13:55Z</time>
      </trkpt>
      <trkpt lat="62.633237962842" lon="17.969705713199">
        <ele>69.8</ele>
        <time>2017-12-25T12:13:56Z</time>
      </trkpt>
      <trkpt lat="62.63326411437" lon="17.969719627153">
        <ele>69.8</ele>
        <time>2017-12-25T12:13:57Z</time>
      </trkpt>
      <trkpt lat="62.633288086604" lon="17.969745694862">
        <ele>69.8</ele>
        <time>2017-12-25T12:13:58Z</time>
      </trkpt>
      <trkpt lat="62.633311472105" lon="17.969773271313">
        <ele>69.8</ele>
        <time>2017-12-25T12:13:59Z</time>
      </trkpt>
      <trkpt lat="62.633330918113" lon="17.969806547456">
        <ele>70</ele>
        <time>2017-12-25T12:14:00Z</time>
      </trkpt>
      <trkpt lat="62.633351034673" lon="17.969844601282">
        <ele>70</ele>
        <time>2017-12-25T12:14:01Z</time>
      </trkpt>
      <trkpt lat="62.633364613351" lon="17.969880475814">
        <ele>70</ele>
        <time>2017-12-25T12:14:02Z</time>
      </trkpt>
      <trkpt lat="62.633377940572" lon="17.969935041983">
        <ele>70.2</ele>
        <time>2017-12-25T12:14:03Z</time>
      </trkpt>
      <trkpt lat="62.633384646092" lon="17.969980807157">
        <ele>70.2</ele>
        <time>2017-12-25T12:14:04Z</time>
      </trkpt>
      <trkpt lat="62.633389591413" lon="17.970034535136">
        <ele>70.4</ele>
        <time>2017-12-25T12:14:05Z</time>
      </trkpt>
      <trkpt lat="62.633395207286" lon="17.970095806825">
        <ele>70.4</ele>
        <time>2017-12-25T12:14:06Z</time>
      </trkpt>
      <trkpt lat="62.63339654839" lon="17.970153558116">
        <ele>70.4</ele>
        <time>2017-12-25T12:14:07Z</time>
      </trkpt>
      <trkpt lat="62.63339738658" lon="17.970211225588">
        <ele>70.6</ele>
        <time>2017-12-25T12:14:08Z</time>
      </trkpt>
      <trkpt lat="62.63340073934" lon="17.970265791757">
        <ele>70.6</ele>
        <time>2017-12-25T12:14:09Z</time>
      </trkpt>
      <trkpt lat="62.633400906978" lon="17.97031918446">
        <ele>70.8</ele>
        <time>2017-12-25T12:14:10Z</time>
      </trkpt>
      <trkpt lat="62.633403924462" lon="17.970375762285">
        <ele>71</ele>
        <time>2017-12-25T12:14:11Z</time>
      </trkpt>
      <trkpt lat="62.633406941946" lon="17.970433597395">
        <ele>71</ele>
        <time>2017-12-25T12:14:12Z</time>
      </trkpt>
      <trkpt lat="62.633406187575" lon="17.970487912107">
        <ele>71</ele>
        <time>2017-12-25T12:14:13Z</time>
      </trkpt>
      <trkpt lat="62.633408953602" lon="17.97053711386">
        <ele>71.4</ele>
        <time>2017-12-25T12:14:14Z</time>
      </trkpt>
      <trkpt lat="62.633411049077" lon="17.970594446056">
        <ele>71.6</ele>
        <time>2017-12-25T12:14:15Z</time>
      </trkpt>
      <trkpt lat="62.633413396009" lon="17.970643983085">
        <ele>71.4</ele>
        <time>2017-12-25T12:14:16Z</time>
      </trkpt>
      <trkpt lat="62.633413396009" lon="17.970694274485">
        <ele>71.6</ele>
        <time>2017-12-25T12:14:17Z</time>
      </trkpt>
      <trkpt lat="62.633415659122" lon="17.970751019948">
        <ele>71.8</ele>
        <time>2017-12-25T12:14:18Z</time>
      </trkpt>
      <trkpt lat="62.633418173692" lon="17.970803825918">
        <ele>71.8</ele>
        <time>2017-12-25T12:14:19Z</time>
      </trkpt>
      <trkpt lat="62.633418844244" lon="17.970860487562">
        <ele>72</ele>
        <time>2017-12-25T12:14:20Z</time>
      </trkpt>
      <trkpt lat="62.633419766253" lon="17.970914131722">
        <ele>72</ele>
        <time>2017-12-25T12:14:21Z</time>
      </trkpt>
      <trkpt lat="62.633421526452" lon="17.970971463918">
        <ele>72.2</ele>
        <time>2017-12-25T12:14:22Z</time>
      </trkpt>
      <trkpt lat="62.633425549764" lon="17.971027790286">
        <ele>72.4</ele>
        <time>2017-12-25T12:14:23Z</time>
      </trkpt>
      <trkpt lat="62.633427058506" lon="17.971090822174">
        <ele>72.4</ele>
        <time>2017-12-25T12:14:24Z</time>
      </trkpt>
      <trkpt lat="62.633425549764" lon="17.971140694479">
        <ele>72.6</ele>
        <time>2017-12-25T12:14:25Z</time>
      </trkpt>
      <trkpt lat="62.633425298307" lon="17.971198613408">
        <ele>72.6</ele>
        <time>2017-12-25T12:14:26Z</time>
      </trkpt>
      <trkpt lat="62.633423789565" lon="17.971253682491">
        <ele>72.6</ele>
        <time>2017-12-25T12:14:27Z</time>
      </trkpt>
      <trkpt lat="62.633422783737" lon="17.971304476805">
        <ele>72.8</ele>
        <time>2017-12-25T12:14:28Z</time>
      </trkpt>
      <trkpt lat="62.633419514796" lon="17.971363904476">
        <ele>72.8</ele>
        <time>2017-12-25T12:14:29Z</time>
      </trkpt>
      <trkpt lat="62.633418006054" lon="17.971415453161">
        <ele>72.8</ele>
        <time>2017-12-25T12:14:30Z</time>
      </trkpt>
      <trkpt lat="62.633416748769" lon="17.971472198624">
        <ele>72.8</ele>
        <time>2017-12-25T12:14:31Z</time>
      </trkpt>
      <trkpt lat="62.63341415038" lon="17.971526429517">
        <ele>72.8</ele>
        <time>2017-12-25T12:14:32Z</time>
      </trkpt>
      <trkpt lat="62.633411971086" lon="17.971580408953">
        <ele>73</ele>
        <time>2017-12-25T12:14:33Z</time>
      </trkpt>
      <trkpt lat="62.633407780136" lon="17.971633047285">
        <ele>73.4</ele>
        <time>2017-12-25T12:14:34Z</time>
      </trkpt>
      <trkpt lat="62.633405181747" lon="17.971681746124">
        <ele>73.4</ele>
        <time>2017-12-25T12:14:35Z</time>
      </trkpt>
      <trkpt lat="62.633399817331" lon="17.97173991651">
        <ele>73.4</ele>
        <time>2017-12-25T12:14:36Z</time>
      </trkpt>
      <trkpt lat="62.633394536734" lon="17.971795320869">
        <ele>73.8</ele>
        <time>2017-12-25T12:14:37Z</time>
      </trkpt>
      <trkpt lat="62.633389591413" lon="17.971849132667">
        <ele>74</ele>
        <time>2017-12-25T12:14:38Z</time>
      </trkpt>
      <trkpt lat="62.633383388807" lon="17.971906213406">
        <ele>74</ele>
        <time>2017-12-25T12:14:39Z</time>
      </trkpt>
      <trkpt lat="62.633379281676" lon="17.971953487322">
        <ele>74</ele>
        <time>2017-12-25T12:14:40Z</time>
      </trkpt>
      <trkpt lat="62.633374001079" lon="17.972014926649">
        <ele>74</ele>
        <time>2017-12-25T12:14:41Z</time>
      </trkpt>
      <trkpt lat="62.633367295559" lon="17.972070582465">
        <ele>74.2</ele>
        <time>2017-12-25T12:14:42Z</time>
      </trkpt>
      <trkpt lat="62.633359332754" lon="17.972126070643">
        <ele>74.2</ele>
        <time>2017-12-25T12:14:43Z</time>
      </trkpt>
      <trkpt lat="62.633350028845" lon="17.972179630984">
        <ele>74.2</ele>
        <time>2017-12-25T12:14:44Z</time>
      </trkpt>
      <trkpt lat="62.633344329153" lon="17.972227156357">
        <ele>74.4</ele>
        <time>2017-12-25T12:14:45Z</time>
      </trkpt>
      <trkpt lat="62.633335863434" lon="17.972285662019">
        <ele>74.4</ele>
        <time>2017-12-25T12:14:46Z</time>
      </trkpt>
      <trkpt lat="62.63333033138" lon="17.972333690306">
        <ele>74.6</ele>
        <time>2017-12-25T12:14:47Z</time>
      </trkpt>
      <trkpt lat="62.633321195109" lon="17.972393369434">
        <ele>74.6</ele>
        <time>2017-12-25T12:14:48Z</time>
      </trkpt>
      <trkpt lat="62.633312645571" lon="17.972445923947">
        <ele>74.6</ele>
        <time>2017-12-25T12:14:49Z</time>
      </trkpt>
      <trkpt lat="62.633304431309" lon="17.972491605302">
        <ele>74.6</ele>
        <time>2017-12-25T12:14:50Z</time>
      </trkpt>
      <trkpt lat="62.633294708305" lon="17.972550362421">
        <ele>74.8</ele>
        <time>2017-12-25T12:14:51Z</time>
      </trkpt>
      <trkpt lat="62.633287835147" lon="17.972597468699">
        <ele>74.8</ele>
        <time>2017-12-25T12:14:52Z</time>
      </trkpt>
      <trkpt lat="62.633276519582" lon="17.972650526126">
        <ele>75</ele>
        <time>2017-12-25T12:14:53Z</time>
      </trkpt>
      <trkpt lat="62.633268389139" lon="17.972697883861">
        <ele>75.2</ele>
        <time>2017-12-25T12:14:54Z</time>
      </trkpt>
      <trkpt lat="62.633257660307" lon="17.972748594356">
        <ele>75.2</ele>
        <time>2017-12-25T12:14:55Z</time>
      </trkpt>
      <trkpt lat="62.633247518208" lon="17.972800059222">
        <ele>75.4</ele>
        <time>2017-12-25T12:14:56Z</time>
      </trkpt>
      <trkpt lat="62.633237376109" lon="17.972849428613">
        <ele>75.6</ele>
        <time>2017-12-25T12:14:57Z</time>
      </trkpt>
      <trkpt lat="62.633227401648" lon="17.972898965642">
        <ele>75.6</ele>
        <time>2017-12-25T12:14:58Z</time>
      </trkpt>
      <trkpt lat="62.633218935929" lon="17.972949676137">
        <ele>75.6</ele>
        <time>2017-12-25T12:14:59Z</time>
      </trkpt>
      <trkpt lat="62.633206949812" lon="17.97299971608">
        <ele>75.8</ele>
        <time>2017-12-25T12:15:00Z</time>
      </trkpt>
      <trkpt lat="62.633194963695" lon="17.973050175118">
        <ele>75.8</ele>
        <time>2017-12-25T12:15:01Z</time>
      </trkpt>
      <trkpt lat="62.633185408329" lon="17.97310113707">
        <ele>75.8</ele>
        <time>2017-12-25T12:15:02Z</time>
      </trkpt>
      <trkpt lat="62.63317191347" lon="17.973155200325">
        <ele>76</ele>
        <time>2017-12-25T12:15:03Z</time>
      </trkpt>
      <trkpt lat="62.633163699208" lon="17.973200127309">
        <ele>76</ele>
        <time>2017-12-25T12:15:04Z</time>
      </trkpt>
      <trkpt lat="62.633152383643" lon="17.973249831976">
        <ele>76.2</ele>
        <time>2017-12-25T12:15:05Z</time>
      </trkpt>
      <trkpt lat="62.633142073906" lon="17.973300542471">
        <ele>76.2</ele>
        <time>2017-12-25T12:15:06Z</time>
      </trkpt>
      <trkpt lat="62.633129417237" lon="17.973351420604">
        <ele>76.2</ele>
        <time>2017-12-25T12:15:07Z</time>
      </trkpt>
      <trkpt lat="62.633116844387" lon="17.973403304565">
        <ele>76.4</ele>
        <time>2017-12-25T12:15:08Z</time>
      </trkpt>
      <trkpt lat="62.633106786107" lon="17.973447644816">
        <ele>76.4</ele>
        <time>2017-12-25T12:15:09Z</time>
      </trkpt>
      <trkpt lat="62.633094632352" lon="17.973493745266">
        <ele>76.4</ele>
        <time>2017-12-25T12:15:10Z</time>
      </trkpt>
      <trkpt lat="62.633083149149" lon="17.973545042494">
        <ele>76.6</ele>
        <time>2017-12-25T12:15:11Z</time>
      </trkpt>
      <trkpt lat="62.633071246851" lon="17.973593741333">
        <ele>76.6</ele>
        <time>2017-12-25T12:15:12Z</time>
      </trkpt>
      <trkpt lat="62.633058506363" lon="17.97364512238">
        <ele>76.4</ele>
        <time>2017-12-25T12:15:13Z</time>
      </trkpt>
      <trkpt lat="62.633046771703" lon="17.973692731572">
        <ele>76.6</ele>
        <time>2017-12-25T12:15:14Z</time>
      </trkpt>
      <trkpt lat="62.633035372319" lon="17.973740843678">
        <ele>76.6</ele>
        <time>2017-12-25T12:15:15Z</time>
      </trkpt>
      <trkpt lat="62.633027074238" lon="17.973785267748">
        <ele>76.8</ele>
        <time>2017-12-25T12:15:16Z</time>
      </trkpt>
      <trkpt lat="62.63301181918" lon="17.973855424251">
        <ele>76.8</ele>
        <time>2017-12-25T12:15:17Z</time>
      </trkpt>
      <trkpt lat="62.632997486131" lon="17.973909236049">
        <ele>77</ele>
        <time>2017-12-25T12:15:18Z</time>
      </trkpt>
      <trkpt lat="62.632984578005" lon="17.973952989567">
        <ele>77.2</ele>
        <time>2017-12-25T12:15:19Z</time>
      </trkpt>
      <trkpt lat="62.632970496413" lon="17.974003364786">
        <ele>77.4</ele>
        <time>2017-12-25T12:15:20Z</time>
      </trkpt>
      <trkpt lat="62.632958677934" lon="17.974053740005">
        <ele>77.4</ele>
        <time>2017-12-25T12:15:21Z</time>
      </trkpt>
      <trkpt lat="62.632946021265" lon="17.974107887079">
        <ele>77.4</ele>
        <time>2017-12-25T12:15:22Z</time>
      </trkpt>
      <trkpt lat="62.632934370424" lon="17.974161866515">
        <ele>77.6</ele>
        <time>2017-12-25T12:15:23Z</time>
      </trkpt>
      <trkpt lat="62.632921546117" lon="17.974215343037">
        <ele>77.8</ele>
        <time>2017-12-25T12:15:24Z</time>
      </trkpt>
      <trkpt lat="62.632909811457" lon="17.974266556446">
        <ele>77.8</ele>
        <time>2017-12-25T12:15:25Z</time>
      </trkpt>
      <trkpt lat="62.632898160616" lon="17.974318943321">
        <ele>77.8</ele>
        <time>2017-12-25T12:15:26Z</time>
      </trkpt>
      <trkpt lat="62.632883659929" lon="17.974375772603">
        <ele>77.8</ele>
        <time>2017-12-25T12:15:27Z</time>
      </trkpt>
      <trkpt lat="62.63287435602" lon="17.974423968528">
        <ele>78</ele>
        <time>2017-12-25T12:15:28Z</time>
      </trkpt>
      <trkpt lat="62.632860609704" lon="17.974476690679">
        <ele>77.8</ele>
        <time>2017-12-25T12:15:29Z</time>
      </trkpt>
      <trkpt lat="62.632848791225" lon="17.974528742278">
        <ele>77.8</ele>
        <time>2017-12-25T12:15:30Z</time>
      </trkpt>
      <trkpt lat="62.632835044909" lon="17.974586912664">
        <ele>77.8</ele>
        <time>2017-12-25T12:15:31Z</time>
      </trkpt>
      <trkpt lat="62.632823477887" lon="17.974634940951">
        <ele>77.8</ele>
        <time>2017-12-25T12:15:32Z</time>
      </trkpt>
      <trkpt lat="62.632809563933" lon="17.974686741093">
        <ele>78</ele>
        <time>2017-12-25T12:15:33Z</time>
      </trkpt>
      <trkpt lat="62.632797745454" lon="17.974729991697">
        <ele>78</ele>
        <time>2017-12-25T12:15:34Z</time>
      </trkpt>
      <trkpt lat="62.632784250595" lon="17.974778187622">
        <ele>78</ele>
        <time>2017-12-25T12:15:35Z</time>
      </trkpt>
      <trkpt lat="62.632772180659" lon="17.974833424343">
        <ele>78</ele>
        <time>2017-12-25T12:15:36Z</time>
      </trkpt>
      <trkpt lat="62.632760194542" lon="17.97489151091">
        <ele>78</ele>
        <time>2017-12-25T12:15:37Z</time>
      </trkpt>
      <trkpt lat="62.632747034959" lon="17.974940293568">
        <ele>78</ele>
        <time>2017-12-25T12:15:38Z</time>
      </trkpt>
      <trkpt lat="62.632734294471" lon="17.974989746778">
        <ele>78.2</ele>
        <time>2017-12-25T12:15:39Z</time>
      </trkpt>
      <trkpt lat="62.632721470164" lon="17.975032913563">
        <ele>78.2</ele>
        <time>2017-12-25T12:15:40Z</time>
      </trkpt>
      <trkpt lat="62.632711076608" lon="17.975081947678">
        <ele>78.2</ele>
        <time>2017-12-25T12:15:41Z</time>
      </trkpt>
      <trkpt lat="62.632697162654" lon="17.975131568526">
        <ele>78.2</ele>
        <time>2017-12-25T12:15:42Z</time>
      </trkpt>
      <trkpt lat="62.632687020555" lon="17.975180183546">
        <ele>78.2</ele>
        <time>2017-12-25T12:15:43Z</time>
      </trkpt>
      <trkpt lat="62.632675537352" lon="17.975231480774">
        <ele>78.2</ele>
        <time>2017-12-25T12:15:44Z</time>
      </trkpt>
      <trkpt lat="62.632662545407" lon="17.975280933984">
        <ele>78.2</ele>
        <time>2017-12-25T12:15:45Z</time>
      </trkpt>
      <trkpt lat="62.63265139748" lon="17.975329465185">
        <ele>78.2</ele>
        <time>2017-12-25T12:15:46Z</time>
      </trkpt>
      <trkpt lat="62.632639327544" lon="17.975380510956">
        <ele>78.2</ele>
        <time>2017-12-25T12:15:47Z</time>
      </trkpt>
      <trkpt lat="62.63262625178" lon="17.975435747677">
        <ele>78.4</ele>
        <time>2017-12-25T12:15:48Z</time>
      </trkpt>
      <trkpt lat="62.632616612595" lon="17.975482602498">
        <ele>78.4</ele>
        <time>2017-12-25T12:15:49Z</time>
      </trkpt>
      <trkpt lat="62.632604626478" lon="17.975534989373">
        <ele>78.4</ele>
        <time>2017-12-25T12:15:50Z</time>
      </trkpt>
      <trkpt lat="62.632593813827" lon="17.975590980465">
        <ele>78.6</ele>
        <time>2017-12-25T12:15:51Z</time>
      </trkpt>
      <trkpt lat="62.632582749719" lon="17.975643534978">
        <ele>78.8</ele>
        <time>2017-12-25T12:15:52Z</time>
      </trkpt>
      <trkpt lat="62.632569757774" lon="17.975696760043">
        <ele>78.8</ele>
        <time>2017-12-25T12:15:53Z</time>
      </trkpt>
      <trkpt lat="62.63255835839" lon="17.975748560185">
        <ele>78.6</ele>
        <time>2017-12-25T12:15:54Z</time>
      </trkpt>
      <trkpt lat="62.632546372273" lon="17.975798683947">
        <ele>78.8</ele>
        <time>2017-12-25T12:15:55Z</time>
      </trkpt>
      <trkpt lat="62.632533296509" lon="17.975848388614">
        <ele>78.8</ele>
        <time>2017-12-25T12:15:56Z</time>
      </trkpt>
      <trkpt lat="62.632524579333" lon="17.975900021118">
        <ele>78.8</ele>
        <time>2017-12-25T12:15:57Z</time>
      </trkpt>
      <trkpt lat="62.632514437234" lon="17.975955593115">
        <ele>78.8</ele>
        <time>2017-12-25T12:15:58Z</time>
      </trkpt>
      <trkpt lat="62.632503792221" lon="17.976001693565">
        <ele>78.8</ele>
        <time>2017-12-25T12:15:59Z</time>
      </trkpt>
      <trkpt lat="62.632491387009" lon="17.97604821311">
        <ele>78.8</ele>
        <time>2017-12-25T12:16:00Z</time>
      </trkpt>
      <trkpt lat="62.632477640693" lon="17.976103282193">
        <ele>78.8</ele>
        <time>2017-12-25T12:16:01Z</time>
      </trkpt>
      <trkpt lat="62.632468252965" lon="17.976149466462">
        <ele>78.8</ele>
        <time>2017-12-25T12:16:02Z</time>
      </trkpt>
      <trkpt lat="62.632454003735" lon="17.976205206097">
        <ele>78.8</ele>
        <time>2017-12-25T12:16:03Z</time>
      </trkpt>
      <trkpt lat="62.63244268817" lon="17.97625440785">
        <ele>79</ele>
        <time>2017-12-25T12:16:04Z</time>
      </trkpt>
      <trkpt lat="62.632431037329" lon="17.976304950707">
        <ele>79</ele>
        <time>2017-12-25T12:16:05Z</time>
      </trkpt>
      <trkpt lat="62.632417877746" lon="17.976362282903">
        <ele>79</ele>
        <time>2017-12-25T12:16:06Z</time>
      </trkpt>
      <trkpt lat="62.632407400371" lon="17.976411484656">
        <ele>79</ele>
        <time>2017-12-25T12:16:07Z</time>
      </trkpt>
      <trkpt lat="62.632393402598" lon="17.976460937866">
        <ele>79.2</ele>
        <time>2017-12-25T12:16:08Z</time>
      </trkpt>
      <trkpt lat="62.632381248843" lon="17.97650921761">
        <ele>79.2</ele>
        <time>2017-12-25T12:16:09Z</time>
      </trkpt>
      <trkpt lat="62.632370436192" lon="17.976556407707">
        <ele>79.2</ele>
        <time>2017-12-25T12:16:10Z</time>
      </trkpt>
      <trkpt lat="62.632356689876" lon="17.976612482618">
        <ele>79.2</ele>
        <time>2017-12-25T12:16:11Z</time>
      </trkpt>
      <trkpt lat="62.63234629632" lon="17.976662941656">
        <ele>79.2</ele>
        <time>2017-12-25T12:16:12Z</time>
      </trkpt>
      <trkpt lat="62.632334645479" lon="17.976718597472">
        <ele>79.4</ele>
        <time>2017-12-25T12:16:13Z</time>
      </trkpt>
      <trkpt lat="62.632323749009" lon="17.976768721234">
        <ele>79.4</ele>
        <time>2017-12-25T12:16:14Z</time>
      </trkpt>
      <trkpt lat="62.632312265806" lon="17.976813899675">
        <ele>79.4</ele>
        <time>2017-12-25T12:16:15Z</time>
      </trkpt>
      <trkpt lat="62.632298351852" lon="17.976869304034">
        <ele>79.4</ele>
        <time>2017-12-25T12:16:16Z</time>
      </trkpt>
      <trkpt lat="62.632289047943" lon="17.976915655941">
        <ele>79.4</ele>
        <time>2017-12-25T12:16:17Z</time>
      </trkpt>
      <trkpt lat="62.632276558912" lon="17.976973071956">
        <ele>79.6</ele>
        <time>2017-12-25T12:16:18Z</time>
      </trkpt>
      <trkpt lat="62.632263986062" lon="17.977026716116">
        <ele>79.6</ele>
        <time>2017-12-25T12:16:19Z</time>
      </trkpt>
      <trkpt lat="62.632254011601" lon="17.977076253145">
        <ele>79.6</ele>
        <time>2017-12-25T12:16:20Z</time>
      </trkpt>
      <trkpt lat="62.632240013828" lon="17.977133250065">
        <ele>79.8</ele>
        <time>2017-12-25T12:16:21Z</time>
      </trkpt>
      <trkpt lat="62.632229536453" lon="17.977182619456">
        <ele>79.8</ele>
        <time>2017-12-25T12:16:22Z</time>
      </trkpt>
      <trkpt lat="62.632217717974" lon="17.977234335779">
        <ele>79.8</ele>
        <time>2017-12-25T12:16:23Z</time>
      </trkpt>
      <trkpt lat="62.632204809848" lon="17.977286722654">
        <ele>80</ele>
        <time>2017-12-25T12:16:24Z</time>
      </trkpt>
      <trkpt lat="62.632194416292" lon="17.977337097873">
        <ele>80</ele>
        <time>2017-12-25T12:16:25Z</time>
      </trkpt>
      <trkpt lat="62.63217949651" lon="17.977394932983">
        <ele>80</ele>
        <time>2017-12-25T12:16:26Z</time>
      </trkpt>
      <trkpt lat="62.632167678031" lon="17.977444386193">
        <ele>80.2</ele>
        <time>2017-12-25T12:16:27Z</time>
      </trkpt>
      <trkpt lat="62.632156613923" lon="17.977494258498">
        <ele>80.4</ele>
        <time>2017-12-25T12:16:28Z</time>
      </trkpt>
      <trkpt lat="62.632143370521" lon="17.977548824667">
        <ele>80.2</ele>
        <time>2017-12-25T12:16:29Z</time>
      </trkpt>
      <trkpt lat="62.632133144603" lon="17.977593919289">
        <ele>80.4</ele>
        <time>2017-12-25T12:16:30Z</time>
      </trkpt>
      <trkpt lat="62.632119230649" lon="17.977649323648">
        <ele>80.4</ele>
        <time>2017-12-25T12:16:31Z</time>
      </trkpt>
      <trkpt lat="62.632108417998" lon="17.977697519573">
        <ele>80.6</ele>
        <time>2017-12-25T12:16:32Z</time>
      </trkpt>
      <trkpt lat="62.632095761329" lon="17.977752756294">
        <ele>80.4</ele>
        <time>2017-12-25T12:16:33Z</time>
      </trkpt>
      <trkpt lat="62.63208394285" lon="17.977806987187">
        <ele>80.4</ele>
        <time>2017-12-25T12:16:34Z</time>
      </trkpt>
      <trkpt lat="62.632076818235" lon="17.977840598606">
        <ele>80.4</ele>
        <time>2017-12-25T12:16:35Z</time>
      </trkpt>
      <trkpt lat="62.63205963534" lon="17.977908743453">
        <ele>80.6</ele>
        <time>2017-12-25T12:16:36Z</time>
      </trkpt>
      <trkpt lat="62.632047733042" lon="17.977955765912">
        <ele>80.6</ele>
        <time>2017-12-25T12:16:37Z</time>
      </trkpt>
      <trkpt lat="62.632035663106" lon="17.978011337909">
        <ele>80.8</ele>
        <time>2017-12-25T12:16:38Z</time>
      </trkpt>
      <trkpt lat="62.632023006437" lon="17.978064982069">
        <ele>80.6</ele>
        <time>2017-12-25T12:16:39Z</time>
      </trkpt>
      <trkpt lat="62.63201353489" lon="17.97811267508">
        <ele>80.8</ele>
        <time>2017-12-25T12:16:40Z</time>
      </trkpt>
      <trkpt lat="62.631999620936" lon="17.978167325068">
        <ele>80.8</ele>
        <time>2017-12-25T12:16:41Z</time>
      </trkpt>
      <trkpt lat="62.631988724466" lon="17.978218622296">
        <ele>81</ele>
        <time>2017-12-25T12:16:42Z</time>
      </trkpt>
      <trkpt lat="62.631976319254" lon="17.978270925352">
        <ele>81</ele>
        <time>2017-12-25T12:16:43Z</time>
      </trkpt>
      <trkpt lat="62.631963159671" lon="17.978323479865">
        <ele>81.2</ele>
        <time>2017-12-25T12:16:44Z</time>
      </trkpt>
      <trkpt lat="62.631952263201" lon="17.978369496496">
        <ele>81.2</ele>
        <time>2017-12-25T12:16:45Z</time>
      </trkpt>
      <trkpt lat="62.631938768342" lon="17.978427499244">
        <ele>81.2</ele>
        <time>2017-12-25T12:16:46Z</time>
      </trkpt>
      <trkpt lat="62.631928793881" lon="17.978474186427">
        <ele>81.2</ele>
        <time>2017-12-25T12:16:47Z</time>
      </trkpt>
      <trkpt lat="62.631917226859" lon="17.978531937718">
        <ele>81.4</ele>
        <time>2017-12-25T12:16:48Z</time>
      </trkpt>
      <trkpt lat="62.631904989285" lon="17.978585246602">
        <ele>81.2</ele>
        <time>2017-12-25T12:16:49Z</time>
      </trkpt>
      <trkpt lat="62.631894847186" lon="17.97862900012">
        <ele>81.4</ele>
        <time>2017-12-25T12:16:50Z</time>
      </trkpt>
      <trkpt lat="62.631882190517" lon="17.978684069203">
        <ele>81.4</ele>
        <time>2017-12-25T12:16:51Z</time>
      </trkpt>
      <trkpt lat="62.631871377866" lon="17.978731175481">
        <ele>81.6</ele>
        <time>2017-12-25T12:16:52Z</time>
      </trkpt>
      <trkpt lat="62.631861319586" lon="17.978775934827">
        <ele>81.4</ele>
        <time>2017-12-25T12:16:53Z</time>
      </trkpt>
      <trkpt lat="62.631847657089" lon="17.978827399693">
        <ele>81.6</ele>
        <time>2017-12-25T12:16:54Z</time>
      </trkpt>
      <trkpt lat="62.631837347352" lon="17.97887291341">
        <ele>81.6</ele>
        <time>2017-12-25T12:16:55Z</time>
      </trkpt>
      <trkpt lat="62.631824271588" lon="17.978928988321">
        <ele>81.8</ele>
        <time>2017-12-25T12:16:56Z</time>
      </trkpt>
      <trkpt lat="62.631814967679" lon="17.978978357712">
        <ele>81.8</ele>
        <time>2017-12-25T12:16:57Z</time>
      </trkpt>
      <trkpt lat="62.631806418141" lon="17.97902965494">
        <ele>81.6</ele>
        <time>2017-12-25T12:16:58Z</time>
      </trkpt>
      <trkpt lat="62.631794432024" lon="17.97908497548">
        <ele>81.8</ele>
        <time>2017-12-25T12:16:59Z</time>
      </trkpt>
      <trkpt lat="62.631783787011" lon="17.979130656835">
        <ele>81.8</ele>
        <time>2017-12-25T12:17:00Z</time>
      </trkpt>
      <trkpt lat="62.63177045979" lon="17.979187737574">
        <ele>82</ele>
        <time>2017-12-25T12:17:01Z</time>
      </trkpt>
      <trkpt lat="62.631759228044" lon="17.979236101137">
        <ele>82</ele>
        <time>2017-12-25T12:17:02Z</time>
      </trkpt>
      <trkpt lat="62.631747661022" lon="17.979286308718">
        <ele>82</ele>
        <time>2017-12-25T12:17:03Z</time>
      </trkpt>
      <trkpt lat="62.631736177819" lon="17.979334253186">
        <ele>82.2</ele>
        <time>2017-12-25T12:17:04Z</time>
      </trkpt>
      <trkpt lat="62.631727041548" lon="17.979377000876">
        <ele>82.2</ele>
        <time>2017-12-25T12:17:05Z</time>
      </trkpt>
      <trkpt lat="62.631713127594" lon="17.979436344728">
        <ele>82.2</ele>
        <time>2017-12-25T12:17:06Z</time>
      </trkpt>
      <trkpt lat="62.631701644391" lon="17.97948898306">
        <ele>82.4</ele>
        <time>2017-12-25T12:17:07Z</time>
      </trkpt>
      <trkpt lat="62.631689574455" lon="17.979542291944">
        <ele>82.6</ele>
        <time>2017-12-25T12:17:08Z</time>
      </trkpt>
      <trkpt lat="62.63167406794" lon="17.979596355199">
        <ele>82.4</ele>
        <time>2017-12-25T12:17:09Z</time>
      </trkpt>
      <trkpt lat="62.631661914185" lon="17.979640192536">
        <ele>82.6</ele>
        <time>2017-12-25T12:17:10Z</time>
      </trkpt>
      <trkpt lat="62.631643557824" lon="17.97968931047">
        <ele>82.6</ele>
        <time>2017-12-25T12:17:11Z</time>
      </trkpt>
      <trkpt lat="62.631622770712" lon="17.979729459771">
        <ele>82.8</ele>
        <time>2017-12-25T12:17:12Z</time>
      </trkpt>
      <trkpt lat="62.631600391039" lon="17.979761981543">
        <ele>82.6</ele>
        <time>2017-12-25T12:17:13Z</time>
      </trkpt>
      <trkpt lat="62.631573736597" lon="17.979788133071">
        <ele>82.8</ele>
        <time>2017-12-25T12:17:14Z</time>
      </trkpt>
      <trkpt lat="62.631553284761" lon="17.979805986518">
        <ele>82.8</ele>
        <time>2017-12-25T12:17:15Z</time>
      </trkpt>
      <trkpt lat="62.631530066898" lon="17.979828617648">
        <ele>82.8</ele>
        <time>2017-12-25T12:17:16Z</time>
      </trkpt>
      <trkpt lat="62.631506262302" lon="17.979850410588">
        <ele>82.8</ele>
        <time>2017-12-25T12:17:17Z</time>
      </trkpt>
      <trkpt lat="62.631481535697" lon="17.979864575999">
        <ele>82.8</ele>
        <time>2017-12-25T12:17:18Z</time>
      </trkpt>
      <trkpt lat="62.631456473816" lon="17.979889302604">
        <ele>82.8</ele>
        <time>2017-12-25T12:17:19Z</time>
      </trkpt>
      <trkpt lat="62.631434848514" lon="17.979925344774">
        <ele>83</ele>
        <time>2017-12-25T12:17:20Z</time>
      </trkpt>
      <trkpt lat="62.631415737782" lon="17.979961806039">
        <ele>83</ele>
        <time>2017-12-25T12:17:21Z</time>
      </trkpt>
      <trkpt lat="62.631394783032" lon="17.979990472137">
        <ele>83</ele>
        <time>2017-12-25T12:17:22Z</time>
      </trkpt>
      <trkpt lat="62.631372068083" lon="17.980026346669">
        <ele>83</ele>
        <time>2017-12-25T12:17:23Z</time>
      </trkpt>
      <trkpt lat="62.631349017858" lon="17.980056689147">
        <ele>83</ele>
        <time>2017-12-25T12:17:24Z</time>
      </trkpt>
      <trkpt lat="62.631321609045" lon="17.980072279481">
        <ele>83.2</ele>
        <time>2017-12-25T12:17:25Z</time>
      </trkpt>
      <trkpt lat="62.631294786965" lon="17.980077224802">
        <ele>83.2</ele>
        <time>2017-12-25T12:17:26Z</time>
      </trkpt>
      <trkpt lat="62.631268551618" lon="17.980069513454">
        <ele>83.2</ele>
        <time>2017-12-25T12:17:27Z</time>
      </trkpt>
      <trkpt lat="62.631243405918" lon="17.980061550649">
        <ele>83.2</ele>
        <time>2017-12-25T12:17:28Z</time>
      </trkpt>
      <trkpt lat="62.631219433684" lon="17.980055264224">
        <ele>83.4</ele>
        <time>2017-12-25T12:17:29Z</time>
      </trkpt>
      <trkpt lat="62.63119294688" lon="17.980038248967">
        <ele>83.4</ele>
        <time>2017-12-25T12:17:30Z</time>
      </trkpt>
      <trkpt lat="62.631167549723" lon="17.980025676117">
        <ele>83.4</ele>
        <time>2017-12-25T12:17:31Z</time>
      </trkpt>
      <trkpt lat="62.631144164222" lon="17.980010169602">
        <ele>83.4</ele>
        <time>2017-12-25T12:17:32Z</time>
      </trkpt>
      <trkpt lat="62.631119018522" lon="17.979983682798">
        <ele>83.6</ele>
        <time>2017-12-25T12:17:33Z</time>
      </trkpt>
      <trkpt lat="62.631098315229" lon="17.979961386944">
        <ele>83.4</ele>
        <time>2017-12-25T12:17:34Z</time>
      </trkpt>
      <trkpt lat="62.631075265004" lon="17.979935486873">
        <ele>83.4</ele>
        <time>2017-12-25T12:17:35Z</time>
      </trkpt>
      <trkpt lat="62.631051460408" lon="17.979914113028">
        <ele>83.6</ele>
        <time>2017-12-25T12:17:36Z</time>
      </trkpt>
      <trkpt lat="62.631026901441" lon="17.979897013952">
        <ele>83.8</ele>
        <time>2017-12-25T12:17:37Z</time>
      </trkpt>
      <trkpt lat="62.63100351594" lon="17.979873376994">
        <ele>83.8</ele>
        <time>2017-12-25T12:17:38Z</time>
      </trkpt>
      <trkpt lat="62.630981555362" lon="17.979858038117">
        <ele>83.8</ele>
        <time>2017-12-25T12:17:39Z</time>
      </trkpt>
      <trkpt lat="62.630956158205" lon="17.979839933213">
        <ele>83.8</ele>
        <time>2017-12-25T12:17:40Z</time>
      </trkpt>
      <trkpt lat="62.630928833211" lon="17.979825432526">
        <ele>84</ele>
        <time>2017-12-25T12:17:41Z</time>
      </trkpt>
      <trkpt lat="62.630903184597" lon="17.979805232147">
        <ele>84.2</ele>
        <time>2017-12-25T12:17:42Z</time>
      </trkpt>
      <trkpt lat="62.63087694925" lon="17.97978570232">
        <ele>84</ele>
        <time>2017-12-25T12:17:43Z</time>
      </trkpt>
      <trkpt lat="62.630852222645" lon="17.97976810033">
        <ele>84.2</ele>
        <time>2017-12-25T12:17:44Z</time>
      </trkpt>
      <trkpt lat="62.630826574031" lon="17.97974630739">
        <ele>84.4</ele>
        <time>2017-12-25T12:17:45Z</time>
      </trkpt>
      <trkpt lat="62.630801679788" lon="17.979720742595">
        <ele>84.4</ele>
        <time>2017-12-25T12:17:46Z</time>
      </trkpt>
      <trkpt lat="62.630779803029" lon="17.979696770361">
        <ele>84.6</ele>
        <time>2017-12-25T12:17:47Z</time>
      </trkpt>
      <trkpt lat="62.63075624989" lon="17.979664583865">
        <ele>84.8</ele>
        <time>2017-12-25T12:17:48Z</time>
      </trkpt>
      <trkpt lat="62.630732193837" lon="17.97963985726">
        <ele>84.8</ele>
        <time>2017-12-25T12:17:49Z</time>
      </trkpt>
      <trkpt lat="62.630708053965" lon="17.979609263325">
        <ele>85</ele>
        <time>2017-12-25T12:17:50Z</time>
      </trkpt>
      <trkpt lat="62.63068165098" lon="17.979581770693">
        <ele>85.2</ele>
        <time>2017-12-25T12:17:51Z</time>
      </trkpt>
      <trkpt lat="62.63065901985" lon="17.979554864794">
        <ele>85.4</ele>
        <time>2017-12-25T12:17:52Z</time>
      </trkpt>
      <trkpt lat="62.630636891634" lon="17.979519325538">
        <ele>85.2</ele>
        <time>2017-12-25T12:17:53Z</time>
      </trkpt>
      <trkpt lat="62.63061627216" lon="17.979490994716">
        <ele>85.4</ele>
        <time>2017-12-25T12:17:54Z</time>
      </trkpt>
      <trkpt lat="62.630596071781" lon="17.97945713184">
        <ele>85.6</ele>
        <time>2017-12-25T12:17:55Z</time>
      </trkpt>
      <trkpt lat="62.630572770099" lon="17.979421424946">
        <ele>85.4</ele>
        <time>2017-12-25T12:17:56Z</time>
      </trkpt>
      <trkpt lat="62.630547456761" lon="17.979393010305">
        <ele>85.4</ele>
        <time>2017-12-25T12:17:57Z</time>
      </trkpt>
      <trkpt lat="62.630525412364" lon="17.979355543212">
        <ele>85.4</ele>
        <time>2017-12-25T12:17:58Z</time>
      </trkpt>
      <trkpt lat="62.630508564745" lon="17.979315226273">
        <ele>85.6</ele>
        <time>2017-12-25T12:17:59Z</time>
      </trkpt>
      <trkpt lat="62.630489956927" lon="17.97928027375">
        <ele>85.6</ele>
        <time>2017-12-25T12:18:00Z</time>
      </trkpt>
      <trkpt lat="62.630474366593" lon="17.979231071997">
        <ele>85.4</ele>
        <time>2017-12-25T12:18:01Z</time>
      </trkpt>
      <trkpt lat="62.630457183698" lon="17.979192934352">
        <ele>85.4</ele>
        <time>2017-12-25T12:18:02Z</time>
      </trkpt>
      <trkpt lat="62.63043941407" lon="17.979142140038">
        <ele>85.6</ele>
        <time>2017-12-25T12:18:03Z</time>
      </trkpt>
      <trkpt lat="62.630425248659" lon="17.979088747335">
        <ele>85.4</ele>
        <time>2017-12-25T12:18:04Z</time>
      </trkpt>
      <trkpt lat="62.630409071592" lon="17.979044826179">
        <ele>85.4</ele>
        <time>2017-12-25T12:18:05Z</time>
      </trkpt>
      <trkpt lat="62.630389457946" lon="17.978990595286">
        <ele>85.2</ele>
        <time>2017-12-25T12:18:06Z</time>
      </trkpt>
      <trkpt lat="62.630369676662" lon="17.978940639162">
        <ele>85.2</ele>
        <time>2017-12-25T12:18:07Z</time>
      </trkpt>
      <trkpt lat="62.63035140412" lon="17.978896047454">
        <ele>85.2</ele>
        <time>2017-12-25T12:18:08Z</time>
      </trkpt>
      <trkpt lat="62.630332628664" lon="17.97884525314">
        <ele>85</ele>
        <time>2017-12-25T12:18:09Z</time>
      </trkpt>
      <trkpt lat="62.630318044158" lon="17.978801918717">
        <ele>84.8</ele>
        <time>2017-12-25T12:18:10Z</time>
      </trkpt>
      <trkpt lat="62.630301699453" lon="17.97874969948">
        <ele>84.8</ele>
        <time>2017-12-25T12:18:11Z</time>
      </trkpt>
      <trkpt lat="62.6302860253" lon="17.978695971501">
        <ele>84.8</ele>
        <time>2017-12-25T12:18:12Z</time>
      </trkpt>
      <trkpt lat="62.630272530441" lon="17.978647943214">
        <ele>84.6</ele>
        <time>2017-12-25T12:18:13Z</time>
      </trkpt>
      <trkpt lat="62.630255934279" lon="17.978594047597">
        <ele>84.4</ele>
        <time>2017-12-25T12:18:14Z</time>
      </trkpt>
      <trkpt lat="62.630243193791" lon="17.978548701518">
        <ele>84.4</ele>
        <time>2017-12-25T12:18:15Z</time>
      </trkpt>
      <trkpt lat="62.63023070476" lon="17.978500840869">
        <ele>84.4</ele>
        <time>2017-12-25T12:18:16Z</time>
      </trkpt>
      <trkpt lat="62.630205056146" lon="17.978383829545">
        <ele>84</ele>
        <time>2017-12-25T12:18:18Z</time>
      </trkpt>
      <trkpt lat="62.63019633897" lon="17.978322976951">
        <ele>84</ele>
        <time>2017-12-25T12:18:19Z</time>
      </trkpt>
      <trkpt lat="62.630188040889" lon="17.978266650583">
        <ele>84</ele>
        <time>2017-12-25T12:18:20Z</time>
      </trkpt>
      <trkpt lat="62.630181335369" lon="17.978209402206">
        <ele>83.8</ele>
        <time>2017-12-25T12:18:21Z</time>
      </trkpt>
      <trkpt lat="62.630175803315" lon="17.978145448309">
        <ele>83.6</ele>
        <time>2017-12-25T12:18:22Z</time>
      </trkpt>
      <trkpt lat="62.630169181614" lon="17.978088535208">
        <ele>83.6</ele>
        <time>2017-12-25T12:18:23Z</time>
      </trkpt>
      <trkpt lat="62.630165828854" lon="17.978027347338">
        <ele>83.4</ele>
        <time>2017-12-25T12:18:24Z</time>
      </trkpt>
      <trkpt lat="62.630160632076" lon="17.977964399269">
        <ele>83.4</ele>
        <time>2017-12-25T12:18:25Z</time>
      </trkpt>
      <trkpt lat="62.630154597108" lon="17.977896589698">
        <ele>83.2</ele>
        <time>2017-12-25T12:18:26Z</time>
      </trkpt>
      <trkpt lat="62.630152250176" lon="17.977834479819">
        <ele>83</ele>
        <time>2017-12-25T12:18:27Z</time>
      </trkpt>
      <trkpt lat="62.630153004547" lon="17.977773459587">
        <ele>82.8</ele>
        <time>2017-12-25T12:18:28Z</time>
      </trkpt>
      <trkpt lat="62.630153339823" lon="17.977717217038">
        <ele>82.6</ele>
        <time>2017-12-25T12:18:29Z</time>
      </trkpt>
      <trkpt lat="62.630153675099" lon="17.977653011684">
        <ele>82.4</ele>
        <time>2017-12-25T12:18:30Z</time>
      </trkpt>
      <trkpt lat="62.630155519117" lon="17.977593416375">
        <ele>82.4</ele>
        <time>2017-12-25T12:18:31Z</time>
      </trkpt>
      <trkpt lat="62.630156692583" lon="17.977538850206">
        <ele>82.4</ele>
        <time>2017-12-25T12:18:32Z</time>
      </trkpt>
      <trkpt lat="62.630158201325" lon="17.977472465558">
        <ele>82.2</ele>
        <time>2017-12-25T12:18:33Z</time>
      </trkpt>
      <trkpt lat="62.630157698411" lon="17.977413708439">
        <ele>82</ele>
        <time>2017-12-25T12:18:34Z</time>
      </trkpt>
      <trkpt lat="62.630159961524" lon="17.9773566277">
        <ele>82</ele>
        <time>2017-12-25T12:18:35Z</time>
      </trkpt>
      <trkpt lat="62.6301686787" lon="17.977289153405">
        <ele>82</ele>
        <time>2017-12-25T12:18:36Z</time>
      </trkpt>
      <trkpt lat="62.630171947641" lon="17.977232491761">
        <ele>81.8</ele>
        <time>2017-12-25T12:18:37Z</time>
      </trkpt>
      <trkpt lat="62.63017622241" lon="17.977165101285">
        <ele>81.6</ele>
        <time>2017-12-25T12:18:38Z</time>
      </trkpt>
      <trkpt lat="62.630179239894" lon="17.977109445469">
        <ele>81.6</ele>
        <time>2017-12-25T12:18:39Z</time>
      </trkpt>
      <trkpt lat="62.630182676473" lon="17.977053454377">
        <ele>81.6</ele>
        <time>2017-12-25T12:18:40Z</time>
      </trkpt>
      <trkpt lat="62.630186699785" lon="17.976986566815">
        <ele>81.4</ele>
        <time>2017-12-25T12:18:41Z</time>
      </trkpt>
      <trkpt lat="62.630189298174" lon="17.976927306782">
        <ele>81.2</ele>
        <time>2017-12-25T12:18:42Z</time>
      </trkpt>
      <trkpt lat="62.630191728925" lon="17.976866370369">
        <ele>81.4</ele>
        <time>2017-12-25T12:18:43Z</time>
      </trkpt>
      <trkpt lat="62.630196590427" lon="17.976803925214">
        <ele>81.4</ele>
        <time>2017-12-25T12:18:44Z</time>
      </trkpt>
      <trkpt lat="62.630204217956" lon="17.976753549995">
        <ele>81.2</ele>
        <time>2017-12-25T12:18:45Z</time>
      </trkpt>
      <trkpt lat="62.630211929304" lon="17.976689093184">
        <ele>81</ele>
        <time>2017-12-25T12:18:46Z</time>
      </trkpt>
      <trkpt lat="62.63022064648" lon="17.976636371033">
        <ele>80.8</ele>
        <time>2017-12-25T12:18:47Z</time>
      </trkpt>
      <trkpt lat="62.630229782751" lon="17.976574847887">
        <ele>80.6</ele>
        <time>2017-12-25T12:18:48Z</time>
      </trkpt>
      <trkpt lat="62.630236320633" lon="17.976511899818">
        <ele>80.6</ele>
        <time>2017-12-25T12:18:49Z</time>
      </trkpt>
      <trkpt lat="62.630243026153" lon="17.976456076364">
        <ele>80.4</ele>
        <time>2017-12-25T12:18:50Z</time>
      </trkpt>
      <trkpt lat="62.63025417408" lon="17.976395391408">
        <ele>80.4</ele>
        <time>2017-12-25T12:18:51Z</time>
      </trkpt>
      <trkpt lat="62.630264902912" lon="17.976338981221">
        <ele>80.2</ele>
        <time>2017-12-25T12:18:52Z</time>
      </trkpt>
      <trkpt lat="62.630274625916" lon="17.976283995957">
        <ele>80.2</ele>
        <time>2017-12-25T12:18:53Z</time>
      </trkpt>
      <trkpt lat="62.630286695852" lon="17.976225657933">
        <ele>80</ele>
        <time>2017-12-25T12:18:54Z</time>
      </trkpt>
      <trkpt lat="62.630296502675" lon="17.976177042913">
        <ele>79.8</ele>
        <time>2017-12-25T12:18:55Z</time>
      </trkpt>
      <trkpt lat="62.630311338638" lon="17.976119375441">
        <ele>79.8</ele>
        <time>2017-12-25T12:18:56Z</time>
      </trkpt>
      <trkpt lat="62.630324330583" lon="17.97606665329">
        <ele>79.8</ele>
        <time>2017-12-25T12:18:57Z</time>
      </trkpt>
      <trkpt lat="62.630336568157" lon="17.976014936967">
        <ele>79.4</ele>
        <time>2017-12-25T12:18:58Z</time>
      </trkpt>
      <trkpt lat="62.630350901206" lon="17.975953916735">
        <ele>79.4</ele>
        <time>2017-12-25T12:18:59Z</time>
      </trkpt>
      <trkpt lat="62.630363809332" lon="17.975903457697">
        <ele>79.4</ele>
        <time>2017-12-25T12:19:00Z</time>
      </trkpt>
      <trkpt lat="62.630378477657" lon="17.975845957863">
        <ele>79.2</ele>
        <time>2017-12-25T12:19:01Z</time>
      </trkpt>
      <trkpt lat="62.630391888697" lon="17.975790804961">
        <ele>79</ele>
        <time>2017-12-25T12:19:02Z</time>
      </trkpt>
      <trkpt lat="62.630403707176" lon="17.97573473005">
        <ele>79</ele>
        <time>2017-12-25T12:19:03Z</time>
      </trkpt>
      <trkpt lat="62.630416112388" lon="17.975679158053">
        <ele>79.2</ele>
        <time>2017-12-25T12:19:04Z</time>
      </trkpt>
      <trkpt lat="62.6304285176" lon="17.97562660354">
        <ele>79</ele>
        <time>2017-12-25T12:19:05Z</time>
      </trkpt>
      <trkpt lat="62.630444778486" lon="17.975568516973">
        <ele>79</ele>
        <time>2017-12-25T12:19:06Z</time>
      </trkpt>
      <trkpt lat="62.63046036882" lon="17.975511939148">
        <ele>78.8</ele>
        <time>2017-12-25T12:19:07Z</time>
      </trkpt>
      <trkpt lat="62.630472438756" lon="17.975459719911">
        <ele>78.8</ele>
        <time>2017-12-25T12:19:08Z</time>
      </trkpt>
      <trkpt lat="62.63048970547" lon="17.975409679968">
        <ele>78.8</ele>
        <time>2017-12-25T12:19:09Z</time>
      </trkpt>
      <trkpt lat="62.630504625252" lon="17.975357376912">
        <ele>78.6</ele>
        <time>2017-12-25T12:19:10Z</time>
      </trkpt>
      <trkpt lat="62.63051904212" lon="17.975306582598">
        <ele>78.6</ele>
        <time>2017-12-25T12:19:11Z</time>
      </trkpt>
      <trkpt lat="62.630535554463" lon="17.975247406384">
        <ele>78.4</ele>
        <time>2017-12-25T12:19:12Z</time>
      </trkpt>
      <trkpt lat="62.630548714046" lon="17.975198204631">
        <ele>78.2</ele>
        <time>2017-12-25T12:19:13Z</time>
      </trkpt>
      <trkpt lat="62.630563969104" lon="17.975148080869">
        <ele>78.2</ele>
        <time>2017-12-25T12:19:14Z</time>
      </trkpt>
      <trkpt lat="62.630577631601" lon="17.975091670682">
        <ele>78</ele>
        <time>2017-12-25T12:19:15Z</time>
      </trkpt>
      <trkpt lat="62.630588947166" lon="17.97503567959">
        <ele>77.8</ele>
        <time>2017-12-25T12:19:16Z</time>
      </trkpt>
      <trkpt lat="62.630600933283" lon="17.974986813113">
        <ele>77.8</ele>
        <time>2017-12-25T12:19:17Z</time>
      </trkpt>
      <trkpt lat="62.630617697083" lon="17.974923194492">
        <ele>78</ele>
        <time>2017-12-25T12:19:18Z</time>
      </trkpt>
      <trkpt lat="62.630630689028" lon="17.974869801789">
        <ele>77.8</ele>
        <time>2017-12-25T12:19:19Z</time>
      </trkpt>
      <trkpt lat="62.63064393243" lon="17.974816241448">
        <ele>77.6</ele>
        <time>2017-12-25T12:19:20Z</time>
      </trkpt>
      <trkpt lat="62.630656589099" lon="17.974764357487">
        <ele>77.6</ele>
        <time>2017-12-25T12:19:21Z</time>
      </trkpt>
      <trkpt lat="62.630670167777" lon="17.974711970612">
        <ele>77.6</ele>
        <time>2017-12-25T12:19:22Z</time>
      </trkpt>
      <trkpt lat="62.630691793079" lon="17.974659499918">
        <ele>77.4</ele>
        <time>2017-12-25T12:19:23Z</time>
      </trkpt>
      <trkpt lat="62.630703946834" lon="17.974603089731">
        <ele>77.4</ele>
        <time>2017-12-25T12:19:24Z</time>
      </trkpt>
      <trkpt lat="62.630719788625" lon="17.974555648177">
        <ele>77.4</ele>
        <time>2017-12-25T12:19:25Z</time>
      </trkpt>
      <trkpt lat="62.630737055339" lon="17.974506278786">
        <ele>77.4</ele>
        <time>2017-12-25T12:19:26Z</time>
      </trkpt>
      <trkpt lat="62.6307554117" lon="17.974459340146">
        <ele>77.4</ele>
        <time>2017-12-25T12:19:27Z</time>
      </trkpt>
      <trkpt lat="62.630771085853" lon="17.974406282719">
        <ele>77.2</ele>
        <time>2017-12-25T12:19:28Z</time>
      </trkpt>
      <trkpt lat="62.630784999807" lon="17.974357667699">
        <ele>77.2</ele>
        <time>2017-12-25T12:19:29Z</time>
      </trkpt>
      <trkpt lat="62.630802517978" lon="17.974312573077">
        <ele>77.2</ele>
        <time>2017-12-25T12:19:30Z</time>
      </trkpt>
      <trkpt lat="62.630818359769" lon="17.974260270021">
        <ele>77.2</ele>
        <time>2017-12-25T12:19:31Z</time>
      </trkpt>
      <trkpt lat="62.63083252518" lon="17.974214588666">
        <ele>77.2</ele>
        <time>2017-12-25T12:19:32Z</time>
      </trkpt>
      <trkpt lat="62.630851384455" lon="17.974158849031">
        <ele>77.2</ele>
        <time>2017-12-25T12:19:33Z</time>
      </trkpt>
      <trkpt lat="62.630864544038" lon="17.974113419133">
        <ele>77</ele>
        <time>2017-12-25T12:19:34Z</time>
      </trkpt>
      <trkpt lat="62.630878457992" lon="17.97406673195">
        <ele>76.8</ele>
        <time>2017-12-25T12:19:35Z</time>
      </trkpt>
      <trkpt lat="62.630891449937" lon="17.974024403355">
        <ele>76.8</ele>
        <time>2017-12-25T12:19:36Z</time>
      </trkpt>
      <trkpt lat="62.630901424398" lon="17.973963969856">
        <ele>76.8</ele>
        <time>2017-12-25T12:19:37Z</time>
      </trkpt>
      <trkpt lat="62.630907627004" lon="17.973905128918">
        <ele>76.6</ele>
        <time>2017-12-25T12:19:38Z</time>
      </trkpt>
      <trkpt lat="62.630903603692" lon="17.973846790894">
        <ele>76.6</ele>
        <time>2017-12-25T12:19:39Z</time>
      </trkpt>
      <trkpt lat="62.63088868391" lon="17.973796667132">
        <ele>76.8</ele>
        <time>2017-12-25T12:19:40Z</time>
      </trkpt>
      <trkpt lat="62.63086940554" lon="17.973741681868">
        <ele>76.6</ele>
        <time>2017-12-25T12:19:41Z</time>
      </trkpt>
      <trkpt lat="62.630851552093" lon="17.973692312477">
        <ele>76.6</ele>
        <time>2017-12-25T12:19:42Z</time>
      </trkpt>
      <trkpt lat="62.630826825488" lon="17.973641266706">
        <ele>76.4</ele>
        <time>2017-12-25T12:19:43Z</time>
      </trkpt>
      <trkpt lat="62.630810564602" lon="17.973596004446">
        <ele>76.6</ele>
        <time>2017-12-25T12:19:44Z</time>
      </trkpt>
      <trkpt lat="62.63079313025" lon="17.97354956872">
        <ele>76.4</ele>
        <time>2017-12-25T12:19:45Z</time>
      </trkpt>
      <trkpt lat="62.630775360622" lon="17.973492655619">
        <ele>76.4</ele>
        <time>2017-12-25T12:19:46Z</time>
      </trkpt>
      <trkpt lat="62.630762201039" lon="17.973449153558">
        <ele>76.2</ele>
        <time>2017-12-25T12:19:47Z</time>
      </trkpt>
      <trkpt lat="62.630744347592" lon="17.973387378955">
        <ele>76.2</ele>
        <time>2017-12-25T12:19:48Z</time>
      </trkpt>
      <trkpt lat="62.630725991231" lon="17.973341027048">
        <ele>76.4</ele>
        <time>2017-12-25T12:19:49Z</time>
      </trkpt>
      <trkpt lat="62.630713083105" lon="17.973293334037">
        <ele>76.2</ele>
        <time>2017-12-25T12:19:50Z</time>
      </trkpt>
      <trkpt lat="62.63069590021" lon="17.97323608566">
        <ele>76</ele>
        <time>2017-12-25T12:19:51Z</time>
      </trkpt>
      <trkpt lat="62.630678633496" lon="17.973191913047">
        <ele>76</ele>
        <time>2017-12-25T12:19:52Z</time>
      </trkpt>
      <trkpt lat="62.630664970999" lon="17.973138436525">
        <ele>76</ele>
        <time>2017-12-25T12:19:53Z</time>
      </trkpt>
      <trkpt lat="62.630648793932" lon="17.973082445433">
        <ele>75.8</ele>
        <time>2017-12-25T12:19:54Z</time>
      </trkpt>
      <trkpt lat="62.630635382892" lon="17.973034500965">
        <ele>75.8</ele>
        <time>2017-12-25T12:19:55Z</time>
      </trkpt>
      <trkpt lat="62.630614344323" lon="17.9729812759">
        <ele>75.8</ele>
        <time>2017-12-25T12:19:56Z</time>
      </trkpt>
      <trkpt lat="62.630598502532" lon="17.972931487414">
        <ele>75.6</ele>
        <time>2017-12-25T12:19:57Z</time>
      </trkpt>
      <trkpt lat="62.630585426768" lon="17.972880860738">
        <ele>75.6</ele>
        <time>2017-12-25T12:19:58Z</time>
      </trkpt>
      <trkpt lat="62.630566735131" lon="17.972829898786">
        <ele>75.4</ele>
        <time>2017-12-25T12:19:59Z</time>
      </trkpt>
      <trkpt lat="62.63055173153" lon="17.972782038137">
        <ele>75.2</ele>
        <time>2017-12-25T12:20:00Z</time>
      </trkpt>
      <trkpt lat="62.63053832049" lon="17.972720934086">
        <ele>75.2</ele>
        <time>2017-12-25T12:20:01Z</time>
      </trkpt>
      <trkpt lat="62.630526837287" lon="17.972667122288">
        <ele>75.2</ele>
        <time>2017-12-25T12:20:02Z</time>
      </trkpt>
      <trkpt lat="62.63051736574" lon="17.972604425676">
        <ele>75.2</ele>
        <time>2017-12-25T12:20:03Z</time>
      </trkpt>
      <trkpt lat="62.630507726555" lon="17.972545836195">
        <ele>75</ele>
        <time>2017-12-25T12:20:04Z</time>
      </trkpt>
      <trkpt lat="62.630496997723" lon="17.972496634442">
        <ele>75</ele>
        <time>2017-12-25T12:20:05Z</time>
      </trkpt>
      <trkpt lat="62.630485682158" lon="17.972435865667">
        <ele>75</ele>
        <time>2017-12-25T12:20:06Z</time>
      </trkpt>
      <trkpt lat="62.630477803172" lon="17.972377108548">
        <ele>75</ele>
        <time>2017-12-25T12:20:07Z</time>
      </trkpt>
      <trkpt lat="62.630470846195" lon="17.972320027809">
        <ele>74.8</ele>
        <time>2017-12-25T12:20:08Z</time>
      </trkpt>
      <trkpt lat="62.630461961381" lon="17.972259678129">
        <ele>74.8</ele>
        <time>2017-12-25T12:20:09Z</time>
      </trkpt>
      <trkpt lat="62.630453328024" lon="17.972206536883">
        <ele>74.8</ele>
        <time>2017-12-25T12:20:10Z</time>
      </trkpt>
      <trkpt lat="62.630445951952" lon="17.972142499167">
        <ele>74.8</ele>
        <time>2017-12-25T12:20:11Z</time>
      </trkpt>
      <trkpt lat="62.630439581708" lon="17.972084077324">
        <ele>74.8</ele>
        <time>2017-12-25T12:20:12Z</time>
      </trkpt>
      <trkpt lat="62.630420470976" lon="17.972032612458">
        <ele>74.8</ele>
        <time>2017-12-25T12:20:13Z</time>
      </trkpt>
      <trkpt lat="62.630410747972" lon="17.971972346597">
        <ele>74.8</ele>
        <time>2017-12-25T12:20:14Z</time>
      </trkpt>
      <trkpt lat="62.630397085475" lon="17.971909314709">
        <ele>74.6</ele>
        <time>2017-12-25T12:20:15Z</time>
      </trkpt>
      <trkpt lat="62.63039163724" lon="17.971850138495">
        <ele>74.6</ele>
        <time>2017-12-25T12:20:16Z</time>
      </trkpt>
      <trkpt lat="62.630383422978" lon="17.971794063584">
        <ele>74.4</ele>
        <time>2017-12-25T12:20:17Z</time>
      </trkpt>
      <trkpt lat="62.63037654982" lon="17.971735474103">
        <ele>74.4</ele>
        <time>2017-12-25T12:20:18Z</time>
      </trkpt>
      <trkpt lat="62.630368838472" lon="17.971670765835">
        <ele>74.2</ele>
        <time>2017-12-25T12:20:19Z</time>
      </trkpt>
      <trkpt lat="62.630364144608" lon="17.97161921715">
        <ele>74.2</ele>
        <time>2017-12-25T12:20:20Z</time>
      </trkpt>
      <trkpt lat="62.630358193459" lon="17.971557945461">
        <ele>74.4</ele>
        <time>2017-12-25T12:20:21Z</time>
      </trkpt>
      <trkpt lat="62.630357606726" lon="17.971490806442">
        <ele>74.2</ele>
        <time>2017-12-25T12:20:22Z</time>
      </trkpt>
      <trkpt lat="62.630349895378" lon="17.971436072635">
        <ele>74.2</ele>
        <time>2017-12-25T12:20:23Z</time>
      </trkpt>
      <trkpt lat="62.630343273677" lon="17.971380165362">
        <ele>74.2</ele>
        <time>2017-12-25T12:20:24Z</time>
      </trkpt>
      <trkpt lat="62.63033715489" lon="17.97132752703">
        <ele>74.2</ele>
        <time>2017-12-25T12:20:25Z</time>
      </trkpt>
      <trkpt lat="62.630331036103" lon="17.971254353043">
        <ele>74.2</ele>
        <time>2017-12-25T12:20:26Z</time>
      </trkpt>
      <trkpt lat="62.630325755506" lon="17.971194171001">
        <ele>74.2</ele>
        <time>2017-12-25T12:20:27Z</time>
      </trkpt>
      <trkpt lat="62.630322318927" lon="17.971138431366">
        <ele>74</ele>
        <time>2017-12-25T12:20:28Z</time>
      </trkpt>
      <trkpt lat="62.630322486565" lon="17.971074309831">
        <ele>74.2</ele>
        <time>2017-12-25T12:20:29Z</time>
      </trkpt>
      <trkpt lat="62.630322235108" lon="17.971016307083">
        <ele>74.2</ele>
        <time>2017-12-25T12:20:30Z</time>
      </trkpt>
      <trkpt lat="62.630323408574" lon="17.970953945747">
        <ele>74</ele>
        <time>2017-12-25T12:20:31Z</time>
      </trkpt>
      <trkpt lat="62.63032374385" lon="17.970895775361">
        <ele>74</ele>
        <time>2017-12-25T12:20:32Z</time>
      </trkpt>
      <trkpt lat="62.630326677515" lon="17.970836850604">
        <ele>74</ele>
        <time>2017-12-25T12:20:33Z</time>
      </trkpt>
      <trkpt lat="62.630333634492" lon="17.970776165648">
        <ele>74</ele>
        <time>2017-12-25T12:20:34Z</time>
      </trkpt>
      <trkpt lat="62.630343189858" lon="17.970724700782">
        <ele>73.8</ele>
        <time>2017-12-25T12:20:35Z</time>
      </trkpt>
      <trkpt lat="62.630350314473" lon="17.970666949491">
        <ele>73.8</ele>
        <time>2017-12-25T12:20:36Z</time>
      </trkpt>
      <trkpt lat="62.630362635866" lon="17.97061506553">
        <ele>73.8</ele>
        <time>2017-12-25T12:20:37Z</time>
      </trkpt>
      <trkpt lat="62.630375627811" lon="17.970562511017">
        <ele>73.6</ele>
        <time>2017-12-25T12:20:38Z</time>
      </trkpt>
      <trkpt lat="62.630390212317" lon="17.970512554893">
        <ele>73.6</ele>
        <time>2017-12-25T12:20:39Z</time>
      </trkpt>
      <trkpt lat="62.630409406868" lon="17.970469974841">
        <ele>73.4</ele>
        <time>2017-12-25T12:20:40Z</time>
      </trkpt>
      <trkpt lat="62.630433043826" lon="17.970423455296">
        <ele>73.2</ele>
        <time>2017-12-25T12:20:41Z</time>
      </trkpt>
      <trkpt lat="62.630447712151" lon="17.970372996258">
        <ele>73.2</ele>
        <time>2017-12-25T12:20:42Z</time>
      </trkpt>
      <trkpt lat="62.630466319969" lon="17.970322704858">
        <ele>72.8</ele>
        <time>2017-12-25T12:20:43Z</time>
      </trkpt>
      <trkpt lat="62.630474450412" lon="17.970264366834">
        <ele>72.4</ele>
        <time>2017-12-25T12:20:44Z</time>
      </trkpt>
      <trkpt lat="62.630478473724" lon="17.970213237244">
        <ele>72.2</ele>
        <time>2017-12-25T12:20:45Z</time>
      </trkpt>
      <trkpt lat="62.630478389905" lon="17.970157329971">
        <ele>72</ele>
        <time>2017-12-25T12:20:46Z</time>
      </trkpt>
      <trkpt lat="62.630479228095" lon="17.970129585882">
        <ele>71.6</ele>
        <time>2017-12-25T12:20:47Z</time>
      </trkpt>
      <trkpt lat="62.630476545887" lon="17.970101506517">
        <ele>71.4</ele>
        <time>2017-12-25T12:20:48Z</time>
      </trkpt>
      <trkpt lat="62.630473696041" lon="17.970078037197">
        <ele>71.2</ele>
        <time>2017-12-25T12:20:49Z</time>
      </trkpt>
      <trkpt lat="62.630470259462" lon="17.970061189578">
        <ele>71.2</ele>
        <time>2017-12-25T12:20:50Z</time>
      </trkpt>
      <trkpt lat="62.6304620452" lon="17.970055070791">
        <ele>71</ele>
        <time>2017-12-25T12:20:51Z</time>
      </trkpt>
      <trkpt lat="62.630455591137" lon="17.970055908981">
        <ele>71</ele>
        <time>2017-12-25T12:20:52Z</time>
      </trkpt>
      <trkpt lat="62.630451903101" lon="17.970048281452">
        <ele>70.8</ele>
        <time>2017-12-25T12:20:53Z</time>
      </trkpt>
      <trkpt lat="62.630451735463" lon="17.970057417723">
        <ele>70.8</ele>
        <time>2017-12-25T12:20:54Z</time>
      </trkpt>
      <trkpt lat="62.630456596965" lon="17.970051131298">
        <ele>70.8</ele>
        <time>2017-12-25T12:20:55Z</time>
      </trkpt>
      <trkpt lat="62.630455591137" lon="17.970051298936">
        <ele>71</ele>
        <time>2017-12-25T12:20:56Z</time>
      </trkpt>
      <trkpt lat="62.630489034918" lon="17.970188845915">
        <ele>71.4</ele>
        <time>2017-12-25T12:21:41Z</time>
      </trkpt>
      <trkpt lat="62.630501859225" lon="17.970223546981">
        <ele>71.4</ele>
        <time>2017-12-25T12:21:42Z</time>
      </trkpt>
      <trkpt lat="62.630526250554" lon="17.970240059324">
        <ele>71.4</ele>
        <time>2017-12-25T12:21:43Z</time>
      </trkpt>
      <trkpt lat="62.630550558064" lon="17.970243495903">
        <ele>71.6</ele>
        <time>2017-12-25T12:21:44Z</time>
      </trkpt>
      <trkpt lat="62.630572351004" lon="17.970230923053">
        <ele>71.6</ele>
        <time>2017-12-25T12:21:45Z</time>
      </trkpt>
      <trkpt lat="62.630594311582" lon="17.970212399054">
        <ele>71.6</ele>
        <time>2017-12-25T12:21:46Z</time>
      </trkpt>
      <trkpt lat="62.630614679599" lon="17.970203262783">
        <ele>71.6</ele>
        <time>2017-12-25T12:21:47Z</time>
      </trkpt>
      <trkpt lat="62.630638735652" lon="17.970198149824">
        <ele>71.6</ele>
        <time>2017-12-25T12:21:48Z</time>
      </trkpt>
      <trkpt lat="62.630662875524" lon="17.970184319689">
        <ele>71.4</ele>
        <time>2017-12-25T12:21:49Z</time>
      </trkpt>
      <trkpt lat="62.630685171378" lon="17.97017585397">
        <ele>71.2</ele>
        <time>2017-12-25T12:21:50Z</time>
      </trkpt>
      <trkpt lat="62.630711742001" lon="17.970163113482">
        <ele>71</ele>
        <time>2017-12-25T12:21:51Z</time>
      </trkpt>
      <trkpt lat="62.63073529514" lon="17.970152217012">
        <ele>71</ele>
        <time>2017-12-25T12:21:52Z</time>
      </trkpt>
      <trkpt lat="62.630739318452" lon="17.97015070827">
        <ele>71</ele>
        <time>2017-12-25T12:21:53Z</time>
      </trkpt>
      <trkpt lat="62.630772929871" lon="17.970141320542">
        <ele>71</ele>
        <time>2017-12-25T12:21:54Z</time>
      </trkpt>
      <trkpt lat="62.630799249037" lon="17.970133860651">
        <ele>71</ele>
        <time>2017-12-25T12:21:55Z</time>
      </trkpt>
      <trkpt lat="62.630819197959" lon="17.970126819855">
        <ele>71</ele>
        <time>2017-12-25T12:21:56Z</time>
      </trkpt>
      <trkpt lat="62.630830681162" lon="17.97011634248">
        <ele>71</ele>
        <time>2017-12-25T12:21:57Z</time>
      </trkpt>
      <trkpt lat="62.630847444962" lon="17.970117432127">
        <ele>70.8</ele>
        <time>2017-12-25T12:21:58Z</time>
      </trkpt>
      <trkpt lat="62.630859011984" lon="17.970112738263">
        <ele>70.8</ele>
        <time>2017-12-25T12:21:59Z</time>
      </trkpt>
      <trkpt lat="62.630866723332" lon="17.970113660272">
        <ele>70.8</ele>
        <time>2017-12-25T12:22:00Z</time>
      </trkpt>
      <trkpt lat="62.630863286753" lon="17.970098572852">
        <ele>70.8</ele>
        <time>2017-12-25T12:22:02Z</time>
      </trkpt>
      <trkpt lat="62.631166543895" lon="17.96999229036">
        <ele>70.8</ele>
        <time>2017-12-25T12:24:25Z</time>
      </trkpt>
      <trkpt lat="62.631195712907" lon="17.969972006162">
        <ele>70.8</ele>
        <time>2017-12-25T12:24:26Z</time>
      </trkpt>
      <trkpt lat="62.63123653276" lon="17.969955493819">
        <ele>70.8</ele>
        <time>2017-12-25T12:24:27Z</time>
      </trkpt>
      <trkpt lat="62.631264360668" lon="17.969927498273">
        <ele>70.8</ele>
        <time>2017-12-25T12:24:28Z</time>
      </trkpt>
      <trkpt lat="62.631298977915" lon="17.96990595679">
        <ele>70.6</ele>
        <time>2017-12-25T12:24:29Z</time>
      </trkpt>
      <trkpt lat="62.631327476375" lon="17.969889109171">
        <ele>70.4</ele>
        <time>2017-12-25T12:24:30Z</time>
      </trkpt>
      <trkpt lat="62.631366955124" lon="17.969870082258">
        <ele>70.4</ele>
        <time>2017-12-25T12:24:31Z</time>
      </trkpt>
      <trkpt lat="62.631397716697" lon="17.969849881879">
        <ele>70.2</ele>
        <time>2017-12-25T12:24:32Z</time>
      </trkpt>
      <trkpt lat="62.631434597057" lon="17.96982632874">
        <ele>70.4</ele>
        <time>2017-12-25T12:24:33Z</time>
      </trkpt>
      <trkpt lat="62.631463179336" lon="17.969807469465">
        <ele>70.4</ele>
        <time>2017-12-25T12:24:34Z</time>
      </trkpt>
      <trkpt lat="62.631493940909" lon="17.969789280742">
        <ele>70.6</ele>
        <time>2017-12-25T12:24:35Z</time>
      </trkpt>
      <trkpt lat="62.631531324183" lon="17.969773606589">
        <ele>70.6</ele>
        <time>2017-12-25T12:24:36Z</time>
      </trkpt>
      <trkpt lat="62.631565773792" lon="17.969755669323">
        <ele>70.4</ele>
        <time>2017-12-25T12:24:37Z</time>
      </trkpt>
      <trkpt lat="62.631598211745" lon="17.969733792564">
        <ele>70.4</ele>
        <time>2017-12-25T12:24:38Z</time>
      </trkpt>
      <trkpt lat="62.631628302766" lon="17.969712167262">
        <ele>70.2</ele>
        <time>2017-12-25T12:24:39Z</time>
      </trkpt>
      <trkpt lat="62.631655208665" lon="17.969687775933">
        <ele>70</ele>
        <time>2017-12-25T12:24:40Z</time>
      </trkpt>
      <trkpt lat="62.631688149532" lon="17.96965701436">
        <ele>69.8</ele>
        <time>2017-12-25T12:24:41Z</time>
      </trkpt>
      <trkpt lat="62.631722599141" lon="17.969617367973">
        <ele>69.8</ele>
        <time>2017-12-25T12:24:42Z</time>
      </trkpt>
      <trkpt lat="62.631751013782" lon="17.969579817061">
        <ele>69.8</ele>
        <time>2017-12-25T12:24:43Z</time>
      </trkpt>
      <trkpt lat="62.631784038468" lon="17.969544277805">
        <ele>69.8</ele>
        <time>2017-12-25T12:24:44Z</time>
      </trkpt>
      <trkpt lat="62.6318115311" lon="17.969529944756">
        <ele>69.6</ele>
        <time>2017-12-25T12:24:45Z</time>
      </trkpt>
      <trkpt lat="62.631844723424" lon="17.96952122758">
        <ele>69.6</ele>
        <time>2017-12-25T12:24:46Z</time>
      </trkpt>
      <trkpt lat="62.631874730626" lon="17.96951703663">
        <ele>69.4</ele>
        <time>2017-12-25T12:24:47Z</time>
      </trkpt>
      <trkpt lat="62.63190708476" lon="17.969518880648">
        <ele>69.2</ele>
        <time>2017-12-25T12:24:48Z</time>
      </trkpt>
      <trkpt lat="62.631937594876" lon="17.969526508177">
        <ele>69.2</ele>
        <time>2017-12-25T12:24:49Z</time>
      </trkpt>
      <trkpt lat="62.63196408168" lon="17.969522317227">
        <ele>69</ele>
        <time>2017-12-25T12:24:50Z</time>
      </trkpt>
      <trkpt lat="62.632000040031" lon="17.96952541853">
        <ele>69.2</ele>
        <time>2017-12-25T12:24:51Z</time>
      </trkpt>
      <trkpt lat="62.632025437188" lon="17.969522401046">
        <ele>69.2</ele>
        <time>2017-12-25T12:24:52Z</time>
      </trkpt>
      <trkpt lat="62.632051923992" lon="17.969521395218">
        <ele>69.4</ele>
        <time>2017-12-25T12:24:53Z</time>
      </trkpt>
      <trkpt lat="62.632090061637" lon="17.969509073825">
        <ele>69.6</ele>
        <time>2017-12-25T12:24:54Z</time>
      </trkpt>
      <trkpt lat="62.632122751047" lon="17.96950865473">
        <ele>69.6</ele>
        <time>2017-12-25T12:24:55Z</time>
      </trkpt>
      <trkpt lat="62.63215602719" lon="17.969504296142">
        <ele>69.8</ele>
        <time>2017-12-25T12:24:56Z</time>
      </trkpt>
      <trkpt lat="62.632189135695" lon="17.969489963093">
        <ele>69.6</ele>
        <time>2017-12-25T12:24:57Z</time>
      </trkpt>
      <trkpt lat="62.632221154553" lon="17.969493734948">
        <ele>69.6</ele>
        <time>2017-12-25T12:24:58Z</time>
      </trkpt>
      <trkpt lat="62.632249988289" lon="17.969488789627">
        <ele>69.6</ele>
        <time>2017-12-25T12:24:59Z</time>
      </trkpt>
      <trkpt lat="62.632284689355" lon="17.969484933953">
        <ele>69.6</ele>
        <time>2017-12-25T12:25:00Z</time>
      </trkpt>
      <trkpt lat="62.632313774548" lon="17.969471019999">
        <ele>69.6</ele>
        <time>2017-12-25T12:25:01Z</time>
      </trkpt>
      <trkpt lat="62.632349565261" lon="17.969468673067">
        <ele>69.8</ele>
        <time>2017-12-25T12:25:02Z</time>
      </trkpt>
      <trkpt lat="62.632377979902" lon="17.969464649755">
        <ele>69.6</ele>
        <time>2017-12-25T12:25:03Z</time>
      </trkpt>
      <trkpt lat="62.632409244389" lon="17.969463727746">
        <ele>69.6</ele>
        <time>2017-12-25T12:25:04Z</time>
      </trkpt>
      <trkpt lat="62.632438916315" lon="17.969467918696">
        <ele>69.6</ele>
        <time>2017-12-25T12:25:05Z</time>
      </trkpt>
      <trkpt lat="62.632475126123" lon="17.969464817393">
        <ele>69.6</ele>
        <time>2017-12-25T12:25:06Z</time>
      </trkpt>
      <trkpt lat="62.632509156637" lon="17.969473702207">
        <ele>69.6</ele>
        <time>2017-12-25T12:25:07Z</time>
      </trkpt>
      <trkpt lat="62.632535475803" lon="17.96947261256">
        <ele>69.8</ele>
        <time>2017-12-25T12:25:08Z</time>
      </trkpt>
      <trkpt lat="62.632568584308" lon="17.969478898985">
        <ele>69.8</ele>
        <time>2017-12-25T12:25:09Z</time>
      </trkpt>
      <trkpt lat="62.632593730008" lon="17.969482922297">
        <ele>69.8</ele>
        <time>2017-12-25T12:25:10Z</time>
      </trkpt>
      <trkpt lat="62.632622982839" lon="17.969492226206">
        <ele>69.8</ele>
        <time>2017-12-25T12:25:11Z</time>
      </trkpt>
      <trkpt lat="62.632651984213" lon="17.969502703581">
        <ele>70</ele>
        <time>2017-12-25T12:25:12Z</time>
      </trkpt>
      <trkpt lat="62.632680566492" lon="17.969506810712">
        <ele>70</ele>
        <time>2017-12-25T12:25:13Z</time>
      </trkpt>
      <trkpt lat="62.632711244246" lon="17.969519048286">
        <ele>69.8</ele>
        <time>2017-12-25T12:25:14Z</time>
      </trkpt>
      <trkpt lat="62.632737311955" lon="17.969529358023">
        <ele>69.8</ele>
        <time>2017-12-25T12:25:15Z</time>
      </trkpt>
      <trkpt lat="62.632767402976" lon="17.969549642221">
        <ele>69.8</ele>
        <time>2017-12-25T12:25:16Z</time>
      </trkpt>
      <trkpt lat="62.632797410178" lon="17.969554671361">
        <ele>70</ele>
        <time>2017-12-25T12:25:17Z</time>
      </trkpt>
      <trkpt lat="62.632830937778" lon="17.969559616682">
        <ele>70</ele>
        <time>2017-12-25T12:25:18Z</time>
      </trkpt>
      <trkpt lat="62.632859352419" lon="17.969554922818">
        <ele>70.2</ele>
        <time>2017-12-25T12:25:19Z</time>
      </trkpt>
      <trkpt lat="62.632885168671" lon="17.969556096284">
        <ele>70.2</ele>
        <time>2017-12-25T12:25:20Z</time>
      </trkpt>
      <trkpt lat="62.632918360995" lon="17.969565064917">
        <ele>70.4</ele>
        <time>2017-12-25T12:25:21Z</time>
      </trkpt>
      <trkpt lat="62.632944009609" lon="17.969568669134">
        <ele>70.4</ele>
        <time>2017-12-25T12:25:22Z</time>
      </trkpt>
      <trkpt lat="62.632976363743" lon="17.969578392138">
        <ele>70.4</ele>
        <time>2017-12-25T12:25:23Z</time>
      </trkpt>
      <trkpt lat="62.633004610746" lon="17.969577134853">
        <ele>70.4</ele>
        <time>2017-12-25T12:25:24Z</time>
      </trkpt>
      <trkpt lat="62.633034534129" lon="17.969584259468">
        <ele>70.6</ele>
        <time>2017-12-25T12:25:25Z</time>
      </trkpt>
      <trkpt lat="62.633064541331" lon="17.96959331192">
        <ele>70.6</ele>
        <time>2017-12-25T12:25:26Z</time>
      </trkpt>
      <trkpt lat="62.633093542705" lon="17.969600687992">
        <ele>70.6</ele>
        <time>2017-12-25T12:25:27Z</time>
      </trkpt>
      <trkpt lat="62.633121705889" lon="17.9696117521">
        <ele>70.6</ele>
        <time>2017-12-25T12:25:28Z</time>
      </trkpt>
      <trkpt lat="62.633149449978" lon="17.969615356317">
        <ele>70.6</ele>
        <time>2017-12-25T12:25:29Z</time>
      </trkpt>
      <trkpt lat="62.633179792456" lon="17.969632455393">
        <ele>70.8</ele>
        <time>2017-12-25T12:25:30Z</time>
      </trkpt>
      <trkpt lat="62.633209548201" lon="17.969633209764">
        <ele>70.8</ele>
        <time>2017-12-25T12:25:31Z</time>
      </trkpt>
      <trkpt lat="62.633239471584" lon="17.96965617617">
        <ele>70.8</ele>
        <time>2017-12-25T12:25:32Z</time>
      </trkpt>
      <trkpt lat="62.633266293664" lon="17.96967796911">
        <ele>70.8</ele>
        <time>2017-12-25T12:25:33Z</time>
      </trkpt>
      <trkpt lat="62.633291607002" lon="17.969699845869">
        <ele>71</ele>
        <time>2017-12-25T12:25:34Z</time>
      </trkpt>
      <trkpt lat="62.633314321951" lon="17.969727841415">
        <ele>71</ele>
        <time>2017-12-25T12:25:35Z</time>
      </trkpt>
      <trkpt lat="62.633336114891" lon="17.969764218861">
        <ele>71</ele>
        <time>2017-12-25T12:25:36Z</time>
      </trkpt>
      <trkpt lat="62.633351369949" lon="17.969821718695">
        <ele>71.2</ele>
        <time>2017-12-25T12:25:37Z</time>
      </trkpt>
      <trkpt lat="62.633363942799" lon="17.969875614312">
        <ele>71.4</ele>
        <time>2017-12-25T12:25:38Z</time>
      </trkpt>
      <trkpt lat="62.633375006907" lon="17.969937556553">
        <ele>71.4</ele>
        <time>2017-12-25T12:25:39Z</time>
      </trkpt>
      <trkpt lat="62.633383304988" lon="17.969993212369">
        <ele>71.6</ele>
        <time>2017-12-25T12:25:40Z</time>
      </trkpt>
      <trkpt lat="62.633392105983" lon="17.970058004456">
        <ele>71.6</ele>
        <time>2017-12-25T12:25:41Z</time>
      </trkpt>
      <trkpt lat="62.633390932517" lon="17.970122796543">
        <ele>71.8</ele>
        <time>2017-12-25T12:25:42Z</time>
      </trkpt>
      <trkpt lat="62.633393698544" lon="17.970183062404">
        <ele>71.8</ele>
        <time>2017-12-25T12:25:43Z</time>
      </trkpt>
      <trkpt lat="62.633397302761" lon="17.970253721821">
        <ele>71.8</ele>
        <time>2017-12-25T12:25:44Z</time>
      </trkpt>
      <trkpt lat="62.633401074616" lon="17.970304851411">
        <ele>72</ele>
        <time>2017-12-25T12:25:45Z</time>
      </trkpt>
      <trkpt lat="62.633405852299" lon="17.970369978774">
        <ele>72.2</ele>
        <time>2017-12-25T12:25:46Z</time>
      </trkpt>
      <trkpt lat="62.633405684661" lon="17.970430328454">
        <ele>72.4</ele>
        <time>2017-12-25T12:25:47Z</time>
      </trkpt>
      <trkpt lat="62.633409707973" lon="17.970486906279">
        <ele>72.4</ele>
        <time>2017-12-25T12:25:48Z</time>
      </trkpt>
      <trkpt lat="62.633411132896" lon="17.970553207108">
        <ele>72.6</ele>
        <time>2017-12-25T12:25:49Z</time>
      </trkpt>
      <trkpt lat="62.633413060733" lon="17.970598134092">
        <ele>72.6</ele>
        <time>2017-12-25T12:25:50Z</time>
      </trkpt>
      <trkpt lat="62.63341498857" lon="17.970667955319">
        <ele>72.6</ele>
        <time>2017-12-25T12:25:51Z</time>
      </trkpt>
      <trkpt lat="62.633418089873" lon="17.97072151566">
        <ele>72.6</ele>
        <time>2017-12-25T12:25:52Z</time>
      </trkpt>
      <trkpt lat="62.633419598615" lon="17.970784128453">
        <ele>72.8</ele>
        <time>2017-12-25T12:25:53Z</time>
      </trkpt>
      <trkpt lat="62.633421861728" lon="17.970848585264">
        <ele>73</ele>
        <time>2017-12-25T12:25:54Z</time>
      </trkpt>
      <trkpt lat="62.633423202832" lon="17.970899882492">
        <ele>73.2</ele>
        <time>2017-12-25T12:25:55Z</time>
      </trkpt>
      <trkpt lat="62.633421358814" lon="17.970969536081">
        <ele>73.2</ele>
        <time>2017-12-25T12:25:56Z</time>
      </trkpt>
      <trkpt lat="62.633424879212" lon="17.971026113906">
        <ele>73.4</ele>
        <time>2017-12-25T12:25:57Z</time>
      </trkpt>
      <trkpt lat="62.633426555592" lon="17.971094091115">
        <ele>73.4</ele>
        <time>2017-12-25T12:25:58Z</time>
      </trkpt>
      <trkpt lat="62.633428734886" lon="17.971154524614">
        <ele>73.6</ele>
        <time>2017-12-25T12:25:59Z</time>
      </trkpt>
      <trkpt lat="62.633430243628" lon="17.971219568158">
        <ele>73.8</ele>
        <time>2017-12-25T12:26:00Z</time>
      </trkpt>
      <trkpt lat="62.633424292479" lon="17.971284527883">
        <ele>74</ele>
        <time>2017-12-25T12:26:01Z</time>
      </trkpt>
      <trkpt lat="62.633427309963" lon="17.97134429083">
        <ele>74.2</ele>
        <time>2017-12-25T12:26:02Z</time>
      </trkpt>
      <trkpt lat="62.633424711574" lon="17.971411597487">
        <ele>74.4</ele>
        <time>2017-12-25T12:26:03Z</time>
      </trkpt>
      <trkpt lat="62.633424124841" lon="17.971462810896">
        <ele>74.4</ele>
        <time>2017-12-25T12:26:04Z</time>
      </trkpt>
      <trkpt lat="62.633420185348" lon="17.971523412033">
        <ele>74.4</ele>
        <time>2017-12-25T12:26:05Z</time>
      </trkpt>
      <trkpt lat="62.633418928063" lon="17.971587114473">
        <ele>74.4</ele>
        <time>2017-12-25T12:26:06Z</time>
      </trkpt>
      <trkpt lat="62.633416497312" lon="17.971651319827">
        <ele>74.6</ele>
        <time>2017-12-25T12:26:07Z</time>
      </trkpt>
      <trkpt lat="62.63341163581" lon="17.971708819661">
        <ele>74.6</ele>
        <time>2017-12-25T12:26:08Z</time>
      </trkpt>
      <trkpt lat="62.633409707973" lon="17.971764307839">
        <ele>74.8</ele>
        <time>2017-12-25T12:26:09Z</time>
      </trkpt>
      <trkpt lat="62.633404511195" lon="17.971823232596">
        <ele>74.8</ele>
        <time>2017-12-25T12:26:10Z</time>
      </trkpt>
      <trkpt lat="62.633402331901" lon="17.971881905896">
        <ele>75</ele>
        <time>2017-12-25T12:26:11Z</time>
      </trkpt>
      <trkpt lat="62.633396632209" lon="17.971948793458">
        <ele>75</ele>
        <time>2017-12-25T12:26:12Z</time>
      </trkpt>
      <trkpt lat="62.633393027992" lon="17.97200562274">
        <ele>75.2</ele>
        <time>2017-12-25T12:26:13Z</time>
      </trkpt>
      <trkpt lat="62.633389088499" lon="17.972066140058">
        <ele>75.2</ele>
        <time>2017-12-25T12:26:14Z</time>
      </trkpt>
      <trkpt lat="62.633379114038" lon="17.972125986824">
        <ele>75.2</ele>
        <time>2017-12-25T12:26:15Z</time>
      </trkpt>
      <trkpt lat="62.633373498165" lon="17.972182564649">
        <ele>75.4</ele>
        <time>2017-12-25T12:26:16Z</time>
      </trkpt>
      <trkpt lat="62.633362601695" lon="17.972245428899">
        <ele>75.4</ele>
        <time>2017-12-25T12:26:17Z</time>
      </trkpt>
      <trkpt lat="62.633356566727" lon="17.972293708643">
        <ele>75.4</ele>
        <time>2017-12-25T12:26:18Z</time>
      </trkpt>
      <trkpt lat="62.633348101008" lon="17.972351627572">
        <ele>75.6</ele>
        <time>2017-12-25T12:26:19Z</time>
      </trkpt>
      <trkpt lat="62.633341479307" lon="17.972398901488">
        <ele>75.8</ele>
        <time>2017-12-25T12:26:20Z</time>
      </trkpt>
      <trkpt lat="62.633333181226" lon="17.972465202317">
        <ele>76</ele>
        <time>2017-12-25T12:26:21Z</time>
      </trkpt>
      <trkpt lat="62.633322452394" lon="17.972523372703">
        <ele>76</ele>
        <time>2017-12-25T12:26:22Z</time>
      </trkpt>
      <trkpt lat="62.63331440577" lon="17.972575340483">
        <ele>76.2</ele>
        <time>2017-12-25T12:26:23Z</time>
      </trkpt>
      <trkpt lat="62.633300827092" lon="17.972633846145">
        <ele>76.4</ele>
        <time>2017-12-25T12:26:24Z</time>
      </trkpt>
      <trkpt lat="62.63329345102" lon="17.972681874432">
        <ele>76.4</ele>
        <time>2017-12-25T12:26:25Z</time>
      </trkpt>
      <trkpt lat="62.633278028324" lon="17.972748929632">
        <ele>76.4</ele>
        <time>2017-12-25T12:26:26Z</time>
      </trkpt>
      <trkpt lat="62.63326746713" lon="17.97280022686">
        <ele>76.4</ele>
        <time>2017-12-25T12:26:27Z</time>
      </trkpt>
      <trkpt lat="62.633255229556" lon="17.972852278459">
        <ele>76.4</ele>
        <time>2017-12-25T12:26:28Z</time>
      </trkpt>
      <trkpt lat="62.633240561231" lon="17.97291002975">
        <ele>76.6</ele>
        <time>2017-12-25T12:26:29Z</time>
      </trkpt>
      <trkpt lat="62.633232766064" lon="17.972951184879">
        <ele>76.6</ele>
        <time>2017-12-25T12:26:30Z</time>
      </trkpt>
      <trkpt lat="62.6332196903" lon="17.973015725509">
        <ele>76.6</ele>
        <time>2017-12-25T12:26:31Z</time>
      </trkpt>
      <trkpt lat="62.633212314228" lon="17.973063083244">
        <ele>76.8</ele>
        <time>2017-12-25T12:26:32Z</time>
      </trkpt>
      <trkpt lat="62.633200747206" lon="17.973119661069">
        <ele>76.8</ele>
        <time>2017-12-25T12:26:33Z</time>
      </trkpt>
      <trkpt lat="62.633188090537" lon="17.97316819227">
        <ele>77</ele>
        <time>2017-12-25T12:26:34Z</time>
      </trkpt>
      <trkpt lat="62.633178451352" lon="17.97321177815">
        <ele>77</ele>
        <time>2017-12-25T12:26:35Z</time>
      </trkpt>
      <trkpt lat="62.633164453579" lon="17.973279336264">
        <ele>77.2</ele>
        <time>2017-12-25T12:26:36Z</time>
      </trkpt>
      <trkpt lat="62.6331526351" lon="17.973330382035">
        <ele>77.4</ele>
        <time>2017-12-25T12:26:37Z</time>
      </trkpt>
      <trkpt lat="62.63313670949" lon="17.973384277652">
        <ele>77.4</ele>
        <time>2017-12-25T12:26:38Z</time>
      </trkpt>
      <trkpt lat="62.633124891011" lon="17.973434652871">
        <ele>77.4</ele>
        <time>2017-12-25T12:26:39Z</time>
      </trkpt>
      <trkpt lat="62.633113323989" lon="17.973490392506">
        <ele>77.6</ele>
        <time>2017-12-25T12:26:40Z</time>
      </trkpt>
      <trkpt lat="62.633098488026" lon="17.973546467417">
        <ele>77.8</ele>
        <time>2017-12-25T12:26:41Z</time>
      </trkpt>
      <trkpt lat="62.633087172461" lon="17.97360656564">
        <ele>77.8</ele>
        <time>2017-12-25T12:26:42Z</time>
      </trkpt>
      <trkpt lat="62.63307300705" lon="17.973659623067">
        <ele>77.8</ele>
        <time>2017-12-25T12:26:43Z</time>
      </trkpt>
      <trkpt lat="62.633063619322" lon="17.973705807336">
        <ele>78</ele>
        <time>2017-12-25T12:26:44Z</time>
      </trkpt>
      <trkpt lat="62.633048196626" lon="17.973758026573">
        <ele>78</ele>
        <time>2017-12-25T12:26:45Z</time>
      </trkpt>
      <trkpt lat="62.6330352885" lon="17.973808988525">
        <ele>78</ele>
        <time>2017-12-25T12:26:46Z</time>
      </trkpt>
      <trkpt lat="62.633021290727" lon="17.97386808092">
        <ele>78.2</ele>
        <time>2017-12-25T12:26:47Z</time>
      </trkpt>
      <trkpt lat="62.633007963506" lon="17.973924072012">
        <ele>78.4</ele>
        <time>2017-12-25T12:26:48Z</time>
      </trkpt>
      <trkpt lat="62.633000419796" lon="17.973977129439">
        <ele>78.4</ele>
        <time>2017-12-25T12:26:49Z</time>
      </trkpt>
      <trkpt lat="62.632985583833" lon="17.974028259029">
        <ele>78.6</ele>
        <time>2017-12-25T12:26:50Z</time>
      </trkpt>
      <trkpt lat="62.632972172793" lon="17.974085339768">
        <ele>78.6</ele>
        <time>2017-12-25T12:26:51Z</time>
      </trkpt>
      <trkpt lat="62.632955325174" lon="17.974146192362">
        <ele>78.8</ele>
        <time>2017-12-25T12:26:52Z</time>
      </trkpt>
      <trkpt lat="62.63294476398" lon="17.974197824866">
        <ele>78.8</ele>
        <time>2017-12-25T12:26:53Z</time>
      </trkpt>
      <trkpt lat="62.632923976868" lon="17.974265131523">
        <ele>78.8</ele>
        <time>2017-12-25T12:26:54Z</time>
      </trkpt>
      <trkpt lat="62.632904195584" lon="17.974309890869">
        <ele>78.8</ele>
        <time>2017-12-25T12:26:55Z</time>
      </trkpt>
      <trkpt lat="62.632884330481" lon="17.974362110106">
        <ele>79</ele>
        <time>2017-12-25T12:26:56Z</time>
      </trkpt>
      <trkpt lat="62.632860861161" lon="17.974408126737">
        <ele>79</ele>
        <time>2017-12-25T12:26:57Z</time>
      </trkpt>
      <trkpt lat="62.63283915204" lon="17.974445845287">
        <ele>79</ele>
        <time>2017-12-25T12:26:58Z</time>
      </trkpt>
      <trkpt lat="62.632808558105" lon="17.97446990134">
        <ele>79</ele>
        <time>2017-12-25T12:26:59Z</time>
      </trkpt>
      <trkpt lat="62.632777712713" lon="17.974482977104">
        <ele>79.2</ele>
        <time>2017-12-25T12:27:00Z</time>
      </trkpt>
      <trkpt lat="62.632746699683" lon="17.974486497502">
        <ele>79.2</ele>
        <time>2017-12-25T12:27:01Z</time>
      </trkpt>
      <trkpt lat="62.63271593811" lon="17.97446990134">
        <ele>79.2</ele>
        <time>2017-12-25T12:27:02Z</time>
      </trkpt>
      <trkpt lat="62.632690373315" lon="17.974453388997">
        <ele>79.2</ele>
        <time>2017-12-25T12:27:03Z</time>
      </trkpt>
      <trkpt lat="62.632660366113" lon="17.974423633252">
        <ele>79.2</ele>
        <time>2017-12-25T12:27:04Z</time>
      </trkpt>
      <trkpt lat="62.632638656992" lon="17.974398152276">
        <ele>79.2</ele>
        <time>2017-12-25T12:27:05Z</time>
      </trkpt>
      <trkpt lat="62.632611415817" lon="17.974367474522">
        <ele>79.2</ele>
        <time>2017-12-25T12:27:06Z</time>
      </trkpt>
      <trkpt lat="62.632585934841" lon="17.974334701293">
        <ele>79.2</ele>
        <time>2017-12-25T12:27:07Z</time>
      </trkpt>
      <trkpt lat="62.632562716978" lon="17.974307041023">
        <ele>79.2</ele>
        <time>2017-12-25T12:27:08Z</time>
      </trkpt>
      <trkpt lat="62.632534469975" lon="17.974275022165">
        <ele>79.4</ele>
        <time>2017-12-25T12:27:09Z</time>
      </trkpt>
      <trkpt lat="62.632513347587" lon="17.974250882293">
        <ele>79.4</ele>
        <time>2017-12-25T12:27:10Z</time>
      </trkpt>
      <trkpt lat="62.632482753652" lon="17.974220875091">
        <ele>79.6</ele>
        <time>2017-12-25T12:27:11Z</time>
      </trkpt>
      <trkpt lat="62.63245526102" lon="17.974195310296">
        <ele>79.4</ele>
        <time>2017-12-25T12:27:12Z</time>
      </trkpt>
      <trkpt lat="62.632428774216" lon="17.974164632542">
        <ele>79.4</ele>
        <time>2017-12-25T12:27:13Z</time>
      </trkpt>
      <trkpt lat="62.632402957964" lon="17.974132446046">
        <ele>79.4</ele>
        <time>2017-12-25T12:27:14Z</time>
      </trkpt>
      <trkpt lat="62.632373872771" lon="17.974106545975">
        <ele>79.6</ele>
        <time>2017-12-25T12:27:15Z</time>
      </trkpt>
      <trkpt lat="62.632345290492" lon="17.974079220981">
        <ele>79.4</ele>
        <time>2017-12-25T12:27:16Z</time>
      </trkpt>
      <trkpt lat="62.632319977154" lon="17.974055081109">
        <ele>79.4</ele>
        <time>2017-12-25T12:27:17Z</time>
      </trkpt>
      <trkpt lat="62.632294244721" lon="17.974025576821">
        <ele>79.4</ele>
        <time>2017-12-25T12:27:18Z</time>
      </trkpt>
      <trkpt lat="62.632266332994" lon="17.97398961847">
        <ele>79.4</ele>
        <time>2017-12-25T12:27:19Z</time>
      </trkpt>
      <trkpt lat="62.632241606389" lon="17.973969250453">
        <ele>79.4</ele>
        <time>2017-12-25T12:27:20Z</time>
      </trkpt>
      <trkpt lat="62.6322054804" lon="17.973933040645">
        <ele>79.2</ele>
        <time>2017-12-25T12:27:21Z</time>
      </trkpt>
      <trkpt lat="62.632181759623" lon="17.973895405914">
        <ele>79.2</ele>
        <time>2017-12-25T12:27:22Z</time>
      </trkpt>
      <trkpt lat="62.632154099353" lon="17.97386472816">
        <ele>79.4</ele>
        <time>2017-12-25T12:27:23Z</time>
      </trkpt>
      <trkpt lat="62.632126774359" lon="17.973826339058">
        <ele>79.2</ele>
        <time>2017-12-25T12:27:24Z</time>
      </trkpt>
      <trkpt lat="62.632101209564" lon="17.973800103711">
        <ele>79.2</ele>
        <time>2017-12-25T12:27:25Z</time>
      </trkpt>
      <trkpt lat="62.632073633113" lon="17.973754338537">
        <ele>79.2</ele>
        <time>2017-12-25T12:27:26Z</time>
      </trkpt>
      <trkpt lat="62.632045972843" lon="17.97372391224">
        <ele>79.2</ele>
        <time>2017-12-25T12:27:27Z</time>
      </trkpt>
      <trkpt lat="62.632018480211" lon="17.973700610558">
        <ele>79</ele>
        <time>2017-12-25T12:27:28Z</time>
      </trkpt>
      <trkpt lat="62.631987970095" lon="17.973666831501">
        <ele>79</ele>
        <time>2017-12-25T12:27:29Z</time>
      </trkpt>
      <trkpt lat="62.631962489119" lon="17.973645373837">
        <ele>79.2</ele>
        <time>2017-12-25T12:27:30Z</time>
      </trkpt>
      <trkpt lat="62.63193055408" lon="17.973611846237">
        <ele>79.2</ele>
        <time>2017-12-25T12:27:31Z</time>
      </trkpt>
      <trkpt lat="62.631906414208" lon="17.973579492103">
        <ele>79</ele>
        <time>2017-12-25T12:27:32Z</time>
      </trkpt>
      <trkpt lat="62.631883196345" lon="17.973546299779">
        <ele>79</ele>
        <time>2017-12-25T12:27:33Z</time>
      </trkpt>
      <trkpt lat="62.631856038989" lon="17.973518052776">
        <ele>79</ele>
        <time>2017-12-25T12:27:34Z</time>
      </trkpt>
      <trkpt lat="62.63183416223" lon="17.973501121338">
        <ele>79</ele>
        <time>2017-12-25T12:27:35Z</time>
      </trkpt>
      <trkpt lat="62.631806334322" lon="17.973460636761">
        <ele>79</ele>
        <time>2017-12-25T12:27:36Z</time>
      </trkpt>
      <trkpt lat="62.631782278269" lon="17.973426103333">
        <ele>79</ele>
        <time>2017-12-25T12:27:37Z</time>
      </trkpt>
      <trkpt lat="62.631754198904" lon="17.973394335932">
        <ele>79</ele>
        <time>2017-12-25T12:27:38Z</time>
      </trkpt>
      <trkpt lat="62.631729053204" lon="17.973351839699">
        <ele>79</ele>
        <time>2017-12-25T12:27:39Z</time>
      </trkpt>
      <trkpt lat="62.631706254436" lon="17.973322335411">
        <ele>79</ele>
        <time>2017-12-25T12:27:40Z</time>
      </trkpt>
      <trkpt lat="62.6316774207" lon="17.973286796155">
        <ele>79</ele>
        <time>2017-12-25T12:27:41Z</time>
      </trkpt>
      <trkpt lat="62.631651939724" lon="17.973247401225">
        <ele>78.8</ele>
        <time>2017-12-25T12:27:42Z</time>
      </trkpt>
      <trkpt lat="62.631627799852" lon="17.973212867797">
        <ele>78.8</ele>
        <time>2017-12-25T12:27:43Z</time>
      </trkpt>
      <trkpt lat="62.6316019836" lon="17.973162408759">
        <ele>78.8</ele>
        <time>2017-12-25T12:27:44Z</time>
      </trkpt>
      <trkpt lat="62.631578849556" lon="17.973123013829">
        <ele>78.8</ele>
        <time>2017-12-25T12:27:45Z</time>
      </trkpt>
      <trkpt lat="62.631553536218" lon="17.973081439605">
        <ele>78.6</ele>
        <time>2017-12-25T12:27:46Z</time>
      </trkpt>
      <trkpt lat="62.631527636147" lon="17.973039446286">
        <ele>78.6</ele>
        <time>2017-12-25T12:27:47Z</time>
      </trkpt>
      <trkpt lat="62.631505759388" lon="17.972992004732">
        <ele>78.4</ele>
        <time>2017-12-25T12:27:48Z</time>
      </trkpt>
      <trkpt lat="62.631484637" lon="17.972931487414">
        <ele>78.4</ele>
        <time>2017-12-25T12:27:49Z</time>
      </trkpt>
      <trkpt lat="62.631467454105" lon="17.972884213498">
        <ele>78.2</ele>
        <time>2017-12-25T12:27:50Z</time>
      </trkpt>
      <trkpt lat="62.631443817147" lon="17.972816571565">
        <ele>78.2</ele>
        <time>2017-12-25T12:27:51Z</time>
      </trkpt>
      <trkpt lat="62.631423532949" lon="17.972755635152">
        <ele>77.8</ele>
        <time>2017-12-25T12:27:52Z</time>
      </trkpt>
      <trkpt lat="62.63140752352" lon="17.972703248277">
        <ele>77.6</ele>
        <time>2017-12-25T12:27:53Z</time>
      </trkpt>
      <trkpt lat="62.631386233494" lon="17.972653459791">
        <ele>77.6</ele>
        <time>2017-12-25T12:27:54Z</time>
      </trkpt>
      <trkpt lat="62.631363015631" lon="17.972590427903">
        <ele>77.4</ele>
        <time>2017-12-25T12:27:55Z</time>
      </trkpt>
      <trkpt lat="62.631340300682" lon="17.97253452063">
        <ele>77.4</ele>
        <time>2017-12-25T12:27:56Z</time>
      </trkpt>
      <trkpt lat="62.631320519398" lon="17.972483055764">
        <ele>77.2</ele>
        <time>2017-12-25T12:27:57Z</time>
      </trkpt>
      <trkpt lat="62.631299983743" lon="17.972424633921">
        <ele>77</ele>
        <time>2017-12-25T12:27:58Z</time>
      </trkpt>
      <trkpt lat="62.631281292106" lon="17.972367972277">
        <ele>76.8</ele>
        <time>2017-12-25T12:27:59Z</time>
      </trkpt>
      <trkpt lat="62.631261259365" lon="17.972310556262">
        <ele>76.8</ele>
        <time>2017-12-25T12:28:00Z</time>
      </trkpt>
      <trkpt lat="62.631248099782" lon="17.972236460266">
        <ele>76.8</ele>
        <time>2017-12-25T12:28:01Z</time>
      </trkpt>
      <trkpt lat="62.631250949628" lon="17.972175020939">
        <ele>76.4</ele>
        <time>2017-12-25T12:28:02Z</time>
      </trkpt>
      <trkpt lat="62.631265450315" lon="17.972101930771">
        <ele>76</ele>
        <time>2017-12-25T12:28:03Z</time>
      </trkpt>
      <trkpt lat="62.631288584359" lon="17.972056919968">
        <ele>76</ele>
        <time>2017-12-25T12:28:04Z</time>
      </trkpt>
      <trkpt lat="62.63130945529" lon="17.972035378485">
        <ele>75.8</ele>
        <time>2017-12-25T12:28:05Z</time>
      </trkpt>
      <trkpt lat="62.631348766401" lon="17.97199556446">
        <ele>75.6</ele>
        <time>2017-12-25T12:28:06Z</time>
      </trkpt>
      <trkpt lat="62.631372151902" lon="17.971959270833">
        <ele>75.4</ele>
        <time>2017-12-25T12:28:07Z</time>
      </trkpt>
      <trkpt lat="62.631402159104" lon="17.971926749061">
        <ele>75.4</ele>
        <time>2017-12-25T12:28:08Z</time>
      </trkpt>
      <trkpt lat="62.631428562089" lon="17.971892802366">
        <ele>75.4</ele>
        <time>2017-12-25T12:28:09Z</time>
      </trkpt>
      <trkpt lat="62.631453288694" lon="17.971862711345">
        <ele>75.2</ele>
        <time>2017-12-25T12:28:10Z</time>
      </trkpt>
      <trkpt lat="62.631483379715" lon="17.971826166261">
        <ele>75.2</ele>
        <time>2017-12-25T12:28:11Z</time>
      </trkpt>
      <trkpt lat="62.631506681397" lon="17.971794147403">
        <ele>75.2</ele>
        <time>2017-12-25T12:28:12Z</time>
      </trkpt>
      <trkpt lat="62.631530988907" lon="17.971747963134">
        <ele>75.2</ele>
        <time>2017-12-25T12:28:13Z</time>
      </trkpt>
      <trkpt lat="62.631552614209" lon="17.971706472729">
        <ele>75.2</ele>
        <time>2017-12-25T12:28:14Z</time>
      </trkpt>
      <trkpt lat="62.631575329158" lon="17.971668167446">
        <ele>75.2</ele>
        <time>2017-12-25T12:28:15Z</time>
      </trkpt>
      <trkpt lat="62.63160030722" lon="17.971615445295">
        <ele>75.2</ele>
        <time>2017-12-25T12:28:16Z</time>
      </trkpt>
      <trkpt lat="62.63162042378" lon="17.971564231886">
        <ele>75.2</ele>
        <time>2017-12-25T12:28:17Z</time>
      </trkpt>
      <trkpt lat="62.631646240032" lon="17.971509665717">
        <ele>75.2</ele>
        <time>2017-12-25T12:28:18Z</time>
      </trkpt>
      <trkpt lat="62.631668703524" lon="17.971457865575">
        <ele>75.2</ele>
        <time>2017-12-25T12:28:19Z</time>
      </trkpt>
      <trkpt lat="62.631690077369" lon="17.971409082917">
        <ele>75.2</ele>
        <time>2017-12-25T12:28:20Z</time>
      </trkpt>
      <trkpt lat="62.631718156734" lon="17.971349403789">
        <ele>75</ele>
        <time>2017-12-25T12:28:21Z</time>
      </trkpt>
      <trkpt lat="62.631738273294" lon="17.971299112389">
        <ele>74.8</ele>
        <time>2017-12-25T12:28:22Z</time>
      </trkpt>
      <trkpt lat="62.631764927736" lon="17.971249072446">
        <ele>74.8</ele>
        <time>2017-12-25T12:28:23Z</time>
      </trkpt>
      <trkpt lat="62.63178722359" lon="17.971201714711">
        <ele>74.8</ele>
        <time>2017-12-25T12:28:24Z</time>
      </trkpt>
      <trkpt lat="62.631808597435" lon="17.971153434967">
        <ele>74.6</ele>
        <time>2017-12-25T12:28:25Z</time>
      </trkpt>
      <trkpt lat="62.631832318212" lon="17.971103814119">
        <ele>74.4</ele>
        <time>2017-12-25T12:28:26Z</time>
      </trkpt>
      <trkpt lat="62.631856206627" lon="17.971060898791">
        <ele>74.4</ele>
        <time>2017-12-25T12:28:27Z</time>
      </trkpt>
      <trkpt lat="62.631882944888" lon="17.97102242587">
        <ele>74.2</ele>
        <time>2017-12-25T12:28:28Z</time>
      </trkpt>
      <trkpt lat="62.631903648181" lon="17.97098470732">
        <ele>74.2</ele>
        <time>2017-12-25T12:28:29Z</time>
      </trkpt>
      <trkpt lat="62.631925105845" lon="17.970928213314">
        <ele>74.2</ele>
        <time>2017-12-25T12:28:30Z</time>
      </trkpt>
      <trkpt lat="62.631948323708" lon="17.970880939398">
        <ele>74.2</ele>
        <time>2017-12-25T12:28:31Z</time>
      </trkpt>
      <trkpt lat="62.63197162539" lon="17.970835090405">
        <ele>74</ele>
        <time>2017-12-25T12:28:32Z</time>
      </trkpt>
      <trkpt lat="62.631995346167" lon="17.970784212272">
        <ele>74</ele>
        <time>2017-12-25T12:28:33Z</time>
      </trkpt>
      <trkpt lat="62.632018647849" lon="17.970737860365">
        <ele>74</ele>
        <time>2017-12-25T12:28:34Z</time>
      </trkpt>
      <trkpt lat="62.632038512952" lon="17.970692765743">
        <ele>74</ele>
        <time>2017-12-25T12:28:35Z</time>
      </trkpt>
      <trkpt lat="62.632065837946" lon="17.970638953945">
        <ele>73.8</ele>
        <time>2017-12-25T12:28:36Z</time>
      </trkpt>
      <trkpt lat="62.632086038325" lon="17.970593356409">
        <ele>73.8</ele>
        <time>2017-12-25T12:28:37Z</time>
      </trkpt>
      <trkpt lat="62.632111100206" lon="17.970548261787">
        <ele>73.6</ele>
        <time>2017-12-25T12:28:38Z</time>
      </trkpt>
      <trkpt lat="62.632133563698" lon="17.970504005355">
        <ele>73.8</ele>
        <time>2017-12-25T12:28:39Z</time>
      </trkpt>
      <trkpt lat="62.632158290303" lon="17.970465616253">
        <ele>73.8</ele>
        <time>2017-12-25T12:28:40Z</time>
      </trkpt>
      <trkpt lat="62.632184022736" lon="17.97041389993">
        <ele>73.6</ele>
        <time>2017-12-25T12:28:41Z</time>
      </trkpt>
      <trkpt lat="62.632205228943" lon="17.970366626014">
        <ele>73.4</ele>
        <time>2017-12-25T12:28:42Z</time>
      </trkpt>
      <trkpt lat="62.632229284996" lon="17.970318178632">
        <ele>73.4</ele>
        <time>2017-12-25T12:28:43Z</time>
      </trkpt>
      <trkpt lat="62.632251161755" lon="17.970277945512">
        <ele>73.6</ele>
        <time>2017-12-25T12:28:44Z</time>
      </trkpt>
      <trkpt lat="62.632273792885" lon="17.970232431795">
        <ele>73.4</ele>
        <time>2017-12-25T12:28:45Z</time>
      </trkpt>
      <trkpt lat="62.632297597481" lon="17.970176105427">
        <ele>73.2</ele>
        <time>2017-12-25T12:28:46Z</time>
      </trkpt>
      <trkpt lat="62.632315702385" lon="17.970120030516">
        <ele>73.2</ele>
        <time>2017-12-25T12:28:47Z</time>
      </trkpt>
      <trkpt lat="62.632333136737" lon="17.970060519026">
        <ele>73</ele>
        <time>2017-12-25T12:28:48Z</time>
      </trkpt>
      <trkpt lat="62.632345709587" lon="17.969995559301">
        <ele>72.6</ele>
        <time>2017-12-25T12:28:49Z</time>
      </trkpt>
      <trkpt lat="62.632354007668" lon="17.969941831322">
        <ele>72.6</ele>
        <time>2017-12-25T12:28:50Z</time>
      </trkpt>
      <trkpt lat="62.632358701532" lon="17.969862706186">
        <ele>72.4</ele>
        <time>2017-12-25T12:28:51Z</time>
      </trkpt>
      <trkpt lat="62.632358617713" lon="17.969802272687">
        <ele>72.2</ele>
        <time>2017-12-25T12:28:52Z</time>
      </trkpt>
      <trkpt lat="62.632358450075" lon="17.969732870555">
        <ele>72.2</ele>
        <time>2017-12-25T12:28:53Z</time>
      </trkpt>
      <trkpt lat="62.632357444247" lon="17.969658774559">
        <ele>72</ele>
        <time>2017-12-25T12:28:54Z</time>
      </trkpt>
      <trkpt lat="62.632346463958" lon="17.969603286381">
        <ele>71.8</ele>
        <time>2017-12-25T12:28:55Z</time>
      </trkpt>
      <trkpt lat="62.632328191416" lon="17.969547295289">
        <ele>71.6</ele>
        <time>2017-12-25T12:28:56Z</time>
      </trkpt>
      <trkpt lat="62.632305057372" lon="17.969518629191">
        <ele>71.4</ele>
        <time>2017-12-25T12:28:57Z</time>
      </trkpt>
      <trkpt lat="62.632275385446" lon="17.969514941155">
        <ele>71.2</ele>
        <time>2017-12-25T12:28:58Z</time>
      </trkpt>
      <trkpt lat="62.632242612217" lon="17.969517288087">
        <ele>71</ele>
        <time>2017-12-25T12:28:59Z</time>
      </trkpt>
      <trkpt lat="62.632220400182" lon="17.969535728267">
        <ele>70.8</ele>
        <time>2017-12-25T12:29:00Z</time>
      </trkpt>
      <trkpt lat="62.632189890066" lon="17.96954553509">
        <ele>70.6</ele>
        <time>2017-12-25T12:29:01Z</time>
      </trkpt>
      <trkpt lat="62.632164744366" lon="17.96954134414">
        <ele>70.6</ele>
        <time>2017-12-25T12:29:02Z</time>
      </trkpt>
      <trkpt lat="62.632133815155" lon="17.96954302052">
        <ele>70.4</ele>
        <time>2017-12-25T12:29:03Z</time>
      </trkpt>
      <trkpt lat="62.632106071066" lon="17.969547379108">
        <ele>70.2</ele>
        <time>2017-12-25T12:29:04Z</time>
      </trkpt>
      <trkpt lat="62.632083439936" lon="17.969558694673">
        <ele>70.2</ele>
        <time>2017-12-25T12:29:05Z</time>
      </trkpt>
      <trkpt lat="62.632049912336" lon="17.969565567831">
        <ele>70.2</ele>
        <time>2017-12-25T12:29:06Z</time>
      </trkpt>
      <trkpt lat="62.632022587342" lon="17.969577721586">
        <ele>70.2</ele>
        <time>2017-12-25T12:29:07Z</time>
      </trkpt>
      <trkpt lat="62.631988640647" lon="17.969591216445">
        <ele>70.2</ele>
        <time>2017-12-25T12:29:08Z</time>
      </trkpt>
      <trkpt lat="62.631955615961" lon="17.969595994128">
        <ele>70.2</ele>
        <time>2017-12-25T12:29:09Z</time>
      </trkpt>
      <trkpt lat="62.631929212976" lon="17.969602196734">
        <ele>70.2</ele>
        <time>2017-12-25T12:29:10Z</time>
      </trkpt>
      <trkpt lat="62.631895182462" lon="17.969602448191">
        <ele>70.2</ele>
        <time>2017-12-25T12:29:11Z</time>
      </trkpt>
      <trkpt lat="62.631867186916" lon="17.969600604173">
        <ele>70.2</ele>
        <time>2017-12-25T12:29:12Z</time>
      </trkpt>
      <trkpt lat="62.631835335696" lon="17.969605465675">
        <ele>70.2</ele>
        <time>2017-12-25T12:29:13Z</time>
      </trkpt>
      <trkpt lat="62.6318031492" lon="17.969617116516">
        <ele>70.2</ele>
        <time>2017-12-25T12:29:14Z</time>
      </trkpt>
      <trkpt lat="62.631776159482" lon="17.969632036298">
        <ele>70</ele>
        <time>2017-12-25T12:29:15Z</time>
      </trkpt>
      <trkpt lat="62.631743972986" lon="17.969659780387">
        <ele>70.2</ele>
        <time>2017-12-25T12:29:16Z</time>
      </trkpt>
      <trkpt lat="62.631717989096" lon="17.969694565272">
        <ele>70.2</ele>
        <time>2017-12-25T12:29:17Z</time>
      </trkpt>
      <trkpt lat="62.631695106509" lon="17.969734630754">
        <ele>69.8</ele>
        <time>2017-12-25T12:29:18Z</time>
      </trkpt>
      <trkpt lat="62.631667781515" lon="17.969766314336">
        <ele>69.8</ele>
        <time>2017-12-25T12:29:19Z</time>
      </trkpt>
      <trkpt lat="62.631647581136" lon="17.969784167783">
        <ele>69.8</ele>
        <time>2017-12-25T12:29:20Z</time>
      </trkpt>
      <trkpt lat="62.63161790921" lon="17.969805206352">
        <ele>69.8</ele>
        <time>2017-12-25T12:29:21Z</time>
      </trkpt>
      <trkpt lat="62.631594104614" lon="17.969828927129">
        <ele>69.8</ele>
        <time>2017-12-25T12:29:22Z</time>
      </trkpt>
      <trkpt lat="62.631565438516" lon="17.969853318458">
        <ele>69.8</ele>
        <time>2017-12-25T12:29:23Z</time>
      </trkpt>
      <trkpt lat="62.631535934228" lon="17.969871842457">
        <ele>69.8</ele>
        <time>2017-12-25T12:29:24Z</time>
      </trkpt>
      <trkpt lat="62.631514728021" lon="17.969890953189">
        <ele>70</ele>
        <time>2017-12-25T12:29:25Z</time>
      </trkpt>
      <trkpt lat="62.631480948964" lon="17.969916266527">
        <ele>70.2</ele>
        <time>2017-12-25T12:29:26Z</time>
      </trkpt>
      <trkpt lat="62.631454713617" lon="17.96993110249">
        <ele>70.4</ele>
        <time>2017-12-25T12:29:27Z</time>
      </trkpt>
      <trkpt lat="62.631429065003" lon="17.969946609005">
        <ele>70.4</ele>
        <time>2017-12-25T12:29:28Z</time>
      </trkpt>
      <trkpt lat="62.631399057801" lon="17.969959098036">
        <ele>70.6</ele>
        <time>2017-12-25T12:29:29Z</time>
      </trkpt>
      <trkpt lat="62.631374415015" lon="17.969974939827">
        <ele>70.6</ele>
        <time>2017-12-25T12:29:30Z</time>
      </trkpt>
      <trkpt lat="62.631344407813" lon="17.969991703627">
        <ele>70.6</ele>
        <time>2017-12-25T12:29:31Z</time>
      </trkpt>
      <trkpt lat="62.631317501914" lon="17.970010814359">
        <ele>70.8</ele>
        <time>2017-12-25T12:29:32Z</time>
      </trkpt>
      <trkpt lat="62.631294200232" lon="17.970030679462">
        <ele>70.6</ele>
        <time>2017-12-25T12:29:33Z</time>
      </trkpt>
      <trkpt lat="62.631264612125" lon="17.970049957832">
        <ele>70.6</ele>
        <time>2017-12-25T12:29:34Z</time>
      </trkpt>
      <trkpt lat="62.631241310443" lon="17.970064123243">
        <ele>70.8</ele>
        <time>2017-12-25T12:29:35Z</time>
      </trkpt>
      <trkpt lat="62.631210967965" lon="17.970073762428">
        <ele>71</ele>
        <time>2017-12-25T12:29:36Z</time>
      </trkpt>
      <trkpt lat="62.631183223876" lon="17.970088849848">
        <ele>70.8</ele>
        <time>2017-12-25T12:29:37Z</time>
      </trkpt>
      <trkpt lat="62.631159838375" lon="17.970104524001">
        <ele>70.8</ele>
        <time>2017-12-25T12:29:38Z</time>
      </trkpt>
      <trkpt lat="62.63112840625" lon="17.970122964181">
        <ele>71</ele>
        <time>2017-12-25T12:29:39Z</time>
      </trkpt>
      <trkpt lat="62.631104853111" lon="17.970133357737">
        <ele>71</ele>
        <time>2017-12-25T12:29:40Z</time>
      </trkpt>
      <trkpt lat="62.631076354651" lon="17.970148696614">
        <ele>71</ele>
        <time>2017-12-25T12:29:41Z</time>
      </trkpt>
      <trkpt lat="62.631048359105" lon="17.970157497609">
        <ele>70.8</ele>
        <time>2017-12-25T12:29:42Z</time>
      </trkpt>
      <trkpt lat="62.631012819849" lon="17.970165292776">
        <ele>71</ele>
        <time>2017-12-25T12:29:44Z</time>
      </trkpt>
      <trkpt lat="62.630987757968" lon="17.970161437102">
        <ele>71.2</ele>
        <time>2017-12-25T12:29:45Z</time>
      </trkpt>
      <trkpt lat="62.630976945317" lon="17.970168226441">
        <ele>71.2</ele>
        <time>2017-12-25T12:29:46Z</time>
      </trkpt>
      <trkpt lat="62.630966216485" lon="17.970166717699">
        <ele>71.6</ele>
        <time>2017-12-25T12:29:47Z</time>
      </trkpt>
      <trkpt lat="62.630958002223" lon="17.970156659419">
        <ele>71.8</ele>
        <time>2017-12-25T12:29:48Z</time>
      </trkpt>
      <trkpt lat="62.630959762422" lon="17.970138638334">
        <ele>72</ele>
        <time>2017-12-25T12:29:49Z</time>
      </trkpt>
      <trkpt lat="62.630971329444" lon="17.970135034117">
        <ele>72</ele>
        <time>2017-12-25T12:29:50Z</time>
      </trkpt>
      <trkpt lat="62.630975352756" lon="17.970145343854">
        <ele>72.2</ele>
        <time>2017-12-25T12:29:51Z</time>
      </trkpt>
      <trkpt lat="62.630979543706" lon="17.970140566171">
        <ele>72.2</ele>
        <time>2017-12-25T12:29:52Z</time>
      </trkpt>
      <trkpt lat="62.630975520394" lon="17.970145176216">
        <ele>72.2</ele>
        <time>2017-12-25T12:29:53Z</time>
      </trkpt>
      <trkpt lat="62.631205100635" lon="17.969998912061">
        <ele>71.6</ele>
        <time>2017-12-25T12:30:48Z</time>
      </trkpt>
      <trkpt lat="62.631237622407" lon="17.96997887932">
        <ele>71.6</ele>
        <time>2017-12-25T12:30:49Z</time>
      </trkpt>
      <trkpt lat="62.631272491111" lon="17.969957840751">
        <ele>71.4</ele>
        <time>2017-12-25T12:30:50Z</time>
      </trkpt>
      <trkpt lat="62.631303504141" lon="17.969938813838">
        <ele>71.4</ele>
        <time>2017-12-25T12:30:51Z</time>
      </trkpt>
      <trkpt lat="62.631334684809" lon="17.96992104421">
        <ele>71.2</ele>
        <time>2017-12-25T12:30:52Z</time>
      </trkpt>
      <trkpt lat="62.631373073911" lon="17.969903861315">
        <ele>71.2</ele>
        <time>2017-12-25T12:30:53Z</time>
      </trkpt>
      <trkpt lat="62.631401907647" lon="17.969901933478">
        <ele>71.2</ele>
        <time>2017-12-25T12:30:54Z</time>
      </trkpt>
      <trkpt lat="62.631437111627" lon="17.969905370057">
        <ele>71.4</ele>
        <time>2017-12-25T12:30:55Z</time>
      </trkpt>
      <trkpt lat="62.631468543752" lon="17.969899838003">
        <ele>71.4</ele>
        <time>2017-12-25T12:30:56Z</time>
      </trkpt>
      <trkpt lat="62.631501316981" lon="17.96988751661">
        <ele>71.4</ele>
        <time>2017-12-25T12:30:57Z</time>
      </trkpt>
      <trkpt lat="62.631535934228" lon="17.969866226584">
        <ele>71.2</ele>
        <time>2017-12-25T12:30:58Z</time>
      </trkpt>
      <trkpt lat="62.63156929419" lon="17.969841583798">
        <ele>71.2</ele>
        <time>2017-12-25T12:30:59Z</time>
      </trkpt>
      <trkpt lat="62.631604079075" lon="17.969816354279">
        <ele>71.2</ele>
        <time>2017-12-25T12:31:00Z</time>
      </trkpt>
      <trkpt lat="62.631638277227" lon="17.969786682353">
        <ele>71.2</ele>
        <time>2017-12-25T12:31:01Z</time>
      </trkpt>
      <trkpt lat="62.6316690388" lon="17.969754412038">
        <ele>71.2</ele>
        <time>2017-12-25T12:31:02Z</time>
      </trkpt>
      <trkpt lat="62.631701979667" lon="17.969713927461">
        <ele>71</ele>
        <time>2017-12-25T12:31:03Z</time>
      </trkpt>
      <trkpt lat="62.631733747068" lon="17.969675286902">
        <ele>70.8</ele>
        <time>2017-12-25T12:31:04Z</time>
      </trkpt>
      <trkpt lat="62.631769453962" lon="17.9696368978">
        <ele>70.6</ele>
        <time>2017-12-25T12:31:05Z</time>
      </trkpt>
      <trkpt lat="62.631804322666" lon="17.969613596118">
        <ele>70.2</ele>
        <time>2017-12-25T12:31:06Z</time>
      </trkpt>
      <trkpt lat="62.631837850266" lon="17.969600268897">
        <ele>70.2</ele>
        <time>2017-12-25T12:31:07Z</time>
      </trkpt>
      <trkpt lat="62.631870791133" lon="17.969599514526">
        <ele>70</ele>
        <time>2017-12-25T12:31:08Z</time>
      </trkpt>
      <trkpt lat="62.631898367584" lon="17.96960001744">
        <ele>70</ele>
        <time>2017-12-25T12:31:09Z</time>
      </trkpt>
      <trkpt lat="62.631931727546" lon="17.969598592517">
        <ele>70</ele>
        <time>2017-12-25T12:31:10Z</time>
      </trkpt>
      <trkpt lat="62.631964416956" lon="17.969597419051">
        <ele>70</ele>
        <time>2017-12-25T12:31:11Z</time>
      </trkpt>
      <trkpt lat="62.6319959329" lon="17.969590629712">
        <ele>70</ele>
        <time>2017-12-25T12:31:12Z</time>
      </trkpt>
      <trkpt lat="62.632028454672" lon="17.969584846201">
        <ele>70.2</ele>
        <time>2017-12-25T12:31:13Z</time>
      </trkpt>
      <trkpt lat="62.632057036951" lon="17.969577889224">
        <ele>70.2</ele>
        <time>2017-12-25T12:31:14Z</time>
      </trkpt>
      <trkpt lat="62.632089977818" lon="17.969568920591">
        <ele>70.2</ele>
        <time>2017-12-25T12:31:15Z</time>
      </trkpt>
      <trkpt lat="62.632121829038" lon="17.969562969442">
        <ele>70.2</ele>
        <time>2017-12-25T12:31:16Z</time>
      </trkpt>
      <trkpt lat="62.63215351262" lon="17.969556347741">
        <ele>70.4</ele>
        <time>2017-12-25T12:31:17Z</time>
      </trkpt>
      <trkpt lat="62.6321887166" lon="17.969549642221">
        <ele>70.4</ele>
        <time>2017-12-25T12:31:18Z</time>
      </trkpt>
      <trkpt lat="62.632218220888" lon="17.969542433787">
        <ele>70.6</ele>
        <time>2017-12-25T12:31:19Z</time>
      </trkpt>
      <trkpt lat="62.632253005773" lon="17.969536063543">
        <ele>70.6</ele>
        <time>2017-12-25T12:31:20Z</time>
      </trkpt>
      <trkpt lat="62.632284018803" lon="17.969531118222">
        <ele>70.6</ele>
        <time>2017-12-25T12:31:21Z</time>
      </trkpt>
      <trkpt lat="62.63231612148" lon="17.969531369679">
        <ele>70.8</ele>
        <time>2017-12-25T12:31:22Z</time>
      </trkpt>
      <trkpt lat="62.632347888881" lon="17.969530782946">
        <ele>70.8</ele>
        <time>2017-12-25T12:31:23Z</time>
      </trkpt>
      <trkpt lat="62.632376303522" lon="17.969526843453">
        <ele>70.6</ele>
        <time>2017-12-25T12:31:24Z</time>
      </trkpt>
      <trkpt lat="62.632407568009" lon="17.969530028575">
        <ele>70.6</ele>
        <time>2017-12-25T12:31:25Z</time>
      </trkpt>
      <trkpt lat="62.632436904659" lon="17.969529274204">
        <ele>70.6</ele>
        <time>2017-12-25T12:31:26Z</time>
      </trkpt>
      <trkpt lat="62.632466576585" lon="17.969530782946">
        <ele>70.6</ele>
        <time>2017-12-25T12:31:27Z</time>
      </trkpt>
      <trkpt lat="62.632497002882" lon="17.969533716611">
        <ele>70.8</ele>
        <time>2017-12-25T12:31:28Z</time>
      </trkpt>
      <trkpt lat="62.632526926265" lon="17.969534722439">
        <ele>70.8</ele>
        <time>2017-12-25T12:31:29Z</time>
      </trkpt>
      <trkpt lat="62.632559280399" lon="17.969538159018">
        <ele>70.8</ele>
        <time>2017-12-25T12:31:30Z</time>
      </trkpt>
      <trkpt lat="62.632587275945" lon="17.969538326656">
        <ele>71</ele>
        <time>2017-12-25T12:31:31Z</time>
      </trkpt>
      <trkpt lat="62.6326161935" lon="17.96954218233">
        <ele>71</ele>
        <time>2017-12-25T12:31:32Z</time>
      </trkpt>
      <trkpt lat="62.632643183218" lon="17.969547546746">
        <ele>70.8</ele>
        <time>2017-12-25T12:31:33Z</time>
      </trkpt>
      <trkpt lat="62.632670172936" lon="17.969552994981">
        <ele>70.8</ele>
        <time>2017-12-25T12:31:34Z</time>
      </trkpt>
      <trkpt lat="62.632701856518" lon="17.969561376881">
        <ele>70.8</ele>
        <time>2017-12-25T12:31:35Z</time>
      </trkpt>
      <trkpt lat="62.632728846236" lon="17.969563807632">
        <ele>70.8</ele>
        <time>2017-12-25T12:31:36Z</time>
      </trkpt>
      <trkpt lat="62.632755081583" lon="17.969568501496">
        <ele>70.6</ele>
        <time>2017-12-25T12:31:37Z</time>
      </trkpt>
      <trkpt lat="62.632778383265" lon="17.969573279179">
        <ele>70.8</ele>
        <time>2017-12-25T12:31:38Z</time>
      </trkpt>
      <trkpt lat="62.632800427662" lon="17.969576967215">
        <ele>70.6</ele>
        <time>2017-12-25T12:31:39Z</time>
      </trkpt>
      <trkpt lat="62.632832949434" lon="17.969582666907">
        <ele>70.8</ele>
        <time>2017-12-25T12:31:40Z</time>
      </trkpt>
      <trkpt lat="62.632860609704" lon="17.969584427106">
        <ele>71</ele>
        <time>2017-12-25T12:31:41Z</time>
      </trkpt>
      <trkpt lat="62.632888772888" lon="17.969588115142">
        <ele>71</ele>
        <time>2017-12-25T12:31:42Z</time>
      </trkpt>
      <trkpt lat="62.632916181701" lon="17.969591132626">
        <ele>71</ele>
        <time>2017-12-25T12:31:43Z</time>
      </trkpt>
      <trkpt lat="62.632942752324" lon="17.969593144282">
        <ele>71.2</ele>
        <time>2017-12-25T12:31:44Z</time>
      </trkpt>
      <trkpt lat="62.632973010983" lon="17.969597251413">
        <ele>71.4</ele>
        <time>2017-12-25T12:31:45Z</time>
      </trkpt>
      <trkpt lat="62.63300092271" lon="17.969601442363">
        <ele>71.4</ele>
        <time>2017-12-25T12:31:46Z</time>
      </trkpt>
      <trkpt lat="62.633029504989" lon="17.969607142055">
        <ele>71.4</ele>
        <time>2017-12-25T12:31:47Z</time>
      </trkpt>
      <trkpt lat="62.633057668173" lon="17.96961259029">
        <ele>71.4</ele>
        <time>2017-12-25T12:31:48Z</time>
      </trkpt>
      <trkpt lat="62.633085076986" lon="17.969616865059">
        <ele>71.6</ele>
        <time>2017-12-25T12:31:49Z</time>
      </trkpt>
      <trkpt lat="62.633115000369" lon="17.969625833692">
        <ele>71.6</ele>
        <time>2017-12-25T12:31:50Z</time>
      </trkpt>
      <trkpt lat="62.633141403354" lon="17.969633293583">
        <ele>71.6</ele>
        <time>2017-12-25T12:31:51Z</time>
      </trkpt>
      <trkpt lat="62.633171494375" lon="17.969644944424">
        <ele>71.6</ele>
        <time>2017-12-25T12:31:52Z</time>
      </trkpt>
      <trkpt lat="62.633199992835" lon="17.969656595265">
        <ele>71.6</ele>
        <time>2017-12-25T12:31:53Z</time>
      </trkpt>
      <trkpt lat="62.633225725268" lon="17.969665563898">
        <ele>71.6</ele>
        <time>2017-12-25T12:31:54Z</time>
      </trkpt>
      <trkpt lat="62.633257325031" lon="17.969686099553">
        <ele>71.8</ele>
        <time>2017-12-25T12:31:55Z</time>
      </trkpt>
      <trkpt lat="62.633283644197" lon="17.969710155606">
        <ele>71.6</ele>
        <time>2017-12-25T12:31:56Z</time>
      </trkpt>
      <trkpt lat="62.633307029698" lon="17.969739408437">
        <ele>71.6</ele>
        <time>2017-12-25T12:31:57Z</time>
      </trkpt>
      <trkpt lat="62.633329157914" lon="17.969773187494">
        <ele>71.8</ele>
        <time>2017-12-25T12:31:58Z</time>
      </trkpt>
      <trkpt lat="62.633347262818" lon="17.969816521917">
        <ele>72</ele>
        <time>2017-12-25T12:31:59Z</time>
      </trkpt>
      <trkpt lat="62.633360673858" lon="17.969869830801">
        <ele>72</ele>
        <time>2017-12-25T12:32:00Z</time>
      </trkpt>
      <trkpt lat="62.633371235052" lon="17.969922133857">
        <ele>72</ele>
        <time>2017-12-25T12:32:01Z</time>
      </trkpt>
      <trkpt lat="62.633379616952" lon="17.969977622035">
        <ele>72.2</ele>
        <time>2017-12-25T12:32:02Z</time>
      </trkpt>
      <trkpt lat="62.63338565192" lon="17.9700308471">
        <ele>72.4</ele>
        <time>2017-12-25T12:32:03Z</time>
      </trkpt>
      <trkpt lat="62.633389088499" lon="17.970088346934">
        <ele>72.4</ele>
        <time>2017-12-25T12:32:04Z</time>
      </trkpt>
      <trkpt lat="62.63339235744" lon="17.970150792089">
        <ele>72.6</ele>
        <time>2017-12-25T12:32:05Z</time>
      </trkpt>
      <trkpt lat="62.633394452915" lon="17.970208124285">
        <ele>72.8</ele>
        <time>2017-12-25T12:32:06Z</time>
      </trkpt>
      <trkpt lat="62.633398140951" lon="17.970265037386">
        <ele>72.8</ele>
        <time>2017-12-25T12:32:07Z</time>
      </trkpt>
      <trkpt lat="62.633403170091" lon="17.970321531392">
        <ele>73</ele>
        <time>2017-12-25T12:32:08Z</time>
      </trkpt>
      <trkpt lat="62.633404762652" lon="17.970371571335">
        <ele>73</ele>
        <time>2017-12-25T12:32:09Z</time>
      </trkpt>
      <trkpt lat="62.633407277222" lon="17.970436950155">
        <ele>73</ele>
        <time>2017-12-25T12:32:10Z</time>
      </trkpt>
      <trkpt lat="62.633409875611" lon="17.97049771893">
        <ele>73.2</ele>
        <time>2017-12-25T12:32:11Z</time>
      </trkpt>
      <trkpt lat="62.633409875611" lon="17.970556895144">
        <ele>73.2</ele>
        <time>2017-12-25T12:32:12Z</time>
      </trkpt>
      <trkpt lat="62.633411803448" lon="17.97061422734">
        <ele>73.4</ele>
        <time>2017-12-25T12:32:13Z</time>
      </trkpt>
      <trkpt lat="62.633414737113" lon="17.970670218432">
        <ele>73.4</ele>
        <time>2017-12-25T12:32:14Z</time>
      </trkpt>
      <trkpt lat="62.633418173692" lon="17.970728053542">
        <ele>73.6</ele>
        <time>2017-12-25T12:32:15Z</time>
      </trkpt>
      <trkpt lat="62.633420520624" lon="17.97079108543">
        <ele>73.6</ele>
        <time>2017-12-25T12:32:16Z</time>
      </trkpt>
      <trkpt lat="62.633420939719" lon="17.970853698223">
        <ele>73.8</ele>
        <time>2017-12-25T12:32:17Z</time>
      </trkpt>
      <trkpt lat="62.633422280823" lon="17.970912790618">
        <ele>73.8</ele>
        <time>2017-12-25T12:32:18Z</time>
      </trkpt>
      <trkpt lat="62.633421777909" lon="17.970971547737">
        <ele>73.8</ele>
        <time>2017-12-25T12:32:19Z</time>
      </trkpt>
      <trkpt lat="62.633421945547" lon="17.971035250177">
        <ele>73.8</ele>
        <time>2017-12-25T12:32:20Z</time>
      </trkpt>
      <trkpt lat="62.633422113185" lon="17.971094426391">
        <ele>74</ele>
        <time>2017-12-25T12:32:21Z</time>
      </trkpt>
      <trkpt lat="62.633421442633" lon="17.971154776071">
        <ele>74</ele>
        <time>2017-12-25T12:32:22Z</time>
      </trkpt>
      <trkpt lat="62.63342169409" lon="17.971215461027">
        <ele>74.2</ele>
        <time>2017-12-25T12:32:23Z</time>
      </trkpt>
      <trkpt lat="62.633421274995" lon="17.971270362472">
        <ele>74.4</ele>
        <time>2017-12-25T12:32:24Z</time>
      </trkpt>
      <trkpt lat="62.633421191176" lon="17.971337082396">
        <ele>74.6</ele>
        <time>2017-12-25T12:32:25Z</time>
      </trkpt>
      <trkpt lat="62.633420269167" lon="17.971399779008">
        <ele>74.6</ele>
        <time>2017-12-25T12:32:26Z</time>
      </trkpt>
      <trkpt lat="62.633420688262" lon="17.971456775928">
        <ele>74.8</ele>
        <time>2017-12-25T12:32:27Z</time>
      </trkpt>
      <trkpt lat="62.633421610271" lon="17.971519388721">
        <ele>75</ele>
        <time>2017-12-25T12:32:28Z</time>
      </trkpt>
      <trkpt lat="62.63342001771" lon="17.971580157496">
        <ele>75</ele>
        <time>2017-12-25T12:32:29Z</time>
      </trkpt>
      <trkpt lat="62.633419598615" lon="17.971645871592">
        <ele>75</ele>
        <time>2017-12-25T12:32:30Z</time>
      </trkpt>
      <trkpt lat="62.633416162036" lon="17.971708652023">
        <ele>75.2</ele>
        <time>2017-12-25T12:32:31Z</time>
      </trkpt>
      <trkpt lat="62.633412390181" lon="17.9717659004">
        <ele>75.2</ele>
        <time>2017-12-25T12:32:32Z</time>
      </trkpt>
      <trkpt lat="62.633409205059" lon="17.971819796017">
        <ele>75.2</ele>
        <time>2017-12-25T12:32:33Z</time>
      </trkpt>
      <trkpt lat="62.633406103756" lon="17.971876122385">
        <ele>75.2</ele>
        <time>2017-12-25T12:32:34Z</time>
      </trkpt>
      <trkpt lat="62.633395039648" lon="17.971942171757">
        <ele>75.2</ele>
        <time>2017-12-25T12:32:35Z</time>
      </trkpt>
      <trkpt lat="62.633389088499" lon="17.972005203645">
        <ele>75.4</ele>
        <time>2017-12-25T12:32:36Z</time>
      </trkpt>
      <trkpt lat="62.633381712427" lon="17.972064966592">
        <ele>75.4</ele>
        <time>2017-12-25T12:32:37Z</time>
      </trkpt>
      <trkpt lat="62.63337475545" lon="17.972127327928">
        <ele>75.6</ele>
        <time>2017-12-25T12:32:38Z</time>
      </trkpt>
      <trkpt lat="62.633368301387" lon="17.972178708975">
        <ele>75.6</ele>
        <time>2017-12-25T12:32:39Z</time>
      </trkpt>
      <trkpt lat="62.633359165116" lon="17.972245177442">
        <ele>75.8</ele>
        <time>2017-12-25T12:32:40Z</time>
      </trkpt>
      <trkpt lat="62.63334960975" lon="17.97230485657">
        <ele>76</ele>
        <time>2017-12-25T12:32:41Z</time>
      </trkpt>
      <trkpt lat="62.633340305841" lon="17.972359003644">
        <ele>76.2</ele>
        <time>2017-12-25T12:32:42Z</time>
      </trkpt>
      <trkpt lat="62.633331840122" lon="17.972414743279">
        <ele>76.2</ele>
        <time>2017-12-25T12:32:43Z</time>
      </trkpt>
      <trkpt lat="62.633323290584" lon="17.972466040507">
        <ele>76.2</ele>
        <time>2017-12-25T12:32:44Z</time>
      </trkpt>
      <trkpt lat="62.633314573408" lon="17.972519684667">
        <ele>76.6</ele>
        <time>2017-12-25T12:32:45Z</time>
      </trkpt>
      <trkpt lat="62.633304263671" lon="17.972576178673">
        <ele>76.6</ele>
        <time>2017-12-25T12:32:46Z</time>
      </trkpt>
      <trkpt lat="62.633293199563" lon="17.972631247756">
        <ele>76.8</ele>
        <time>2017-12-25T12:32:47Z</time>
      </trkpt>
      <trkpt lat="62.633282386912" lon="17.972684640459">
        <ele>76.8</ele>
        <time>2017-12-25T12:32:48Z</time>
      </trkpt>
      <trkpt lat="62.633271322804" lon="17.972732249651">
        <ele>77</ele>
        <time>2017-12-25T12:32:49Z</time>
      </trkpt>
      <trkpt lat="62.633259169049" lon="17.972784133612">
        <ele>77</ele>
        <time>2017-12-25T12:32:50Z</time>
      </trkpt>
      <trkpt lat="62.633246093285" lon="17.972833419184">
        <ele>77</ele>
        <time>2017-12-25T12:32:51Z</time>
      </trkpt>
      <trkpt lat="62.633232933702" lon="17.972886895706">
        <ele>77.2</ele>
        <time>2017-12-25T12:32:52Z</time>
      </trkpt>
      <trkpt lat="62.633220025576" lon="17.97294523373">
        <ele>77.4</ele>
        <time>2017-12-25T12:32:53Z</time>
      </trkpt>
      <trkpt lat="62.633209129106" lon="17.97299552513">
        <ele>77.4</ele>
        <time>2017-12-25T12:32:54Z</time>
      </trkpt>
      <trkpt lat="62.633196388618" lon="17.97305838938">
        <ele>77.4</ele>
        <time>2017-12-25T12:32:55Z</time>
      </trkpt>
      <trkpt lat="62.633183815768" lon="17.97311287173">
        <ele>77.4</ele>
        <time>2017-12-25T12:32:56Z</time>
      </trkpt>
      <trkpt lat="62.633172416384" lon="17.973161654388">
        <ele>77.6</ele>
        <time>2017-12-25T12:32:57Z</time>
      </trkpt>
      <trkpt lat="62.633161017" lon="17.973214208901">
        <ele>77.8</ele>
        <time>2017-12-25T12:32:58Z</time>
      </trkpt>
      <trkpt lat="62.633150371987" lon="17.973264165025">
        <ele>77.8</ele>
        <time>2017-12-25T12:32:59Z</time>
      </trkpt>
      <trkpt lat="62.633137715318" lon="17.973317809185">
        <ele>77.8</ele>
        <time>2017-12-25T12:33:00Z</time>
      </trkpt>
      <trkpt lat="62.633124388097" lon="17.973370782793">
        <ele>77.8</ele>
        <time>2017-12-25T12:33:01Z</time>
      </trkpt>
      <trkpt lat="62.633113659265" lon="17.973423588763">
        <ele>78</ele>
        <time>2017-12-25T12:33:02Z</time>
      </trkpt>
      <trkpt lat="62.633102846614" lon="17.973475724181">
        <ele>78</ele>
        <time>2017-12-25T12:33:03Z</time>
      </trkpt>
      <trkpt lat="62.633092536877" lon="17.973524758296">
        <ele>78</ele>
        <time>2017-12-25T12:33:04Z</time>
      </trkpt>
      <trkpt lat="62.633080634579" lon="17.97358309632">
        <ele>78.2</ele>
        <time>2017-12-25T12:33:05Z</time>
      </trkpt>
      <trkpt lat="62.6330688161" lon="17.973639674145">
        <ele>78.4</ele>
        <time>2017-12-25T12:33:06Z</time>
      </trkpt>
      <trkpt lat="62.633057835811" lon="17.973689462631">
        <ele>78.4</ele>
        <time>2017-12-25T12:33:07Z</time>
      </trkpt>
      <trkpt lat="62.633045179142" lon="17.973740927497">
        <ele>78.6</ele>
        <time>2017-12-25T12:33:08Z</time>
      </trkpt>
      <trkpt lat="62.633033193025" lon="17.973785770662">
        <ele>78.6</ele>
        <time>2017-12-25T12:33:09Z</time>
      </trkpt>
      <trkpt lat="62.633018273243" lon="17.973847629084">
        <ele>78.8</ele>
        <time>2017-12-25T12:33:10Z</time>
      </trkpt>
      <trkpt lat="62.633004778384" lon="17.97390663766">
        <ele>78.8</ele>
        <time>2017-12-25T12:33:11Z</time>
      </trkpt>
      <trkpt lat="62.632991954077" lon="17.97395944363">
        <ele>79</ele>
        <time>2017-12-25T12:33:12Z</time>
      </trkpt>
      <trkpt lat="62.632977788666" lon="17.974014680351">
        <ele>79</ele>
        <time>2017-12-25T12:33:13Z</time>
      </trkpt>
      <trkpt lat="62.632965131997" lon="17.974066899588">
        <ele>79.2</ele>
        <time>2017-12-25T12:33:14Z</time>
      </trkpt>
      <trkpt lat="62.632949541663" lon="17.974126075802">
        <ele>79.2</ele>
        <time>2017-12-25T12:33:15Z</time>
      </trkpt>
      <trkpt lat="62.632931604397" lon="17.974181480161">
        <ele>79.2</ele>
        <time>2017-12-25T12:33:16Z</time>
      </trkpt>
      <trkpt lat="62.632913583312" lon="17.974236716882">
        <ele>79.2</ele>
        <time>2017-12-25T12:33:17Z</time>
      </trkpt>
      <trkpt lat="62.632897657702" lon="17.974288433205">
        <ele>79.4</ele>
        <time>2017-12-25T12:33:18Z</time>
      </trkpt>
      <trkpt lat="62.632881480635" lon="17.974339814252">
        <ele>79.4</ele>
        <time>2017-12-25T12:33:19Z</time>
      </trkpt>
      <trkpt lat="62.632862788998" lon="17.974394128964">
        <ele>79.4</ele>
        <time>2017-12-25T12:33:20Z</time>
      </trkpt>
      <trkpt lat="62.632842588619" lon="17.974436541378">
        <ele>79.4</ele>
        <time>2017-12-25T12:33:21Z</time>
      </trkpt>
      <trkpt lat="62.632819286937" lon="17.974475014299">
        <ele>79.6</ele>
        <time>2017-12-25T12:33:22Z</time>
      </trkpt>
      <trkpt lat="62.63279305159" lon="17.974502339293">
        <ele>79.6</ele>
        <time>2017-12-25T12:33:23Z</time>
      </trkpt>
      <trkpt lat="62.632767822071" lon="17.974514995962">
        <ele>79.8</ele>
        <time>2017-12-25T12:33:24Z</time>
      </trkpt>
      <trkpt lat="62.6327335401" lon="17.974516756161">
        <ele>79.8</ele>
        <time>2017-12-25T12:33:25Z</time>
      </trkpt>
      <trkpt lat="62.632702778527" lon="17.974502004017">
        <ele>80</ele>
        <time>2017-12-25T12:33:26Z</time>
      </trkpt>
      <trkpt lat="62.632676375542" lon="17.974477696507">
        <ele>80</ele>
        <time>2017-12-25T12:33:27Z</time>
      </trkpt>
      <trkpt lat="62.632652403308" lon="17.974451544979">
        <ele>80</ele>
        <time>2017-12-25T12:33:28Z</time>
      </trkpt>
      <trkpt lat="62.632627509065" lon="17.974423968528">
        <ele>80</ele>
        <time>2017-12-25T12:33:29Z</time>
      </trkpt>
      <trkpt lat="62.632601441356" lon="17.974394548059">
        <ele>80</ele>
        <time>2017-12-25T12:33:30Z</time>
      </trkpt>
      <trkpt lat="62.632576128018" lon="17.974366468694">
        <ele>80</ele>
        <time>2017-12-25T12:33:31Z</time>
      </trkpt>
      <trkpt lat="62.632552155784" lon="17.974336880587">
        <ele>80</ele>
        <time>2017-12-25T12:33:32Z</time>
      </trkpt>
      <trkpt lat="62.632529440835" lon="17.974309639412">
        <ele>80.2</ele>
        <time>2017-12-25T12:33:33Z</time>
      </trkpt>
      <trkpt lat="62.63250639061" lon="17.974283571703">
        <ele>80.2</ele>
        <time>2017-12-25T12:33:34Z</time>
      </trkpt>
      <trkpt lat="62.632480155263" lon="17.974258761279">
        <ele>80</ele>
        <time>2017-12-25T12:33:35Z</time>
      </trkpt>
      <trkpt lat="62.632455763934" lon="17.974234286131">
        <ele>80</ele>
        <time>2017-12-25T12:33:36Z</time>
      </trkpt>
      <trkpt lat="62.632431456424" lon="17.9742050333">
        <ele>80</ele>
        <time>2017-12-25T12:33:37Z</time>
      </trkpt>
      <trkpt lat="62.632406813638" lon="17.974179217048">
        <ele>80</ele>
        <time>2017-12-25T12:33:38Z</time>
      </trkpt>
      <trkpt lat="62.632385942707" lon="17.974151137683">
        <ele>80</ele>
        <time>2017-12-25T12:33:39Z</time>
      </trkpt>
      <trkpt lat="62.632362976301" lon="17.974122723042">
        <ele>80</ele>
        <time>2017-12-25T12:33:40Z</time>
      </trkpt>
      <trkpt lat="62.632337411506" lon="17.974094978953">
        <ele>80</ele>
        <time>2017-12-25T12:33:41Z</time>
      </trkpt>
      <trkpt lat="62.632311343797" lon="17.974062038086">
        <ele>80</ele>
        <time>2017-12-25T12:33:42Z</time>
      </trkpt>
      <trkpt lat="62.632286868649" lon="17.974034210178">
        <ele>80</ele>
        <time>2017-12-25T12:33:43Z</time>
      </trkpt>
      <trkpt lat="62.632263399329" lon="17.974004957347">
        <ele>80</ele>
        <time>2017-12-25T12:33:44Z</time>
      </trkpt>
      <trkpt lat="62.632238085991" lon="17.97397620743">
        <ele>80</ele>
        <time>2017-12-25T12:33:45Z</time>
      </trkpt>
      <trkpt lat="62.632212437377" lon="17.973952486653">
        <ele>80</ele>
        <time>2017-12-25T12:33:46Z</time>
      </trkpt>
      <trkpt lat="62.632183771279" lon="17.973919629605">
        <ele>80</ele>
        <time>2017-12-25T12:33:47Z</time>
      </trkpt>
      <trkpt lat="62.632158038846" lon="17.973883084521">
        <ele>80</ele>
        <time>2017-12-25T12:33:48Z</time>
      </trkpt>
      <trkpt lat="62.632131635861" lon="17.973859782839">
        <ele>80</ele>
        <time>2017-12-25T12:33:49Z</time>
      </trkpt>
      <trkpt lat="62.632102550668" lon="17.973827763981">
        <ele>79.8</ele>
        <time>2017-12-25T12:33:50Z</time>
      </trkpt>
      <trkpt lat="62.632075393312" lon="17.973801696272">
        <ele>79.8</ele>
        <time>2017-12-25T12:33:51Z</time>
      </trkpt>
      <trkpt lat="62.632049996155" lon="17.973773030174">
        <ele>79.8</ele>
        <time>2017-12-25T12:33:52Z</time>
      </trkpt>
      <trkpt lat="62.632021330057" lon="17.973743106791">
        <ele>79.8</ele>
        <time>2017-12-25T12:33:53Z</time>
      </trkpt>
      <trkpt lat="62.631991322855" lon="17.973715614159">
        <ele>79.8</ele>
        <time>2017-12-25T12:33:54Z</time>
      </trkpt>
      <trkpt lat="62.631957711436" lon="17.973686445147">
        <ele>79.8</ele>
        <time>2017-12-25T12:33:55Z</time>
      </trkpt>
      <trkpt lat="62.631930218804" lon="17.973658365782">
        <ele>79.8</ele>
        <time>2017-12-25T12:33:56Z</time>
      </trkpt>
      <trkpt lat="62.631903983457" lon="17.973627017476">
        <ele>79.8</ele>
        <time>2017-12-25T12:33:57Z</time>
      </trkpt>
      <trkpt lat="62.631877077558" lon="17.9735931546">
        <ele>79.6</ele>
        <time>2017-12-25T12:33:58Z</time>
      </trkpt>
      <trkpt lat="62.631852183315" lon="17.973560800466">
        <ele>79.6</ele>
        <time>2017-12-25T12:33:59Z</time>
      </trkpt>
      <trkpt lat="62.631824606864" lon="17.973524171563">
        <ele>79.8</ele>
        <time>2017-12-25T12:34:00Z</time>
      </trkpt>
      <trkpt lat="62.631800886087" lon="17.973493242352">
        <ele>79.8</ele>
        <time>2017-12-25T12:34:01Z</time>
      </trkpt>
      <trkpt lat="62.631776494758" lon="17.973454182698">
        <ele>79.6</ele>
        <time>2017-12-25T12:34:02Z</time>
      </trkpt>
      <trkpt lat="62.631754031266" lon="17.973419062537">
        <ele>79.8</ele>
        <time>2017-12-25T12:34:03Z</time>
      </trkpt>
      <trkpt lat="62.631730813403" lon="17.973385954032">
        <ele>79.6</ele>
        <time>2017-12-25T12:34:04Z</time>
      </trkpt>
      <trkpt lat="62.631703069314" lon="17.973346810559">
        <ele>79.6</ele>
        <time>2017-12-25T12:34:05Z</time>
      </trkpt>
      <trkpt lat="62.631677755976" lon="17.97331236095">
        <ele>79.6</ele>
        <time>2017-12-25T12:34:06Z</time>
      </trkpt>
      <trkpt lat="62.631650514801" lon="17.973275899685">
        <ele>79.6</ele>
        <time>2017-12-25T12:34:07Z</time>
      </trkpt>
      <trkpt lat="62.631623105988" lon="17.973237091488">
        <ele>79.6</ele>
        <time>2017-12-25T12:34:08Z</time>
      </trkpt>
      <trkpt lat="62.631600977772" lon="17.973202474241">
        <ele>79.6</ele>
        <time>2017-12-25T12:34:09Z</time>
      </trkpt>
      <trkpt lat="62.631572060217" lon="17.973153356307">
        <ele>79.6</ele>
        <time>2017-12-25T12:34:10Z</time>
      </trkpt>
      <trkpt lat="62.631548590897" lon="17.973104908925">
        <ele>79.4</ele>
        <time>2017-12-25T12:34:11Z</time>
      </trkpt>
      <trkpt lat="62.631525037758" lon="17.973059059932">
        <ele>79.2</ele>
        <time>2017-12-25T12:34:12Z</time>
      </trkpt>
      <trkpt lat="62.631499975877" lon="17.973009103808">
        <ele>79</ele>
        <time>2017-12-25T12:34:13Z</time>
      </trkpt>
      <trkpt lat="62.631476674195" lon="17.972960153512">
        <ele>78.8</ele>
        <time>2017-12-25T12:34:14Z</time>
      </trkpt>
      <trkpt lat="62.631453791608" lon="17.97290835337">
        <ele>78.8</ele>
        <time>2017-12-25T12:34:15Z</time>
      </trkpt>
      <trkpt lat="62.631434177962" lon="17.9728555474">
        <ele>78.6</ele>
        <time>2017-12-25T12:34:16Z</time>
      </trkpt>
      <trkpt lat="62.63141506723" lon="17.972801232688">
        <ele>78.4</ele>
        <time>2017-12-25T12:34:17Z</time>
      </trkpt>
      <trkpt lat="62.631395034489" lon="17.972746247424">
        <ele>78.2</ele>
        <time>2017-12-25T12:34:18Z</time>
      </trkpt>
      <trkpt lat="62.631374917929" lon="17.972696542757">
        <ele>78.2</ele>
        <time>2017-12-25T12:34:19Z</time>
      </trkpt>
      <trkpt lat="62.631352538256" lon="17.972639378199">
        <ele>78</ele>
        <time>2017-12-25T12:34:20Z</time>
      </trkpt>
      <trkpt lat="62.631332756972" lon="17.972590008808">
        <ele>77.8</ele>
        <time>2017-12-25T12:34:21Z</time>
      </trkpt>
      <trkpt lat="62.631311550765" lon="17.9725370352">
        <ele>77.6</ele>
        <time>2017-12-25T12:34:22Z</time>
      </trkpt>
      <trkpt lat="62.63129017692" lon="17.97248255285">
        <ele>77.6</ele>
        <time>2017-12-25T12:34:23Z</time>
      </trkpt>
      <trkpt lat="62.631273496939" lon="17.972433434916">
        <ele>77.6</ele>
        <time>2017-12-25T12:34:24Z</time>
      </trkpt>
      <trkpt lat="62.631253631836" lon="17.972372079408">
        <ele>77.4</ele>
        <time>2017-12-25T12:34:25Z</time>
      </trkpt>
      <trkpt lat="62.631237706226" lon="17.972311478271">
        <ele>77.2</ele>
        <time>2017-12-25T12:34:26Z</time>
      </trkpt>
      <trkpt lat="62.63122060715" lon="17.972248362564">
        <ele>77.2</ele>
        <time>2017-12-25T12:34:27Z</time>
      </trkpt>
      <trkpt lat="62.631202921341" lon="17.972186587961">
        <ele>76.8</ele>
        <time>2017-12-25T12:34:28Z</time>
      </trkpt>
      <trkpt lat="62.631186325179" lon="17.972130596869">
        <ele>76.6</ele>
        <time>2017-12-25T12:34:29Z</time>
      </trkpt>
      <trkpt lat="62.631169980474" lon="17.972071672112">
        <ele>76.4</ele>
        <time>2017-12-25T12:34:30Z</time>
      </trkpt>
      <trkpt lat="62.631155060692" lon="17.972012998812">
        <ele>76.2</ele>
        <time>2017-12-25T12:34:31Z</time>
      </trkpt>
      <trkpt lat="62.6311409791" lon="17.971950386019">
        <ele>76</ele>
        <time>2017-12-25T12:34:32Z</time>
      </trkpt>
      <trkpt lat="62.631127651879" lon="17.971891796538">
        <ele>76</ele>
        <time>2017-12-25T12:34:33Z</time>
      </trkpt>
      <trkpt lat="62.631114743753" lon="17.971831111582">
        <ele>75.6</ele>
        <time>2017-12-25T12:34:34Z</time>
      </trkpt>
      <trkpt lat="62.631099823971" lon="17.971762463821">
        <ele>75.6</ele>
        <time>2017-12-25T12:34:35Z</time>
      </trkpt>
      <trkpt lat="62.631086664388" lon="17.971702868512">
        <ele>75.6</ele>
        <time>2017-12-25T12:34:36Z</time>
      </trkpt>
      <trkpt lat="62.631071576968" lon="17.971636651502">
        <ele>75.4</ele>
        <time>2017-12-25T12:34:37Z</time>
      </trkpt>
      <trkpt lat="62.631057830652" lon="17.971569093388">
        <ele>75.2</ele>
        <time>2017-12-25T12:34:38Z</time>
      </trkpt>
      <trkpt lat="62.63104626363" lon="17.971512012649">
        <ele>75.2</ele>
        <time>2017-12-25T12:34:39Z</time>
      </trkpt>
      <trkpt lat="62.631031427667" lon="17.971438503386">
        <ele>75.2</ele>
        <time>2017-12-25T12:34:40Z</time>
      </trkpt>
      <trkpt lat="62.631019357731" lon="17.971373711299">
        <ele>74.8</ele>
        <time>2017-12-25T12:34:41Z</time>
      </trkpt>
      <trkpt lat="62.631008964175" lon="17.971306656099">
        <ele>74.6</ele>
        <time>2017-12-25T12:34:42Z</time>
      </trkpt>
      <trkpt lat="62.631001169008" lon="17.971240103813">
        <ele>74.6</ele>
        <time>2017-12-25T12:34:43Z</time>
      </trkpt>
      <trkpt lat="62.630994966402" lon="17.971177742477">
        <ele>74.6</ele>
        <time>2017-12-25T12:34:44Z</time>
      </trkpt>
      <trkpt lat="62.630987338873" lon="17.971108424164">
        <ele>74.6</ele>
        <time>2017-12-25T12:34:45Z</time>
      </trkpt>
      <trkpt lat="62.630979376068" lon="17.971043045344">
        <ele>74.6</ele>
        <time>2017-12-25T12:34:46Z</time>
      </trkpt>
      <trkpt lat="62.630969820702" lon="17.970974984316">
        <ele>74.4</ele>
        <time>2017-12-25T12:34:47Z</time>
      </trkpt>
      <trkpt lat="62.630961187345" lon="17.970908934944">
        <ele>74.4</ele>
        <time>2017-12-25T12:34:48Z</time>
      </trkpt>
      <trkpt lat="62.630952889264" lon="17.970846489789">
        <ele>74.2</ele>
        <time>2017-12-25T12:34:49Z</time>
      </trkpt>
      <trkpt lat="62.630943250079" lon="17.970771974698">
        <ele>74</ele>
        <time>2017-12-25T12:34:50Z</time>
      </trkpt>
      <trkpt lat="62.630935454912" lon="17.970705254774">
        <ele>74</ele>
        <time>2017-12-25T12:34:51Z</time>
      </trkpt>
      <trkpt lat="62.630927156831" lon="17.970636607013">
        <ele>73.8</ele>
        <time>2017-12-25T12:34:52Z</time>
      </trkpt>
      <trkpt lat="62.63091802056" lon="17.970566282872">
        <ele>73.6</ele>
        <time>2017-12-25T12:34:53Z</time>
      </trkpt>
      <trkpt lat="62.630910393031" lon="17.97050107169">
        <ele>73.6</ele>
        <time>2017-12-25T12:34:54Z</time>
      </trkpt>
      <trkpt lat="62.630903268416" lon="17.970419515803">
        <ele>73.4</ele>
        <time>2017-12-25T12:34:55Z</time>
      </trkpt>
      <trkpt lat="62.630898071638" lon="17.970350951861">
        <ele>73.2</ele>
        <time>2017-12-25T12:34:56Z</time>
      </trkpt>
      <trkpt lat="62.630895137973" lon="17.970292110923">
        <ele>73.2</ele>
        <time>2017-12-25T12:34:57Z</time>
      </trkpt>
      <trkpt lat="62.630890527928" lon="17.970225893913">
        <ele>73</ele>
        <time>2017-12-25T12:34:59Z</time>
      </trkpt>
      <trkpt lat="62.630889186824" lon="17.970204436249">
        <ele>73</ele>
        <time>2017-12-25T12:35:00Z</time>
      </trkpt>
      <trkpt lat="62.630885079693" lon="17.970190187019">
        <ele>73</ele>
        <time>2017-12-25T12:35:01Z</time>
      </trkpt>
      <trkpt lat="62.630879799096" lon="17.970185493155">
        <ele>73</ele>
        <time>2017-12-25T12:35:02Z</time>
      </trkpt>
      <trkpt lat="62.630873428852" lon="17.970184990241">
        <ele>73</ele>
        <time>2017-12-25T12:35:03Z</time>
      </trkpt>
      <trkpt lat="62.630866555694" lon="17.970181637481">
        <ele>73</ele>
        <time>2017-12-25T12:35:04Z</time>
      </trkpt>
      <trkpt lat="62.630865549866" lon="17.970173423219">
        <ele>73</ele>
        <time>2017-12-25T12:35:05Z</time>
      </trkpt>
      <trkpt lat="62.630867393884" lon="17.97018339768">
        <ele>72.8</ele>
        <time>2017-12-25T12:35:06Z</time>
      </trkpt>
      <trkpt lat="62.631218260218" lon="17.969984662831">
        <ele>72.6</ele>
        <time>2017-12-25T12:37:36Z</time>
      </trkpt>
      <trkpt lat="62.63124659104" lon="17.969965552099">
        <ele>72.6</ele>
        <time>2017-12-25T12:37:37Z</time>
      </trkpt>
      <trkpt lat="62.631283639038" lon="17.96994283715">
        <ele>72.4</ele>
        <time>2017-12-25T12:37:38Z</time>
      </trkpt>
      <trkpt lat="62.631316831362" lon="17.969923977875">
        <ele>72.4</ele>
        <time>2017-12-25T12:37:39Z</time>
      </trkpt>
      <trkpt lat="62.631341557967" lon="17.969906375885">
        <ele>72.4</ele>
        <time>2017-12-25T12:37:40Z</time>
      </trkpt>
      <trkpt lat="62.631377935413" lon="17.969887600429">
        <ele>72.6</ele>
        <time>2017-12-25T12:37:41Z</time>
      </trkpt>
      <trkpt lat="62.631411043918" lon="17.969868741154">
        <ele>72.6</ele>
        <time>2017-12-25T12:37:42Z</time>
      </trkpt>
      <trkpt lat="62.631445661165" lon="17.969868154421">
        <ele>72.4</ele>
        <time>2017-12-25T12:37:43Z</time>
      </trkpt>
      <trkpt lat="62.631476590376" lon="17.969843176359">
        <ele>72.4</ele>
        <time>2017-12-25T12:37:44Z</time>
      </trkpt>
      <trkpt lat="62.631509279786" lon="17.969820377591">
        <ele>72.2</ele>
        <time>2017-12-25T12:37:45Z</time>
      </trkpt>
      <trkpt lat="62.631543226481" lon="17.969802775601">
        <ele>72.2</ele>
        <time>2017-12-25T12:37:46Z</time>
      </trkpt>
      <trkpt lat="62.631575832072" lon="17.969782239946">
        <ele>72.2</ele>
        <time>2017-12-25T12:37:47Z</time>
      </trkpt>
      <trkpt lat="62.631610281681" lon="17.969763632128">
        <ele>72.6</ele>
        <time>2017-12-25T12:37:48Z</time>
      </trkpt>
      <trkpt lat="62.631641713806" lon="17.96973664241">
        <ele>72.4</ele>
        <time>2017-12-25T12:37:49Z</time>
      </trkpt>
      <trkpt lat="62.631675409044" lon="17.96971149671">
        <ele>72.4</ele>
        <time>2017-12-25T12:37:50Z</time>
      </trkpt>
      <trkpt lat="62.631707511721" lon="17.969681740965">
        <ele>72</ele>
        <time>2017-12-25T12:37:51Z</time>
      </trkpt>
      <trkpt lat="62.631742883339" lon="17.96964276513">
        <ele>71.8</ele>
        <time>2017-12-25T12:37:52Z</time>
      </trkpt>
      <trkpt lat="62.631772722903" lon="17.969605298037">
        <ele>71.4</ele>
        <time>2017-12-25T12:37:53Z</time>
      </trkpt>
      <trkpt lat="62.631810609091" lon="17.969579984699">
        <ele>71.6</ele>
        <time>2017-12-25T12:37:54Z</time>
      </trkpt>
      <trkpt lat="62.631836928257" lon="17.96956313708">
        <ele>71.6</ele>
        <time>2017-12-25T12:37:55Z</time>
      </trkpt>
      <trkpt lat="62.63187355716" lon="17.969549893678">
        <ele>71.6</ele>
        <time>2017-12-25T12:37:56Z</time>
      </trkpt>
      <trkpt lat="62.631903899638" lon="17.969543691072">
        <ele>71.4</ele>
        <time>2017-12-25T12:37:57Z</time>
      </trkpt>
      <trkpt lat="62.631936169953" lon="17.969538913389">
        <ele>71.4</ele>
        <time>2017-12-25T12:37:58Z</time>
      </trkpt>
      <trkpt lat="62.631966847707" lon="17.969539081027">
        <ele>71.2</ele>
        <time>2017-12-25T12:37:59Z</time>
      </trkpt>
      <trkpt lat="62.631996268176" lon="17.969534890077">
        <ele>71</ele>
        <time>2017-12-25T12:38:00Z</time>
      </trkpt>
      <trkpt lat="62.632029544319" lon="17.969536398819">
        <ele>71</ele>
        <time>2017-12-25T12:38:01Z</time>
      </trkpt>
      <trkpt lat="62.63205879715" lon="17.969530112394">
        <ele>71</ele>
        <time>2017-12-25T12:38:02Z</time>
      </trkpt>
      <trkpt lat="62.632090983646" lon="17.969526759634">
        <ele>71.2</ele>
        <time>2017-12-25T12:38:03Z</time>
      </trkpt>
      <trkpt lat="62.632121074667" lon="17.969521479037">
        <ele>71.4</ele>
        <time>2017-12-25T12:38:04Z</time>
      </trkpt>
      <trkpt lat="62.632154686086" lon="17.969514270603">
        <ele>71.4</ele>
        <time>2017-12-25T12:38:05Z</time>
      </trkpt>
      <trkpt lat="62.63219039298" lon="17.969507732721">
        <ele>71.6</ele>
        <time>2017-12-25T12:38:06Z</time>
      </trkpt>
      <trkpt lat="62.632221657467" lon="17.96949524369">
        <ele>72</ele>
        <time>2017-12-25T12:38:07Z</time>
      </trkpt>
      <trkpt lat="62.632256274714" lon="17.969489041084">
        <ele>71.8</ele>
        <time>2017-12-25T12:38:08Z</time>
      </trkpt>
      <trkpt lat="62.632285779002" lon="17.969477725519">
        <ele>71.6</ele>
        <time>2017-12-25T12:38:09Z</time>
      </trkpt>
      <trkpt lat="62.632315953842" lon="17.969475797682">
        <ele>71.6</ele>
        <time>2017-12-25T12:38:10Z</time>
      </trkpt>
      <trkpt lat="62.632351074003" lon="17.969471271456">
        <ele>71.6</ele>
        <time>2017-12-25T12:38:11Z</time>
      </trkpt>
      <trkpt lat="62.63238317668" lon="17.969472444922">
        <ele>71.4</ele>
        <time>2017-12-25T12:38:12Z</time>
      </trkpt>
      <trkpt lat="62.632414776443" lon="17.969475881501">
        <ele>71.6</ele>
        <time>2017-12-25T12:38:13Z</time>
      </trkpt>
      <trkpt lat="62.632445538016" lon="17.969471271456">
        <ele>71.6</ele>
        <time>2017-12-25T12:38:14Z</time>
      </trkpt>
      <trkpt lat="62.632477137779" lon="17.969474121302">
        <ele>71.8</ele>
        <time>2017-12-25T12:38:15Z</time>
      </trkpt>
      <trkpt lat="62.632509240456" lon="17.969472864017">
        <ele>71.8</ele>
        <time>2017-12-25T12:38:16Z</time>
      </trkpt>
      <trkpt lat="62.632543354789" lon="17.969477893157">
        <ele>71.8</ele>
        <time>2017-12-25T12:38:17Z</time>
      </trkpt>
      <trkpt lat="62.63257344581" lon="17.969479737175">
        <ele>71.8</ele>
        <time>2017-12-25T12:38:18Z</time>
      </trkpt>
      <trkpt lat="62.632606721953" lon="17.969487448523">
        <ele>71.8</ele>
        <time>2017-12-25T12:38:19Z</time>
      </trkpt>
      <trkpt lat="62.632635974784" lon="17.969492393844">
        <ele>71.8</ele>
        <time>2017-12-25T12:38:20Z</time>
      </trkpt>
      <trkpt lat="62.632666401081" lon="17.969495662785">
        <ele>71.8</ele>
        <time>2017-12-25T12:38:21Z</time>
      </trkpt>
      <trkpt lat="62.632696827378" lon="17.969507313626">
        <ele>71.8</ele>
        <time>2017-12-25T12:38:22Z</time>
      </trkpt>
      <trkpt lat="62.632726583123" lon="17.969512761861">
        <ele>71.8</ele>
        <time>2017-12-25T12:38:23Z</time>
      </trkpt>
      <trkpt lat="62.632758099067" lon="17.969522652503">
        <ele>72</ele>
        <time>2017-12-25T12:38:24Z</time>
      </trkpt>
      <trkpt lat="62.632782322758" lon="17.969525921444">
        <ele>71.8</ele>
        <time>2017-12-25T12:38:25Z</time>
      </trkpt>
      <trkpt lat="62.6328173591" lon="17.969528855109">
        <ele>71.8</ele>
        <time>2017-12-25T12:38:26Z</time>
      </trkpt>
      <trkpt lat="62.632846276655" lon="17.969531872593">
        <ele>72.2</ele>
        <time>2017-12-25T12:38:27Z</time>
      </trkpt>
      <trkpt lat="62.632873434011" lon="17.969533213697">
        <ele>72.2</ele>
        <time>2017-12-25T12:38:28Z</time>
      </trkpt>
      <trkpt lat="62.632901429557" lon="17.969540086855">
        <ele>72.2</ele>
        <time>2017-12-25T12:38:29Z</time>
      </trkpt>
      <trkpt lat="62.632927245809" lon="17.969544948357">
        <ele>72.2</ele>
        <time>2017-12-25T12:38:30Z</time>
      </trkpt>
      <trkpt lat="62.632958258839" lon="17.969550480411">
        <ele>72.4</ele>
        <time>2017-12-25T12:38:31Z</time>
      </trkpt>
      <trkpt lat="62.632986589661" lon="17.969554587542">
        <ele>72.6</ele>
        <time>2017-12-25T12:38:32Z</time>
      </trkpt>
      <trkpt lat="62.633016177768" lon="17.9695614607">
        <ele>72.6</ele>
        <time>2017-12-25T12:38:33Z</time>
      </trkpt>
      <trkpt lat="62.633047190798" lon="17.969569339686">
        <ele>72.6</ele>
        <time>2017-12-25T12:38:34Z</time>
      </trkpt>
      <trkpt lat="62.633074599611" lon="17.969574704102">
        <ele>72.6</ele>
        <time>2017-12-25T12:38:35Z</time>
      </trkpt>
      <trkpt lat="62.633107708116" lon="17.969585600572">
        <ele>72.8</ele>
        <time>2017-12-25T12:38:36Z</time>
      </trkpt>
      <trkpt lat="62.633135200748" lon="17.969591300264">
        <ele>72.8</ele>
        <time>2017-12-25T12:38:37Z</time>
      </trkpt>
      <trkpt lat="62.633164956493" lon="17.969601442363">
        <ele>72.6</ele>
        <time>2017-12-25T12:38:38Z</time>
      </trkpt>
      <trkpt lat="62.633193790229" lon="17.969610746272">
        <ele>72.8</ele>
        <time>2017-12-25T12:38:39Z</time>
      </trkpt>
      <trkpt lat="62.633216672816" lon="17.969612506471">
        <ele>72.8</ele>
        <time>2017-12-25T12:38:40Z</time>
      </trkpt>
      <trkpt lat="62.63325154152" lon="17.969623822036">
        <ele>72.8</ele>
        <time>2017-12-25T12:38:41Z</time>
      </trkpt>
      <trkpt lat="62.633282051636" lon="17.969638406542">
        <ele>72.8</ele>
        <time>2017-12-25T12:38:42Z</time>
      </trkpt>
      <trkpt lat="62.633310633915" lon="17.969666485907">
        <ele>73</ele>
        <time>2017-12-25T12:38:43Z</time>
      </trkpt>
      <trkpt lat="62.633336785443" lon="17.969701019335">
        <ele>72.8</ele>
        <time>2017-12-25T12:38:44Z</time>
      </trkpt>
      <trkpt lat="62.633359332754" lon="17.969738486428">
        <ele>72.8</ele>
        <time>2017-12-25T12:38:45Z</time>
      </trkpt>
      <trkpt lat="62.633379281676" lon="17.969787939638">
        <ele>73</ele>
        <time>2017-12-25T12:38:46Z</time>
      </trkpt>
      <trkpt lat="62.633392692716" lon="17.969836135563">
        <ele>73.4</ele>
        <time>2017-12-25T12:38:47Z</time>
      </trkpt>
      <trkpt lat="62.633403421548" lon="17.969898245442">
        <ele>73.4</ele>
        <time>2017-12-25T12:38:48Z</time>
      </trkpt>
      <trkpt lat="62.63341163581" lon="17.969953482163">
        <ele>73.6</ele>
        <time>2017-12-25T12:38:49Z</time>
      </trkpt>
      <trkpt lat="62.633417586959" lon="17.970010227626">
        <ele>73.8</ele>
        <time>2017-12-25T12:38:50Z</time>
      </trkpt>
      <trkpt lat="62.633418928063" lon="17.970072002229">
        <ele>74</ele>
        <time>2017-12-25T12:38:51Z</time>
      </trkpt>
      <trkpt lat="62.633420688262" lon="17.970127071312">
        <ele>73.8</ele>
        <time>2017-12-25T12:38:52Z</time>
      </trkpt>
      <trkpt lat="62.633421107357" lon="17.970189935562">
        <ele>74</ele>
        <time>2017-12-25T12:38:53Z</time>
      </trkpt>
      <trkpt lat="62.633424041022" lon="17.970248189767">
        <ele>74.2</ele>
        <time>2017-12-25T12:38:54Z</time>
      </trkpt>
      <trkpt lat="62.633427980515" lon="17.970303007393">
        <ele>74.2</ele>
        <time>2017-12-25T12:38:55Z</time>
      </trkpt>
      <trkpt lat="62.633427812877" lon="17.970375846104">
        <ele>74.4</ele>
        <time>2017-12-25T12:38:56Z</time>
      </trkpt>
      <trkpt lat="62.633433344931" lon="17.970422700925">
        <ele>74.4</ele>
        <time>2017-12-25T12:38:57Z</time>
      </trkpt>
      <trkpt lat="62.633435356587" lon="17.970485229899">
        <ele>74.4</ele>
        <time>2017-12-25T12:38:58Z</time>
      </trkpt>
      <trkpt lat="62.633437200605" lon="17.97054381938">
        <ele>74.6</ele>
        <time>2017-12-25T12:38:59Z</time>
      </trkpt>
      <trkpt lat="62.633439212261" lon="17.970602744137">
        <ele>74.6</ele>
        <time>2017-12-25T12:39:00Z</time>
      </trkpt>
      <trkpt lat="62.633439715175" lon="17.970660998342">
        <ele>74.8</ele>
        <time>2017-12-25T12:39:01Z</time>
      </trkpt>
      <trkpt lat="62.633441894469" lon="17.970721850936">
        <ele>74.8</ele>
        <time>2017-12-25T12:39:02Z</time>
      </trkpt>
      <trkpt lat="62.633440301908" lon="17.970788151765">
        <ele>74.8</ele>
        <time>2017-12-25T12:39:03Z</time>
      </trkpt>
      <trkpt lat="62.633442229745" lon="17.97084305321">
        <ele>75</ele>
        <time>2017-12-25T12:39:04Z</time>
      </trkpt>
      <trkpt lat="62.633442313564" lon="17.970904995451">
        <ele>75</ele>
        <time>2017-12-25T12:39:05Z</time>
      </trkpt>
      <trkpt lat="62.633446504514" lon="17.970967692063">
        <ele>75.4</ele>
        <time>2017-12-25T12:39:06Z</time>
      </trkpt>
      <trkpt lat="62.633445247229" lon="17.971033154702">
        <ele>75.4</ele>
        <time>2017-12-25T12:39:07Z</time>
      </trkpt>
      <trkpt lat="62.633444744315" lon="17.971090235441">
        <ele>75.6</ele>
        <time>2017-12-25T12:39:08Z</time>
      </trkpt>
      <trkpt lat="62.633444660496" lon="17.971149076379">
        <ele>75.8</ele>
        <time>2017-12-25T12:39:09Z</time>
      </trkpt>
      <trkpt lat="62.633442816478" lon="17.971202217625">
        <ele>76</ele>
        <time>2017-12-25T12:39:10Z</time>
      </trkpt>
      <trkpt lat="62.633442062107" lon="17.971267261169">
        <ele>76</ele>
        <time>2017-12-25T12:39:11Z</time>
      </trkpt>
      <trkpt lat="62.633438876985" lon="17.971334819283">
        <ele>76</ele>
        <time>2017-12-25T12:39:12Z</time>
      </trkpt>
      <trkpt lat="62.633436697691" lon="17.97139458223">
        <ele>76.2</ele>
        <time>2017-12-25T12:39:13Z</time>
      </trkpt>
      <trkpt lat="62.633435440406" lon="17.97145828467">
        <ele>76.4</ele>
        <time>2017-12-25T12:39:14Z</time>
      </trkpt>
      <trkpt lat="62.633431333275" lon="17.971517879979">
        <ele>76.6</ele>
        <time>2017-12-25T12:39:15Z</time>
      </trkpt>
      <trkpt lat="62.633427980515" lon="17.971580073677">
        <ele>76.6</ele>
        <time>2017-12-25T12:39:16Z</time>
      </trkpt>
      <trkpt lat="62.633424041022" lon="17.971645117221">
        <ele>76.6</ele>
        <time>2017-12-25T12:39:17Z</time>
      </trkpt>
      <trkpt lat="62.633420185348" lon="17.971708400566">
        <ele>76.8</ele>
        <time>2017-12-25T12:39:18Z</time>
      </trkpt>
      <trkpt lat="62.633414569475" lon="17.971776629232">
        <ele>76.8</ele>
        <time>2017-12-25T12:39:19Z</time>
      </trkpt>
      <trkpt lat="62.633409372697" lon="17.971835889265">
        <ele>76.8</ele>
        <time>2017-12-25T12:39:20Z</time>
      </trkpt>
      <trkpt lat="62.633403170091" lon="17.97190252537">
        <ele>77</ele>
        <time>2017-12-25T12:39:21Z</time>
      </trkpt>
      <trkpt lat="62.633395794019" lon="17.971964970525">
        <ele>77</ele>
        <time>2017-12-25T12:39:22Z</time>
      </trkpt>
      <trkpt lat="62.633389926689" lon="17.972021883626">
        <ele>77</ele>
        <time>2017-12-25T12:39:23Z</time>
      </trkpt>
      <trkpt lat="62.633382634436" lon="17.972083155315">
        <ele>77.2</ele>
        <time>2017-12-25T12:39:24Z</time>
      </trkpt>
      <trkpt lat="62.633375928916" lon="17.972129842498">
        <ele>77.2</ele>
        <time>2017-12-25T12:39:25Z</time>
      </trkpt>
      <trkpt lat="62.633367798473" lon="17.972193880214">
        <ele>77.2</ele>
        <time>2017-12-25T12:39:26Z</time>
      </trkpt>
      <trkpt lat="62.633358410745" lon="17.97225624155">
        <ele>77.2</ele>
        <time>2017-12-25T12:39:27Z</time>
      </trkpt>
      <trkpt lat="62.633352040501" lon="17.972310891538">
        <ele>77.6</ele>
        <time>2017-12-25T12:39:28Z</time>
      </trkpt>
      <trkpt lat="62.633343407144" lon="17.97236017711">
        <ele>77.6</ele>
        <time>2017-12-25T12:39:29Z</time>
      </trkpt>
      <trkpt lat="62.633333348864" lon="17.972425136835">
        <ele>77.8</ele>
        <time>2017-12-25T12:39:30Z</time>
      </trkpt>
      <trkpt lat="62.633322452394" lon="17.972483055764">
        <ele>78</ele>
        <time>2017-12-25T12:39:31Z</time>
      </trkpt>
      <trkpt lat="62.633309628087" lon="17.972541393788">
        <ele>78.2</ele>
        <time>2017-12-25T12:39:32Z</time>
      </trkpt>
      <trkpt lat="62.633301413825" lon="17.972598642165">
        <ele>78.2</ele>
        <time>2017-12-25T12:39:33Z</time>
      </trkpt>
      <trkpt lat="62.633289343889" lon="17.972655052352">
        <ele>78.2</ele>
        <time>2017-12-25T12:39:34Z</time>
      </trkpt>
      <trkpt lat="62.633280794351" lon="17.972708109779">
        <ele>78.4</ele>
        <time>2017-12-25T12:39:35Z</time>
      </trkpt>
      <trkpt lat="62.633268808234" lon="17.972769716744">
        <ele>78.6</ele>
        <time>2017-12-25T12:39:36Z</time>
      </trkpt>
      <trkpt lat="62.633254810461" lon="17.972827635673">
        <ele>78.6</ele>
        <time>2017-12-25T12:39:37Z</time>
      </trkpt>
      <trkpt lat="62.633243411077" lon="17.972881698928">
        <ele>78.8</ele>
        <time>2017-12-25T12:39:38Z</time>
      </trkpt>
      <trkpt lat="62.63322891039" lon="17.972940456047">
        <ele>79</ele>
        <time>2017-12-25T12:39:39Z</time>
      </trkpt>
      <trkpt lat="62.633217343368" lon="17.972983706651">
        <ele>79</ele>
        <time>2017-12-25T12:39:40Z</time>
      </trkpt>
      <trkpt lat="62.633205273432" lon="17.973045062159">
        <ele>79</ele>
        <time>2017-12-25T12:39:41Z</time>
      </trkpt>
      <trkpt lat="62.633192700582" lon="17.973099795966">
        <ele>79.2</ele>
        <time>2017-12-25T12:39:42Z</time>
      </trkpt>
      <trkpt lat="62.633180798284" lon="17.973151931384">
        <ele>79.2</ele>
        <time>2017-12-25T12:39:43Z</time>
      </trkpt>
      <trkpt lat="62.633167890158" lon="17.973209179761">
        <ele>79.2</ele>
        <time>2017-12-25T12:39:44Z</time>
      </trkpt>
      <trkpt lat="62.633155401127" lon="17.973258130057">
        <ele>79.4</ele>
        <time>2017-12-25T12:39:45Z</time>
      </trkpt>
      <trkpt lat="62.633142828277" lon="17.973317054814">
        <ele>79.4</ele>
        <time>2017-12-25T12:39:46Z</time>
      </trkpt>
      <trkpt lat="62.633130674522" lon="17.973373297363">
        <ele>79.4</ele>
        <time>2017-12-25T12:39:47Z</time>
      </trkpt>
      <trkpt lat="62.633119778052" lon="17.973430629559">
        <ele>79.6</ele>
        <time>2017-12-25T12:39:48Z</time>
      </trkpt>
      <trkpt lat="62.63310653465" lon="17.973484692814">
        <ele>80</ele>
        <time>2017-12-25T12:39:49Z</time>
      </trkpt>
      <trkpt lat="62.63309563818" lon="17.973534816576">
        <ele>80</ele>
        <time>2017-12-25T12:39:50Z</time>
      </trkpt>
      <trkpt lat="62.633082981511" lon="17.973594495704">
        <ele>80</ele>
        <time>2017-12-25T12:39:51Z</time>
      </trkpt>
      <trkpt lat="62.633069821928" lon="17.97365015152">
        <ele>80.2</ele>
        <time>2017-12-25T12:39:52Z</time>
      </trkpt>
      <trkpt lat="62.633058422544" lon="17.97370547206">
        <ele>80.2</ele>
        <time>2017-12-25T12:39:53Z</time>
      </trkpt>
      <trkpt lat="62.633042748391" lon="17.97376749812">
        <ele>80.2</ele>
        <time>2017-12-25T12:39:54Z</time>
      </trkpt>
      <trkpt lat="62.633033109206" lon="17.973817202787">
        <ele>80.4</ele>
        <time>2017-12-25T12:39:55Z</time>
      </trkpt>
      <trkpt lat="62.633016764501" lon="17.973881575779">
        <ele>80.6</ele>
        <time>2017-12-25T12:39:56Z</time>
      </trkpt>
      <trkpt lat="62.63300511366" lon="17.973932789188">
        <ele>80.8</ele>
        <time>2017-12-25T12:39:57Z</time>
      </trkpt>
      <trkpt lat="62.632993881914" lon="17.973981655665">
        <ele>80.6</ele>
        <time>2017-12-25T12:39:58Z</time>
      </trkpt>
      <trkpt lat="62.63297829158" lon="17.974037227662">
        <ele>80.8</ele>
        <time>2017-12-25T12:39:59Z</time>
      </trkpt>
      <trkpt lat="62.632967227472" lon="17.974088943985">
        <ele>81</ele>
        <time>2017-12-25T12:40:00Z</time>
      </trkpt>
      <trkpt lat="62.632952642966" lon="17.974149964217">
        <ele>81.2</ele>
        <time>2017-12-25T12:40:01Z</time>
      </trkpt>
      <trkpt lat="62.632936884994" lon="17.974205200938">
        <ele>81.2</ele>
        <time>2017-12-25T12:40:02Z</time>
      </trkpt>
      <trkpt lat="62.632918277176" lon="17.974256833442">
        <ele>81.2</ele>
        <time>2017-12-25T12:40:03Z</time>
      </trkpt>
      <trkpt lat="62.632896903331" lon="17.974314584733">
        <ele>81.2</ele>
        <time>2017-12-25T12:40:04Z</time>
      </trkpt>
      <trkpt lat="62.632882821739" lon="17.974366049599">
        <ele>81.2</ele>
        <time>2017-12-25T12:40:05Z</time>
      </trkpt>
      <trkpt lat="62.632859603876" lon="17.974417765922">
        <ele>81.4</ele>
        <time>2017-12-25T12:40:06Z</time>
      </trkpt>
      <trkpt lat="62.632835044909" lon="17.974456155024">
        <ele>81.4</ele>
        <time>2017-12-25T12:40:07Z</time>
      </trkpt>
      <trkpt lat="62.632809396295" lon="17.974482055095">
        <ele>81.4</ele>
        <time>2017-12-25T12:40:08Z</time>
      </trkpt>
      <trkpt lat="62.632772767392" lon="17.974489598805">
        <ele>81.6</ele>
        <time>2017-12-25T12:40:09Z</time>
      </trkpt>
      <trkpt lat="62.632744939484" lon="17.974492364832">
        <ele>81.6</ele>
        <time>2017-12-25T12:40:10Z</time>
      </trkpt>
      <trkpt lat="62.632709735504" lon="17.974480462534">
        <ele>81.8</ele>
        <time>2017-12-25T12:40:11Z</time>
      </trkpt>
      <trkpt lat="62.632683751614" lon="17.97445397573">
        <ele>81.8</ele>
        <time>2017-12-25T12:40:12Z</time>
      </trkpt>
      <trkpt lat="62.632656258982" lon="17.974434362084">
        <ele>81.8</ele>
        <time>2017-12-25T12:40:13Z</time>
      </trkpt>
      <trkpt lat="62.632631113282" lon="17.97440116976">
        <ele>82</ele>
        <time>2017-12-25T12:40:14Z</time>
      </trkpt>
      <trkpt lat="62.632602111908" lon="17.974385579426">
        <ele>82</ele>
        <time>2017-12-25T12:40:15Z</time>
      </trkpt>
      <trkpt lat="62.632573697267" lon="17.974359008803">
        <ele>82</ele>
        <time>2017-12-25T12:40:16Z</time>
      </trkpt>
      <trkpt lat="62.632545198807" lon="17.974337551139">
        <ele>82</ele>
        <time>2017-12-25T12:40:17Z</time>
      </trkpt>
      <trkpt lat="62.632519298736" lon="17.97431651257">
        <ele>82</ele>
        <time>2017-12-25T12:40:18Z</time>
      </trkpt>
      <trkpt lat="62.632491973742" lon="17.974289606671">
        <ele>82</ele>
        <time>2017-12-25T12:40:19Z</time>
      </trkpt>
      <trkpt lat="62.632465906033" lon="17.974267394636">
        <ele>82.2</ele>
        <time>2017-12-25T12:40:20Z</time>
      </trkpt>
      <trkpt lat="62.632437575211" lon="17.974239902004">
        <ele>82</ele>
        <time>2017-12-25T12:40:21Z</time>
      </trkpt>
      <trkpt lat="62.632412010416" lon="17.974207296413">
        <ele>82</ele>
        <time>2017-12-25T12:40:22Z</time>
      </trkpt>
      <trkpt lat="62.632386026526" lon="17.974183072722">
        <ele>82</ele>
        <time>2017-12-25T12:40:23Z</time>
      </trkpt>
      <trkpt lat="62.632357695704" lon="17.974147784923">
        <ele>82.2</ele>
        <time>2017-12-25T12:40:24Z</time>
      </trkpt>
      <trkpt lat="62.632334142565" lon="17.974126494897">
        <ele>82</ele>
        <time>2017-12-25T12:40:25Z</time>
      </trkpt>
      <trkpt lat="62.632304973553" lon="17.974099924274">
        <ele>82</ele>
        <time>2017-12-25T12:40:26Z</time>
      </trkpt>
      <trkpt lat="62.632278151473" lon="17.974067234864">
        <ele>82</ele>
        <time>2017-12-25T12:40:27Z</time>
      </trkpt>
      <trkpt lat="62.632252838135" lon="17.974037311481">
        <ele>82</ele>
        <time>2017-12-25T12:40:28Z</time>
      </trkpt>
      <trkpt lat="62.632222830933" lon="17.974005711718">
        <ele>82</ele>
        <time>2017-12-25T12:40:29Z</time>
      </trkpt>
      <trkpt lat="62.632196344129" lon="17.973973609041">
        <ele>82</ele>
        <time>2017-12-25T12:40:30Z</time>
      </trkpt>
      <trkpt lat="62.632167426574" lon="17.973943098925">
        <ele>82</ele>
        <time>2017-12-25T12:40:31Z</time>
      </trkpt>
      <trkpt lat="62.632138089924" lon="17.973911582981">
        <ele>82</ele>
        <time>2017-12-25T12:40:32Z</time>
      </trkpt>
      <trkpt lat="62.632107663627" lon="17.973881743417">
        <ele>82</ele>
        <time>2017-12-25T12:40:33Z</time>
      </trkpt>
      <trkpt lat="62.632077824063" lon="17.973842264668">
        <ele>81.8</ele>
        <time>2017-12-25T12:40:34Z</time>
      </trkpt>
      <trkpt lat="62.632051169621" lon="17.973820890823">
        <ele>82</ele>
        <time>2017-12-25T12:40:35Z</time>
      </trkpt>
      <trkpt lat="62.63201856403" lon="17.973801277177">
        <ele>82</ele>
        <time>2017-12-25T12:40:36Z</time>
      </trkpt>
      <trkpt lat="62.63198838919" lon="17.973762385161">
        <ele>81.8</ele>
        <time>2017-12-25T12:40:37Z</time>
      </trkpt>
      <trkpt lat="62.631961148015" lon="17.973737574737">
        <ele>81.8</ele>
        <time>2017-12-25T12:40:38Z</time>
      </trkpt>
      <trkpt lat="62.631927117501" lon="17.973698263626">
        <ele>81.8</ele>
        <time>2017-12-25T12:40:39Z</time>
      </trkpt>
      <trkpt lat="62.631904486371" lon="17.97367194446">
        <ele>81.8</ele>
        <time>2017-12-25T12:40:40Z</time>
      </trkpt>
      <trkpt lat="62.631873724798" lon="17.973629615865">
        <ele>81.6</ele>
        <time>2017-12-25T12:40:41Z</time>
      </trkpt>
      <trkpt lat="62.631844388148" lon="17.973595752989">
        <ele>81.6</ele>
        <time>2017-12-25T12:40:42Z</time>
      </trkpt>
      <trkpt lat="62.63181656024" lon="17.973569601461">
        <ele>81.6</ele>
        <time>2017-12-25T12:40:43Z</time>
      </trkpt>
      <trkpt lat="62.631786888314" lon="17.973538756069">
        <ele>81.8</ele>
        <time>2017-12-25T12:40:44Z</time>
      </trkpt>
      <trkpt lat="62.631762496985" lon="17.973504893193">
        <ele>81.6</ele>
        <time>2017-12-25T12:40:45Z</time>
      </trkpt>
      <trkpt lat="62.631733327973" lon="17.973466420272">
        <ele>81.6</ele>
        <time>2017-12-25T12:40:46Z</time>
      </trkpt>
      <trkpt lat="62.631707344083" lon="17.973421074193">
        <ele>81.6</ele>
        <time>2017-12-25T12:40:47Z</time>
      </trkpt>
      <trkpt lat="62.631682952754" lon="17.97338612167">
        <ele>81.6</ele>
        <time>2017-12-25T12:40:48Z</time>
      </trkpt>
      <trkpt lat="62.63165898052" lon="17.973348906034">
        <ele>81.8</ele>
        <time>2017-12-25T12:40:49Z</time>
      </trkpt>
      <trkpt lat="62.631635762657" lon="17.973309092009">
        <ele>81.8</ele>
        <time>2017-12-25T12:40:50Z</time>
      </trkpt>
      <trkpt lat="62.631608856758" lon="17.973273720391">
        <ele>81.6</ele>
        <time>2017-12-25T12:40:51Z</time>
      </trkpt>
      <trkpt lat="62.631581950859" lon="17.97323105652">
        <ele>81.6</ele>
        <time>2017-12-25T12:40:52Z</time>
      </trkpt>
      <trkpt lat="62.631554039132" lon="17.973192583599">
        <ele>81.6</ele>
        <time>2017-12-25T12:40:53Z</time>
      </trkpt>
      <trkpt lat="62.631528977251" lon="17.973149500633">
        <ele>81.4</ele>
        <time>2017-12-25T12:40:54Z</time>
      </trkpt>
      <trkpt lat="62.631508441596" lon="17.973103986916">
        <ele>81.4</ele>
        <time>2017-12-25T12:40:55Z</time>
      </trkpt>
      <trkpt lat="62.631483547353" lon="17.973050929489">
        <ele>81.2</ele>
        <time>2017-12-25T12:40:56Z</time>
      </trkpt>
      <trkpt lat="62.631463430793" lon="17.972994938397">
        <ele>81</ele>
        <time>2017-12-25T12:40:57Z</time>
      </trkpt>
      <trkpt lat="62.631444068604" lon="17.972935762183">
        <ele>81</ele>
        <time>2017-12-25T12:40:58Z</time>
      </trkpt>
      <trkpt lat="62.63142428732" lon="17.972883123851">
        <ele>80.6</ele>
        <time>2017-12-25T12:40:59Z</time>
      </trkpt>
      <trkpt lat="62.631405763321" lon="17.972823277085">
        <ele>80.4</ele>
        <time>2017-12-25T12:41:00Z</time>
      </trkpt>
      <trkpt lat="62.631383048372" lon="17.972766615441">
        <ele>80.4</ele>
        <time>2017-12-25T12:41:01Z</time>
      </trkpt>
      <trkpt lat="62.631363350907" lon="17.972705092295">
        <ele>80.2</ele>
        <time>2017-12-25T12:41:02Z</time>
      </trkpt>
      <trkpt lat="62.631344826908" lon="17.972643401511">
        <ele>79.8</ele>
        <time>2017-12-25T12:41:03Z</time>
      </trkpt>
      <trkpt lat="62.631325799995" lon="17.972595373224">
        <ele>79.6</ele>
        <time>2017-12-25T12:41:04Z</time>
      </trkpt>
      <trkpt lat="62.631305683435" lon="17.972539382132">
        <ele>79.6</ele>
        <time>2017-12-25T12:41:05Z</time>
      </trkpt>
      <trkpt lat="62.6312834714" lon="17.972476517882">
        <ele>79.6</ele>
        <time>2017-12-25T12:41:06Z</time>
      </trkpt>
      <trkpt lat="62.63126419303" lon="17.972423963369">
        <ele>79.4</ele>
        <time>2017-12-25T12:41:07Z</time>
      </trkpt>
      <trkpt lat="62.631243573556" lon="17.972362356404">
        <ele>79.2</ele>
        <time>2017-12-25T12:41:08Z</time>
      </trkpt>
      <trkpt lat="62.631225468652" lon="17.972308041692">
        <ele>79</ele>
        <time>2017-12-25T12:41:09Z</time>
      </trkpt>
      <trkpt lat="62.631209962137" lon="17.972256325369">
        <ele>79</ele>
        <time>2017-12-25T12:41:10Z</time>
      </trkpt>
      <trkpt lat="62.631191941052" lon="17.972185665952">
        <ele>78.8</ele>
        <time>2017-12-25T12:41:11Z</time>
      </trkpt>
      <trkpt lat="62.631176518356" lon="17.972131183602">
        <ele>78.8</ele>
        <time>2017-12-25T12:41:12Z</time>
      </trkpt>
      <trkpt lat="62.631161850031" lon="17.97206932518">
        <ele>78.4</ele>
        <time>2017-12-25T12:41:13Z</time>
      </trkpt>
      <trkpt lat="62.631147265525" lon="17.972007382939">
        <ele>78.4</ele>
        <time>2017-12-25T12:41:14Z</time>
      </trkpt>
      <trkpt lat="62.631131675191" lon="17.971954576969">
        <ele>78.2</ele>
        <time>2017-12-25T12:41:15Z</time>
      </trkpt>
      <trkpt lat="62.631116420133" lon="17.971887102674">
        <ele>78</ele>
        <time>2017-12-25T12:41:16Z</time>
      </trkpt>
      <trkpt lat="62.631100913618" lon="17.971830357211">
        <ele>77.8</ele>
        <time>2017-12-25T12:41:17Z</time>
      </trkpt>
      <trkpt lat="62.631084736551" lon="17.971765648943">
        <ele>77.6</ele>
        <time>2017-12-25T12:41:18Z</time>
      </trkpt>
      <trkpt lat="62.631073001891" lon="17.971707143281">
        <ele>77.4</ele>
        <time>2017-12-25T12:41:19Z</time>
      </trkpt>
      <trkpt lat="62.631061770145" lon="17.971649811085">
        <ele>77.4</ele>
        <time>2017-12-25T12:41:20Z</time>
      </trkpt>
      <trkpt lat="62.631045509259" lon="17.971578732573">
        <ele>77.2</ele>
        <time>2017-12-25T12:41:21Z</time>
      </trkpt>
      <trkpt lat="62.631031092391" lon="17.971523998766">
        <ele>77</ele>
        <time>2017-12-25T12:41:22Z</time>
      </trkpt>
      <trkpt lat="62.631019357731" lon="17.97145493191">
        <ele>77</ele>
        <time>2017-12-25T12:41:23Z</time>
      </trkpt>
      <trkpt lat="62.631006952519" lon="17.971387289977">
        <ele>76.8</ele>
        <time>2017-12-25T12:41:24Z</time>
      </trkpt>
      <trkpt lat="62.63099597223" lon="17.971328281401">
        <ele>76.6</ele>
        <time>2017-12-25T12:41:25Z</time>
      </trkpt>
      <trkpt lat="62.63098256119" lon="17.971250748826">
        <ele>76.6</ele>
        <time>2017-12-25T12:41:26Z</time>
      </trkpt>
      <trkpt lat="62.63097082653" lon="17.971185705282">
        <ele>76.6</ele>
        <time>2017-12-25T12:41:27Z</time>
      </trkpt>
      <trkpt lat="62.630960265336" lon="17.971119488272">
        <ele>76.6</ele>
        <time>2017-12-25T12:41:28Z</time>
      </trkpt>
      <trkpt lat="62.630951464341" lon="17.971048242122">
        <ele>76.4</ele>
        <time>2017-12-25T12:41:29Z</time>
      </trkpt>
      <trkpt lat="62.630943669174" lon="17.970976828334">
        <ele>76.2</ele>
        <time>2017-12-25T12:41:30Z</time>
      </trkpt>
      <trkpt lat="62.630935287274" lon="17.970902648519">
        <ele>76</ele>
        <time>2017-12-25T12:41:31Z</time>
      </trkpt>
      <trkpt lat="62.63092640246" lon="17.970833162568">
        <ele>76.2</ele>
        <time>2017-12-25T12:41:32Z</time>
      </trkpt>
      <trkpt lat="62.630919864578" lon="17.970764347169">
        <ele>76</ele>
        <time>2017-12-25T12:41:33Z</time>
      </trkpt>
      <trkpt lat="62.630916260361" lon="17.970715480692">
        <ele>76</ele>
        <time>2017-12-25T12:41:34Z</time>
      </trkpt>
      <trkpt lat="62.630908129918" lon="17.970629901493">
        <ele>75.8</ele>
        <time>2017-12-25T12:41:35Z</time>
      </trkpt>
      <trkpt lat="62.63090041857" lon="17.970547339778">
        <ele>75.8</ele>
        <time>2017-12-25T12:41:36Z</time>
      </trkpt>
      <trkpt lat="62.630889605919" lon="17.97046502952">
        <ele>75.6</ele>
        <time>2017-12-25T12:41:37Z</time>
      </trkpt>
      <trkpt lat="62.630881307838" lon="17.970383892728">
        <ele>75.4</ele>
        <time>2017-12-25T12:41:38Z</time>
      </trkpt>
      <trkpt lat="62.630884073865" lon="17.970275095666">
        <ele>75.4</ele>
        <time>2017-12-25T12:41:40Z</time>
      </trkpt>
      <trkpt lat="62.630884157684" lon="17.970232180338">
        <ele>75</ele>
        <time>2017-12-25T12:41:41Z</time>
      </trkpt>
      <trkpt lat="62.630882565123" lon="17.970206950819">
        <ele>75</ele>
        <time>2017-12-25T12:41:42Z</time>
      </trkpt>
      <trkpt lat="62.63088281658" lon="17.97017920673">
        <ele>75</ele>
        <time>2017-12-25T12:41:43Z</time>
      </trkpt>
      <trkpt lat="62.630882481304" lon="17.970155402134">
        <ele>74.8</ele>
        <time>2017-12-25T12:41:44Z</time>
      </trkpt>
      <trkpt lat="62.630885582607" lon="17.970134028289">
        <ele>74.6</ele>
        <time>2017-12-25T12:41:45Z</time>
      </trkpt>
      <trkpt lat="62.630884660598" lon="17.970123048">
        <ele>74.6</ele>
        <time>2017-12-25T12:41:46Z</time>
      </trkpt>
      <trkpt lat="62.630885498788" lon="17.970108547313">
        <ele>74.6</ele>
        <time>2017-12-25T12:41:47Z</time>
      </trkpt>
      <trkpt lat="62.63088868391" lon="17.970099830137">
        <ele>74.6</ele>
        <time>2017-12-25T12:41:48Z</time>
      </trkpt>
      <trkpt lat="62.630883235675" lon="17.970106116562">
        <ele>74.6</ele>
        <time>2017-12-25T12:41:49Z</time>
      </trkpt>
      <trkpt lat="62.631173417053" lon="17.970020034449">
        <ele>74.2</ele>
        <time>2017-12-25T12:44:38Z</time>
      </trkpt>
      <trkpt lat="62.63120216697" lon="17.970000504622">
        <ele>74.2</ele>
        <time>2017-12-25T12:44:39Z</time>
      </trkpt>
      <trkpt lat="62.631240304615" lon="17.969981812985">
        <ele>74.2</ele>
        <time>2017-12-25T12:44:40Z</time>
      </trkpt>
      <trkpt lat="62.631273999853" lon="17.969958511303">
        <ele>74</ele>
        <time>2017-12-25T12:44:41Z</time>
      </trkpt>
      <trkpt lat="62.631312724231" lon="17.969934287612">
        <ele>73.8</ele>
        <time>2017-12-25T12:44:42Z</time>
      </trkpt>
      <trkpt lat="62.631339462492" lon="17.969913751957">
        <ele>73.8</ele>
        <time>2017-12-25T12:44:43Z</time>
      </trkpt>
      <trkpt lat="62.631380952897" lon="17.969894054492">
        <ele>73.6</ele>
        <time>2017-12-25T12:44:44Z</time>
      </trkpt>
      <trkpt lat="62.631410457185" lon="17.969875949588">
        <ele>73.6</ele>
        <time>2017-12-25T12:44:45Z</time>
      </trkpt>
      <trkpt lat="62.631446750812" lon="17.969858682874">
        <ele>73.6</ele>
        <time>2017-12-25T12:44:46Z</time>
      </trkpt>
      <trkpt lat="62.631479272584" lon="17.96983554883">
        <ele>73.6</ele>
        <time>2017-12-25T12:44:47Z</time>
      </trkpt>
      <trkpt lat="62.631516655858" lon="17.96981627046">
        <ele>73.6</ele>
        <time>2017-12-25T12:44:48Z</time>
      </trkpt>
      <trkpt lat="62.631544735223" lon="17.969793555511">
        <ele>73.4</ele>
        <time>2017-12-25T12:44:49Z</time>
      </trkpt>
      <trkpt lat="62.631577089357" lon="17.969780395928">
        <ele>73.4</ele>
        <time>2017-12-25T12:44:50Z</time>
      </trkpt>
      <trkpt lat="62.631609694948" lon="17.969755836961">
        <ele>73.6</ele>
        <time>2017-12-25T12:44:51Z</time>
      </trkpt>
      <trkpt lat="62.631642719634" lon="17.969727925234">
        <ele>73.6</ele>
        <time>2017-12-25T12:44:52Z</time>
      </trkpt>
      <trkpt lat="62.631677336881" lon="17.969711580529">
        <ele>73.6</ele>
        <time>2017-12-25T12:44:53Z</time>
      </trkpt>
      <trkpt lat="62.63171513925" lon="17.969676963282">
        <ele>73.4</ele>
        <time>2017-12-25T12:44:54Z</time>
      </trkpt>
      <trkpt lat="62.631745649366" lon="17.969644022415">
        <ele>73.4</ele>
        <time>2017-12-25T12:44:55Z</time>
      </trkpt>
      <trkpt lat="62.631782697364" lon="17.969603789295">
        <ele>73.2</ele>
        <time>2017-12-25T12:44:56Z</time>
      </trkpt>
      <trkpt lat="62.631816979335" lon="17.969570261695">
        <ele>73</ele>
        <time>2017-12-25T12:44:57Z</time>
      </trkpt>
      <trkpt lat="62.631853608238" lon="17.969565986926">
        <ele>73</ele>
        <time>2017-12-25T12:44:58Z</time>
      </trkpt>
      <trkpt lat="62.631883196345" lon="17.969556599198">
        <ele>72.8</ele>
        <time>2017-12-25T12:44:59Z</time>
      </trkpt>
      <trkpt lat="62.631918148868" lon="17.969554838999">
        <ele>72.6</ele>
        <time>2017-12-25T12:45:00Z</time>
      </trkpt>
      <trkpt lat="62.631950083907" lon="17.969560119596">
        <ele>72.4</ele>
        <time>2017-12-25T12:45:01Z</time>
      </trkpt>
      <trkpt lat="62.631982773317" lon="17.969555258094">
        <ele>72.4</ele>
        <time>2017-12-25T12:45:02Z</time>
      </trkpt>
      <trkpt lat="62.632015462727" lon="17.969555425732">
        <ele>72.6</ele>
        <time>2017-12-25T12:45:03Z</time>
      </trkpt>
      <trkpt lat="62.632044631739" lon="17.96955056423">
        <ele>72.6</ele>
        <time>2017-12-25T12:45:04Z</time>
      </trkpt>
      <trkpt lat="62.632076566778" lon="17.969545199814">
        <ele>72.6</ele>
        <time>2017-12-25T12:45:05Z</time>
      </trkpt>
      <trkpt lat="62.632106741618" lon="17.969534554801">
        <ele>72.8</ele>
        <time>2017-12-25T12:45:06Z</time>
      </trkpt>
      <trkpt lat="62.632138676657" lon="17.969528184557">
        <ele>73</ele>
        <time>2017-12-25T12:45:07Z</time>
      </trkpt>
      <trkpt lat="62.63217111461" lon="17.969523239236">
        <ele>73</ele>
        <time>2017-12-25T12:45:08Z</time>
      </trkpt>
      <trkpt lat="62.63220380402" lon="17.969506056341">
        <ele>73</ele>
        <time>2017-12-25T12:45:09Z</time>
      </trkpt>
      <trkpt lat="62.632233895041" lon="17.969496500975">
        <ele>73</ele>
        <time>2017-12-25T12:45:10Z</time>
      </trkpt>
      <trkpt lat="62.632261722949" lon="17.969482335564">
        <ele>73</ele>
        <time>2017-12-25T12:45:11Z</time>
      </trkpt>
      <trkpt lat="62.632297597481" lon="17.969458195692">
        <ele>73</ele>
        <time>2017-12-25T12:45:12Z</time>
      </trkpt>
      <trkpt lat="62.632326012122" lon="17.969452663638">
        <ele>73</ele>
        <time>2017-12-25T12:45:13Z</time>
      </trkpt>
      <trkpt lat="62.632376722617" lon="17.969455178208">
        <ele>73</ele>
        <time>2017-12-25T12:45:15Z</time>
      </trkpt>
      <trkpt lat="62.632401700679" lon="17.969458447149">
        <ele>73</ele>
        <time>2017-12-25T12:45:16Z</time>
      </trkpt>
      <trkpt lat="62.632438664858" lon="17.969462135185">
        <ele>73</ele>
        <time>2017-12-25T12:45:17Z</time>
      </trkpt>
      <trkpt lat="62.632470096983" lon="17.969462470461">
        <ele>73</ele>
        <time>2017-12-25T12:45:18Z</time>
      </trkpt>
      <trkpt lat="62.632502534936" lon="17.969464733574">
        <ele>73</ele>
        <time>2017-12-25T12:45:19Z</time>
      </trkpt>
      <trkpt lat="62.632530614301" lon="17.969469511257">
        <ele>73</ele>
        <time>2017-12-25T12:45:20Z</time>
      </trkpt>
      <trkpt lat="62.632563722806" lon="17.969472444922">
        <ele>73</ele>
        <time>2017-12-25T12:45:21Z</time>
      </trkpt>
      <trkpt lat="62.632592221266" lon="17.969476719691">
        <ele>73</ele>
        <time>2017-12-25T12:45:22Z</time>
      </trkpt>
      <trkpt lat="62.632621474097" lon="17.969480323908">
        <ele>73</ele>
        <time>2017-12-25T12:45:23Z</time>
      </trkpt>
      <trkpt lat="62.632651648937" lon="17.969488202894">
        <ele>73</ele>
        <time>2017-12-25T12:45:24Z</time>
      </trkpt>
      <trkpt lat="62.632679393026" lon="17.969493232034">
        <ele>73</ele>
        <time>2017-12-25T12:45:25Z</time>
      </trkpt>
      <trkpt lat="62.632707640029" lon="17.969501446296">
        <ele>73</ele>
        <time>2017-12-25T12:45:26Z</time>
      </trkpt>
      <trkpt lat="62.632735970851" lon="17.969506643074">
        <ele>73.2</ele>
        <time>2017-12-25T12:45:27Z</time>
      </trkpt>
      <trkpt lat="62.632764469311" lon="17.969511085481">
        <ele>73.2</ele>
        <time>2017-12-25T12:45:28Z</time>
      </trkpt>
      <trkpt lat="62.632793722142" lon="17.969519886476">
        <ele>73.2</ele>
        <time>2017-12-25T12:45:29Z</time>
      </trkpt>
      <trkpt lat="62.632820460403" lon="17.969525083254">
        <ele>73.2</ele>
        <time>2017-12-25T12:45:30Z</time>
      </trkpt>
      <trkpt lat="62.632851138157" lon="17.969528687471">
        <ele>73.4</ele>
        <time>2017-12-25T12:45:31Z</time>
      </trkpt>
      <trkpt lat="62.632882151187" lon="17.969532459326">
        <ele>73.4</ele>
        <time>2017-12-25T12:45:32Z</time>
      </trkpt>
      <trkpt lat="62.632912745122" lon="17.969537572285">
        <ele>73.2</ele>
        <time>2017-12-25T12:45:33Z</time>
      </trkpt>
      <trkpt lat="62.632939818659" lon="17.969543942529">
        <ele>73.4</ele>
        <time>2017-12-25T12:45:34Z</time>
      </trkpt>
      <trkpt lat="62.632968736214" lon="17.969549139307">
        <ele>73.4</ele>
        <time>2017-12-25T12:45:35Z</time>
      </trkpt>
      <trkpt lat="62.633000838891" lon="17.96955643156">
        <ele>73.6</ele>
        <time>2017-12-25T12:45:36Z</time>
      </trkpt>
      <trkpt lat="62.633030762274" lon="17.969559532863">
        <ele>73.6</ele>
        <time>2017-12-25T12:45:37Z</time>
      </trkpt>
      <trkpt lat="62.633061523847" lon="17.969566238383">
        <ele>73.8</ele>
        <time>2017-12-25T12:45:38Z</time>
      </trkpt>
      <trkpt lat="62.633092033963" lon="17.969573279179">
        <ele>73.8</ele>
        <time>2017-12-25T12:45:39Z</time>
      </trkpt>
      <trkpt lat="62.633119442776" lon="17.969584762382">
        <ele>73.8</ele>
        <time>2017-12-25T12:45:40Z</time>
      </trkpt>
      <trkpt lat="62.633148527969" lon="17.969593144282">
        <ele>74</ele>
        <time>2017-12-25T12:45:41Z</time>
      </trkpt>
      <trkpt lat="62.633180546827" lon="17.96960001744">
        <ele>74</ele>
        <time>2017-12-25T12:45:42Z</time>
      </trkpt>
      <trkpt lat="62.633209799658" lon="17.969613847575">
        <ele>74</ele>
        <time>2017-12-25T12:45:43Z</time>
      </trkpt>
      <trkpt lat="62.633238633394" lon="17.969617116516">
        <ele>74</ele>
        <time>2017-12-25T12:45:44Z</time>
      </trkpt>
      <trkpt lat="62.633267131854" lon="17.969634718506">
        <ele>74.2</ele>
        <time>2017-12-25T12:45:45Z</time>
      </trkpt>
      <trkpt lat="62.633295630314" lon="17.969659109835">
        <ele>74.2</ele>
        <time>2017-12-25T12:45:46Z</time>
      </trkpt>
      <trkpt lat="62.633321446566" lon="17.969690122865">
        <ele>74.2</ele>
        <time>2017-12-25T12:45:47Z</time>
      </trkpt>
      <trkpt lat="62.633343910058" lon="17.969727757596">
        <ele>74.4</ele>
        <time>2017-12-25T12:45:48Z</time>
      </trkpt>
      <trkpt lat="62.633360254763" lon="17.969777546082">
        <ele>74.4</ele>
        <time>2017-12-25T12:45:49Z</time>
      </trkpt>
      <trkpt lat="62.63336972631" lon="17.969830184414">
        <ele>74.6</ele>
        <time>2017-12-25T12:45:50Z</time>
      </trkpt>
      <trkpt lat="62.633378024391" lon="17.969890198818">
        <ele>74.6</ele>
        <time>2017-12-25T12:45:51Z</time>
      </trkpt>
      <trkpt lat="62.633382550617" lon="17.969946022272">
        <ele>74.8</ele>
        <time>2017-12-25T12:45:52Z</time>
      </trkpt>
      <trkpt lat="62.633390094327" lon="17.970002097183">
        <ele>74.8</ele>
        <time>2017-12-25T12:45:53Z</time>
      </trkpt>
      <trkpt lat="62.633398308589" lon="17.970062363044">
        <ele>74.8</ele>
        <time>2017-12-25T12:45:54Z</time>
      </trkpt>
      <trkpt lat="62.633401828987" lon="17.970122796543">
        <ele>75</ele>
        <time>2017-12-25T12:45:55Z</time>
      </trkpt>
      <trkpt lat="62.633405517023" lon="17.970184654965">
        <ele>75</ele>
        <time>2017-12-25T12:45:56Z</time>
      </trkpt>
      <trkpt lat="62.633410043249" lon="17.970258248047">
        <ele>75.2</ele>
        <time>2017-12-25T12:45:57Z</time>
      </trkpt>
      <trkpt lat="62.63341331219" lon="17.970316586071">
        <ele>75.2</ele>
        <time>2017-12-25T12:45:58Z</time>
      </trkpt>
      <trkpt lat="62.633417251683" lon="17.970380204692">
        <ele>75.2</ele>
        <time>2017-12-25T12:45:59Z</time>
      </trkpt>
      <trkpt lat="62.63341917952" lon="17.970440805829">
        <ele>75.4</ele>
        <time>2017-12-25T12:46:00Z</time>
      </trkpt>
      <trkpt lat="62.633423119013" lon="17.970510710875">
        <ele>75.6</ele>
        <time>2017-12-25T12:46:01Z</time>
      </trkpt>
      <trkpt lat="62.633424879212" lon="17.970578688084">
        <ele>75.6</ele>
        <time>2017-12-25T12:46:02Z</time>
      </trkpt>
      <trkpt lat="62.633428902524" lon="17.970637529022">
        <ele>75.6</ele>
        <time>2017-12-25T12:46:03Z</time>
      </trkpt>
      <trkpt lat="62.633431584732" lon="17.970699471263">
        <ele>75.8</ele>
        <time>2017-12-25T12:46:04Z</time>
      </trkpt>
      <trkpt lat="62.633434434578" lon="17.970757390192">
        <ele>76</ele>
        <time>2017-12-25T12:46:05Z</time>
      </trkpt>
      <trkpt lat="62.633435859501" lon="17.970829893627">
        <ele>76.2</ele>
        <time>2017-12-25T12:46:06Z</time>
      </trkpt>
      <trkpt lat="62.633433847845" lon="17.970892757877">
        <ele>76.4</ele>
        <time>2017-12-25T12:46:07Z</time>
      </trkpt>
      <trkpt lat="62.633434937492" lon="17.970959896896">
        <ele>76.4</ele>
        <time>2017-12-25T12:46:08Z</time>
      </trkpt>
      <trkpt lat="62.633436278596" lon="17.971029801942">
        <ele>76.6</ele>
        <time>2017-12-25T12:46:09Z</time>
      </trkpt>
      <trkpt lat="62.633436949148" lon="17.971092750011">
        <ele>76.6</ele>
        <time>2017-12-25T12:46:10Z</time>
      </trkpt>
      <trkpt lat="62.633439379899" lon="17.971137006443">
        <ele>76.6</ele>
        <time>2017-12-25T12:46:11Z</time>
      </trkpt>
      <trkpt lat="62.633440888641" lon="17.971211689172">
        <ele>76.8</ele>
        <time>2017-12-25T12:46:12Z</time>
      </trkpt>
      <trkpt lat="62.633440218089" lon="17.971277654725">
        <ele>76.8</ele>
        <time>2017-12-25T12:46:13Z</time>
      </trkpt>
      <trkpt lat="62.633438374071" lon="17.971345212839">
        <ele>77</ele>
        <time>2017-12-25T12:46:14Z</time>
      </trkpt>
      <trkpt lat="62.633439044623" lon="17.971401203931">
        <ele>77</ele>
        <time>2017-12-25T12:46:15Z</time>
      </trkpt>
      <trkpt lat="62.633437871157" lon="17.971471528072">
        <ele>77.2</ele>
        <time>2017-12-25T12:46:16Z</time>
      </trkpt>
      <trkpt lat="62.633437452062" lon="17.971532715942">
        <ele>77.2</ele>
        <time>2017-12-25T12:46:17Z</time>
      </trkpt>
      <trkpt lat="62.633435859501" lon="17.971598346219">
        <ele>77.4</ele>
        <time>2017-12-25T12:46:18Z</time>
      </trkpt>
      <trkpt lat="62.633433596388" lon="17.971662132478">
        <ele>77.4</ele>
        <time>2017-12-25T12:46:19Z</time>
      </trkpt>
      <trkpt lat="62.633432003827" lon="17.971716782466">
        <ele>77.4</ele>
        <time>2017-12-25T12:46:20Z</time>
      </trkpt>
      <trkpt lat="62.633425968859" lon="17.971786603693">
        <ele>77.8</ele>
        <time>2017-12-25T12:46:21Z</time>
      </trkpt>
      <trkpt lat="62.63342001771" lon="17.971845444631">
        <ele>77.8</ele>
        <time>2017-12-25T12:46:22Z</time>
      </trkpt>
      <trkpt lat="62.633414066561" lon="17.971909063252">
        <ele>78</ele>
        <time>2017-12-25T12:46:23Z</time>
      </trkpt>
      <trkpt lat="62.633408869783" lon="17.971967317457">
        <ele>78</ele>
        <time>2017-12-25T12:46:24Z</time>
      </trkpt>
      <trkpt lat="62.633402080444" lon="17.972020039608">
        <ele>78.2</ele>
        <time>2017-12-25T12:46:25Z</time>
      </trkpt>
      <trkpt lat="62.633393614725" lon="17.972080305469">
        <ele>78.4</ele>
        <time>2017-12-25T12:46:26Z</time>
      </trkpt>
      <trkpt lat="62.63338649011" lon="17.972145181375">
        <ele>78.4</ele>
        <time>2017-12-25T12:46:27Z</time>
      </trkpt>
      <trkpt lat="62.633377186201" lon="17.972206536883">
        <ele>78.4</ele>
        <time>2017-12-25T12:46:28Z</time>
      </trkpt>
      <trkpt lat="62.633371821785" lon="17.972261605966">
        <ele>78.4</ele>
        <time>2017-12-25T12:46:29Z</time>
      </trkpt>
      <trkpt lat="62.633363272247" lon="17.972317680877">
        <ele>78.6</ele>
        <time>2017-12-25T12:46:30Z</time>
      </trkpt>
      <trkpt lat="62.633356231451" lon="17.97237610272">
        <ele>78.6</ele>
        <time>2017-12-25T12:46:31Z</time>
      </trkpt>
      <trkpt lat="62.633347598094" lon="17.972437625866">
        <ele>78.8</ele>
        <time>2017-12-25T12:46:32Z</time>
      </trkpt>
      <trkpt lat="62.633339886746" lon="17.972491270026">
        <ele>78.8</ele>
        <time>2017-12-25T12:46:33Z</time>
      </trkpt>
      <trkpt lat="62.633331421027" lon="17.972546339109">
        <ele>79</ele>
        <time>2017-12-25T12:46:34Z</time>
      </trkpt>
      <trkpt lat="62.633321446566" lon="17.972598977441">
        <ele>79</ele>
        <time>2017-12-25T12:46:35Z</time>
      </trkpt>
      <trkpt lat="62.633309208992" lon="17.972655471447">
        <ele>79.2</ele>
        <time>2017-12-25T12:46:36Z</time>
      </trkpt>
      <trkpt lat="62.633295630314" lon="17.972709199426">
        <ele>79.2</ele>
        <time>2017-12-25T12:46:37Z</time>
      </trkpt>
      <trkpt lat="62.633283895654" lon="17.972763597957">
        <ele>79.2</ele>
        <time>2017-12-25T12:46:38Z</time>
      </trkpt>
      <trkpt lat="62.633273250641" lon="17.972818750859">
        <ele>79.4</ele>
        <time>2017-12-25T12:46:39Z</time>
      </trkpt>
      <trkpt lat="62.633261180705" lon="17.972864013119">
        <ele>79.4</ele>
        <time>2017-12-25T12:46:40Z</time>
      </trkpt>
      <trkpt lat="62.633250787149" lon="17.972916232356">
        <ele>79.6</ele>
        <time>2017-12-25T12:46:41Z</time>
      </trkpt>
      <trkpt lat="62.633238549575" lon="17.972976330579">
        <ele>79.8</ele>
        <time>2017-12-25T12:46:42Z</time>
      </trkpt>
      <trkpt lat="62.633227736924" lon="17.973028046902">
        <ele>79.8</ele>
        <time>2017-12-25T12:46:43Z</time>
      </trkpt>
      <trkpt lat="62.633217343368" lon="17.973081355786">
        <ele>80</ele>
        <time>2017-12-25T12:46:44Z</time>
      </trkpt>
      <trkpt lat="62.633203261776" lon="17.973136843964">
        <ele>80.2</ele>
        <time>2017-12-25T12:46:45Z</time>
      </trkpt>
      <trkpt lat="62.633190856564" lon="17.97319417616">
        <ele>80.2</ele>
        <time>2017-12-25T12:46:46Z</time>
      </trkpt>
      <trkpt lat="62.633177529343" lon="17.973251256899">
        <ele>80.2</ele>
        <time>2017-12-25T12:46:47Z</time>
      </trkpt>
      <trkpt lat="62.633166632873" lon="17.973303895231">
        <ele>80.4</ele>
        <time>2017-12-25T12:46:48Z</time>
      </trkpt>
      <trkpt lat="62.633153389471" lon="17.973358042305">
        <ele>80.4</ele>
        <time>2017-12-25T12:46:49Z</time>
      </trkpt>
      <trkpt lat="62.633142073906" lon="17.973411015913">
        <ele>80.6</ele>
        <time>2017-12-25T12:46:50Z</time>
      </trkpt>
      <trkpt lat="62.633130339246" lon="17.973470862679">
        <ele>80.6</ele>
        <time>2017-12-25T12:46:51Z</time>
      </trkpt>
      <trkpt lat="62.633117347301" lon="17.973525680305">
        <ele>80.6</ele>
        <time>2017-12-25T12:46:52Z</time>
      </trkpt>
      <trkpt lat="62.633106367012" lon="17.973577648085">
        <ele>80.8</ele>
        <time>2017-12-25T12:46:53Z</time>
      </trkpt>
      <trkpt lat="62.633091698687" lon="17.973632298073">
        <ele>80.8</ele>
        <time>2017-12-25T12:46:54Z</time>
      </trkpt>
      <trkpt lat="62.633079964027" lon="17.973678230885">
        <ele>81</ele>
        <time>2017-12-25T12:46:55Z</time>
      </trkpt>
      <trkpt lat="62.63306713972" lon="17.973734138158">
        <ele>81</ele>
        <time>2017-12-25T12:46:56Z</time>
      </trkpt>
      <trkpt lat="62.633051968481" lon="17.973794655476">
        <ele>81.2</ele>
        <time>2017-12-25T12:46:57Z</time>
      </trkpt>
      <trkpt lat="62.633040066183" lon="17.973850646568">
        <ele>81.2</ele>
        <time>2017-12-25T12:46:58Z</time>
      </trkpt>
      <trkpt lat="62.633025314039" lon="17.973908146402">
        <ele>81.2</ele>
        <time>2017-12-25T12:46:59Z</time>
      </trkpt>
      <trkpt lat="62.633013663198" lon="17.97396028182">
        <ele>81.4</ele>
        <time>2017-12-25T12:47:00Z</time>
      </trkpt>
      <trkpt lat="62.632999330149" lon="17.974019122758">
        <ele>81.4</ele>
        <time>2017-12-25T12:47:01Z</time>
      </trkpt>
      <trkpt lat="62.632984745643" lon="17.974073856565">
        <ele>81.4</ele>
        <time>2017-12-25T12:47:02Z</time>
      </trkpt>
      <trkpt lat="62.632971669879" lon="17.974128171277">
        <ele>81.6</ele>
        <time>2017-12-25T12:47:03Z</time>
      </trkpt>
      <trkpt lat="62.632958342658" lon="17.974182066894">
        <ele>81.6</ele>
        <time>2017-12-25T12:47:04Z</time>
      </trkpt>
      <trkpt lat="62.632945937446" lon="17.974232945027">
        <ele>81.8</ele>
        <time>2017-12-25T12:47:05Z</time>
      </trkpt>
      <trkpt lat="62.632925317972" lon="17.974292372698">
        <ele>81.8</ele>
        <time>2017-12-25T12:47:06Z</time>
      </trkpt>
      <trkpt lat="62.632903273575" lon="17.974339646614">
        <ele>81.8</ele>
        <time>2017-12-25T12:47:07Z</time>
      </trkpt>
      <trkpt lat="62.632879301341" lon="17.97438440596">
        <ele>82</ele>
        <time>2017-12-25T12:47:08Z</time>
      </trkpt>
      <trkpt lat="62.632853904184" lon="17.974421370139">
        <ele>82</ele>
        <time>2017-12-25T12:47:09Z</time>
      </trkpt>
      <trkpt lat="62.632831105416" lon="17.974451628798">
        <ele>82.2</ele>
        <time>2017-12-25T12:47:10Z</time>
      </trkpt>
      <trkpt lat="62.632802523137" lon="17.974470236616">
        <ele>82.2</ele>
        <time>2017-12-25T12:47:11Z</time>
      </trkpt>
      <trkpt lat="62.632768911718" lon="17.974480294896">
        <ele>82.2</ele>
        <time>2017-12-25T12:47:12Z</time>
      </trkpt>
      <trkpt lat="62.63273437829" lon="17.974484904941">
        <ele>82.4</ele>
        <time>2017-12-25T12:47:13Z</time>
      </trkpt>
      <trkpt lat="62.632706382744" lon="17.974482222733">
        <ele>82.4</ele>
        <time>2017-12-25T12:47:14Z</time>
      </trkpt>
      <trkpt lat="62.632675956447" lon="17.974474679023">
        <ele>82.2</ele>
        <time>2017-12-25T12:47:15Z</time>
      </trkpt>
      <trkpt lat="62.632637567345" lon="17.974466129485">
        <ele>82.2</ele>
        <time>2017-12-25T12:47:16Z</time>
      </trkpt>
      <trkpt lat="62.632607727781" lon="17.974452131712">
        <ele>82.2</ele>
        <time>2017-12-25T12:47:17Z</time>
      </trkpt>
      <trkpt lat="62.632576966208" lon="17.974423046519">
        <ele>82.2</ele>
        <time>2017-12-25T12:47:18Z</time>
      </trkpt>
      <trkpt lat="62.632546539911" lon="17.974405528348">
        <ele>82.4</ele>
        <time>2017-12-25T12:47:19Z</time>
      </trkpt>
      <trkpt lat="62.632522483858" lon="17.974383148675">
        <ele>82.2</ele>
        <time>2017-12-25T12:47:20Z</time>
      </trkpt>
      <trkpt lat="62.632494572131" lon="17.974351968007">
        <ele>82.2</ele>
        <time>2017-12-25T12:47:21Z</time>
      </trkpt>
      <trkpt lat="62.632472611553" lon="17.974317853674">
        <ele>82.4</ele>
        <time>2017-12-25T12:47:22Z</time>
      </trkpt>
      <trkpt lat="62.632449812785" lon="17.974286505368">
        <ele>82.4</ele>
        <time>2017-12-25T12:47:23Z</time>
      </trkpt>
      <trkpt lat="62.632424583266" lon="17.974258174546">
        <ele>82.4</ele>
        <time>2017-12-25T12:47:24Z</time>
      </trkpt>
      <trkpt lat="62.632397174453" lon="17.974240656375">
        <ele>82.4</ele>
        <time>2017-12-25T12:47:25Z</time>
      </trkpt>
      <trkpt lat="62.632369514183" lon="17.974211319725">
        <ele>82.4</ele>
        <time>2017-12-25T12:47:26Z</time>
      </trkpt>
      <trkpt lat="62.632342273008" lon="17.974180809609">
        <ele>82.4</ele>
        <time>2017-12-25T12:47:27Z</time>
      </trkpt>
      <trkpt lat="62.632313271634" lon="17.974144180706">
        <ele>82.4</ele>
        <time>2017-12-25T12:47:28Z</time>
      </trkpt>
      <trkpt lat="62.632286114278" lon="17.974114927875">
        <ele>82.4</ele>
        <time>2017-12-25T12:47:29Z</time>
      </trkpt>
      <trkpt lat="62.632257112904" lon="17.974093805487">
        <ele>82.4</ele>
        <time>2017-12-25T12:47:30Z</time>
      </trkpt>
      <trkpt lat="62.632225932236" lon="17.974065390846">
        <ele>82.4</ele>
        <time>2017-12-25T12:47:31Z</time>
      </trkpt>
      <trkpt lat="62.632198271966" lon="17.974039826051">
        <ele>82.4</ele>
        <time>2017-12-25T12:47:32Z</time>
      </trkpt>
      <trkpt lat="62.632170527877" lon="17.974004202976">
        <ele>82.4</ele>
        <time>2017-12-25T12:47:33Z</time>
      </trkpt>
      <trkpt lat="62.632142783788" lon="17.973975117783">
        <ele>82.4</ele>
        <time>2017-12-25T12:47:34Z</time>
      </trkpt>
      <trkpt lat="62.632120320296" lon="17.973955755594">
        <ele>82.4</ele>
        <time>2017-12-25T12:47:35Z</time>
      </trkpt>
      <trkpt lat="62.632082601746" lon="17.973918456139">
        <ele>82.2</ele>
        <time>2017-12-25T12:47:36Z</time>
      </trkpt>
      <trkpt lat="62.632057204589" lon="17.973888951851">
        <ele>82.2</ele>
        <time>2017-12-25T12:47:37Z</time>
      </trkpt>
      <trkpt lat="62.632027448844" lon="17.973851652396">
        <ele>82.2</ele>
        <time>2017-12-25T12:47:38Z</time>
      </trkpt>
      <trkpt lat="62.631997776918" lon="17.973825081773">
        <ele>82.2</ele>
        <time>2017-12-25T12:47:39Z</time>
      </trkpt>
      <trkpt lat="62.63196994901" lon="17.973795912761">
        <ele>82.2</ele>
        <time>2017-12-25T12:47:40Z</time>
      </trkpt>
      <trkpt lat="62.631941953464" lon="17.973763726265">
        <ele>82.2</ele>
        <time>2017-12-25T12:47:41Z</time>
      </trkpt>
      <trkpt lat="62.631914125556" lon="17.9737356469">
        <ele>82.2</ele>
        <time>2017-12-25T12:47:42Z</time>
      </trkpt>
      <trkpt lat="62.631888393123" lon="17.973701951662">
        <ele>82.2</ele>
        <time>2017-12-25T12:47:43Z</time>
      </trkpt>
      <trkpt lat="62.631861235767" lon="17.973668088786">
        <ele>82.2</ele>
        <time>2017-12-25T12:47:44Z</time>
      </trkpt>
      <trkpt lat="62.631837263533" lon="17.97363757867">
        <ele>82.2</ele>
        <time>2017-12-25T12:47:45Z</time>
      </trkpt>
      <trkpt lat="62.631807256331" lon="17.973600530672">
        <ele>82.2</ele>
        <time>2017-12-25T12:47:46Z</time>
      </trkpt>
      <trkpt lat="62.631781188622" lon="17.973571277841">
        <ele>82.2</ele>
        <time>2017-12-25T12:47:47Z</time>
      </trkpt>
      <trkpt lat="62.631753444533" lon="17.973536912051">
        <ele>82</ele>
        <time>2017-12-25T12:47:48Z</time>
      </trkpt>
      <trkpt lat="62.63172352115" lon="17.973506234297">
        <ele>82</ele>
        <time>2017-12-25T12:47:49Z</time>
      </trkpt>
      <trkpt lat="62.631693765405" lon="17.973481088597">
        <ele>82</ele>
        <time>2017-12-25T12:47:50Z</time>
      </trkpt>
      <trkpt lat="62.631660573081" lon="17.973462983693">
        <ele>82.2</ele>
        <time>2017-12-25T12:47:51Z</time>
      </trkpt>
      <trkpt lat="62.631629057137" lon="17.973473544887">
        <ele>82</ele>
        <time>2017-12-25T12:47:52Z</time>
      </trkpt>
      <trkpt lat="62.631594272252" lon="17.973493074714">
        <ele>82</ele>
        <time>2017-12-25T12:47:53Z</time>
      </trkpt>
      <trkpt lat="62.631563007765" lon="17.973520734984">
        <ele>82</ele>
        <time>2017-12-25T12:47:54Z</time>
      </trkpt>
      <trkpt lat="62.631535515133" lon="17.973544623399">
        <ele>81.8</ele>
        <time>2017-12-25T12:47:55Z</time>
      </trkpt>
      <trkpt lat="62.631506178483" lon="17.973572032212">
        <ele>81.8</ele>
        <time>2017-12-25T12:47:56Z</time>
      </trkpt>
      <trkpt lat="62.631477847661" lon="17.973602877604">
        <ele>81.8</ele>
        <time>2017-12-25T12:47:57Z</time>
      </trkpt>
      <trkpt lat="62.631449768296" lon="17.97363422591">
        <ele>81.6</ele>
        <time>2017-12-25T12:47:58Z</time>
      </trkpt>
      <trkpt lat="62.631422275664" lon="17.973667334415">
        <ele>81.6</ele>
        <time>2017-12-25T12:47:59Z</time>
      </trkpt>
      <trkpt lat="62.631394196299" lon="17.97370128111">
        <ele>81.8</ele>
        <time>2017-12-25T12:48:00Z</time>
      </trkpt>
      <trkpt lat="62.631363518545" lon="17.973735982176">
        <ele>81.8</ele>
        <time>2017-12-25T12:48:01Z</time>
      </trkpt>
      <trkpt lat="62.631334181895" lon="17.973770767061">
        <ele>81.6</ele>
        <time>2017-12-25T12:48:02Z</time>
      </trkpt>
      <trkpt lat="62.631307192177" lon="17.973801780091">
        <ele>81.6</ele>
        <time>2017-12-25T12:48:03Z</time>
      </trkpt>
      <trkpt lat="62.63128095683" lon="17.973837151709">
        <ele>81.6</ele>
        <time>2017-12-25T12:48:04Z</time>
      </trkpt>
      <trkpt lat="62.631251703999" lon="17.973867578006">
        <ele>81.8</ele>
        <time>2017-12-25T12:48:05Z</time>
      </trkpt>
      <trkpt lat="62.631219517503" lon="17.973898423398">
        <ele>81.8</ele>
        <time>2017-12-25T12:48:06Z</time>
      </trkpt>
      <trkpt lat="62.631190767586" lon="17.973923150003">
        <ele>81.6</ele>
        <time>2017-12-25T12:48:07Z</time>
      </trkpt>
      <trkpt lat="62.631160425108" lon="17.973949050074">
        <ele>81.6</ele>
        <time>2017-12-25T12:48:08Z</time>
      </trkpt>
      <trkpt lat="62.631132932476" lon="17.97396782553">
        <ele>81.6</ele>
        <time>2017-12-25T12:48:09Z</time>
      </trkpt>
      <trkpt lat="62.63110326055" lon="17.973975704516">
        <ele>81.4</ele>
        <time>2017-12-25T12:48:10Z</time>
      </trkpt>
      <trkpt lat="62.631071325511" lon="17.973984086416">
        <ele>81.4</ele>
        <time>2017-12-25T12:48:11Z</time>
      </trkpt>
      <trkpt lat="62.631040061024" lon="17.973983499683">
        <ele>81.6</ele>
        <time>2017-12-25T12:48:12Z</time>
      </trkpt>
      <trkpt lat="62.631006449605" lon="17.97397285467">
        <ele>81.4</ele>
        <time>2017-12-25T12:48:13Z</time>
      </trkpt>
      <trkpt lat="62.630974766023" lon="17.973958270164">
        <ele>81.4</ele>
        <time>2017-12-25T12:48:14Z</time>
      </trkpt>
      <trkpt lat="62.630943752993" lon="17.9739284306">
        <ele>81.4</ele>
        <time>2017-12-25T12:48:15Z</time>
      </trkpt>
      <trkpt lat="62.630914164886" lon="17.973889370946">
        <ele>81.4</ele>
        <time>2017-12-25T12:48:16Z</time>
      </trkpt>
      <trkpt lat="62.630887175168" lon="17.97384293522">
        <ele>81.4</ele>
        <time>2017-12-25T12:48:17Z</time>
      </trkpt>
      <trkpt lat="62.630859095803" lon="17.973788788146">
        <ele>81.4</ele>
        <time>2017-12-25T12:48:18Z</time>
      </trkpt>
      <trkpt lat="62.630838727786" lon="17.973745034628">
        <ele>81.2</ele>
        <time>2017-12-25T12:48:19Z</time>
      </trkpt>
      <trkpt lat="62.630818778864" lon="17.97369289921">
        <ele>81.2</ele>
        <time>2017-12-25T12:48:20Z</time>
      </trkpt>
      <trkpt lat="62.630798410847" lon="17.97363254953">
        <ele>81.2</ele>
        <time>2017-12-25T12:48:21Z</time>
      </trkpt>
      <trkpt lat="62.630779383934" lon="17.973578150999">
        <ele>81</ele>
        <time>2017-12-25T12:48:22Z</time>
      </trkpt>
      <trkpt lat="62.630760776116" lon="17.973520651165">
        <ele>81</ele>
        <time>2017-12-25T12:48:23Z</time>
      </trkpt>
      <trkpt lat="62.630742335936" lon="17.97346658791">
        <ele>81</ele>
        <time>2017-12-25T12:48:24Z</time>
      </trkpt>
      <trkpt lat="62.630724985403" lon="17.973411518827">
        <ele>81</ele>
        <time>2017-12-25T12:48:25Z</time>
      </trkpt>
      <trkpt lat="62.630708221603" lon="17.973354438088">
        <ele>81</ele>
        <time>2017-12-25T12:48:26Z</time>
      </trkpt>
      <trkpt lat="62.630690200518" lon="17.973296267702">
        <ele>80.8</ele>
        <time>2017-12-25T12:48:27Z</time>
      </trkpt>
      <trkpt lat="62.630673520537" lon="17.973236588574">
        <ele>80.6</ele>
        <time>2017-12-25T12:48:28Z</time>
      </trkpt>
      <trkpt lat="62.63065734347" lon="17.97317657417">
        <ele>80.6</ele>
        <time>2017-12-25T12:48:29Z</time>
      </trkpt>
      <trkpt lat="62.630615266332" lon="17.97305000748">
        <ele>80.4</ele>
        <time>2017-12-25T12:48:31Z</time>
      </trkpt>
      <trkpt lat="62.630595820324" lon="17.972987646144">
        <ele>80.2</ele>
        <time>2017-12-25T12:48:32Z</time>
      </trkpt>
      <trkpt lat="62.630579475619" lon="17.972912795777">
        <ele>80</ele>
        <time>2017-12-25T12:48:33Z</time>
      </trkpt>
      <trkpt lat="62.630562460362" lon="17.972850099165">
        <ele>79.8</ele>
        <time>2017-12-25T12:48:34Z</time>
      </trkpt>
      <trkpt lat="62.630544942191" lon="17.972785307078">
        <ele>79.8</ele>
        <time>2017-12-25T12:48:35Z</time>
      </trkpt>
      <trkpt lat="62.63052826221" lon="17.972713558014">
        <ele>79.8</ele>
        <time>2017-12-25T12:48:36Z</time>
      </trkpt>
      <trkpt lat="62.630509235297" lon="17.972648179194">
        <ele>79.8</ele>
        <time>2017-12-25T12:48:37Z</time>
      </trkpt>
      <trkpt lat="62.630495991895" lon="17.972574669931">
        <ele>79.8</ele>
        <time>2017-12-25T12:48:38Z</time>
      </trkpt>
      <trkpt lat="62.630482413217" lon="17.972505938351">
        <ele>79.8</ele>
        <time>2017-12-25T12:48:39Z</time>
      </trkpt>
      <trkpt lat="62.630471013833" lon="17.972438883151">
        <ele>79.6</ele>
        <time>2017-12-25T12:48:40Z</time>
      </trkpt>
      <trkpt lat="62.630458021888" lon="17.97237358815">
        <ele>79.6</ele>
        <time>2017-12-25T12:48:41Z</time>
      </trkpt>
      <trkpt lat="62.630441341907" lon="17.97229647467">
        <ele>79.4</ele>
        <time>2017-12-25T12:48:42Z</time>
      </trkpt>
      <trkpt lat="62.630427595591" lon="17.972218020086">
        <ele>79.4</ele>
        <time>2017-12-25T12:48:43Z</time>
      </trkpt>
      <trkpt lat="62.630417118216" lon="17.972148198859">
        <ele>79.2</ele>
        <time>2017-12-25T12:48:44Z</time>
      </trkpt>
      <trkpt lat="62.630407227574" lon="17.972074270501">
        <ele>79.4</ele>
        <time>2017-12-25T12:48:45Z</time>
      </trkpt>
      <trkpt lat="62.630397923665" lon="17.971999420134">
        <ele>79.4</ele>
        <time>2017-12-25T12:48:46Z</time>
      </trkpt>
      <trkpt lat="62.630390128498" lon="17.97192431831">
        <ele>79.4</ele>
        <time>2017-12-25T12:48:47Z</time>
      </trkpt>
      <trkpt lat="62.630381662779" lon="17.97185307216">
        <ele>79.2</ele>
        <time>2017-12-25T12:48:48Z</time>
      </trkpt>
      <trkpt lat="62.630373113241" lon="17.971791465195">
        <ele>79.2</ele>
        <time>2017-12-25T12:48:49Z</time>
      </trkpt>
      <trkpt lat="62.630365820988" lon="17.971718375027">
        <ele>79.2</ele>
        <time>2017-12-25T12:48:50Z</time>
      </trkpt>
      <trkpt lat="62.630355678889" lon="17.971638160244">
        <ele>79.2</ele>
        <time>2017-12-25T12:48:51Z</time>
      </trkpt>
      <trkpt lat="62.630344530962" lon="17.971562723144">
        <ele>79</ele>
        <time>2017-12-25T12:48:52Z</time>
      </trkpt>
      <trkpt lat="62.630339753279" lon="17.971482927456">
        <ele>78.8</ele>
        <time>2017-12-25T12:48:53Z</time>
      </trkpt>
      <trkpt lat="62.630334137406" lon="17.971399527551">
        <ele>78.6</ele>
        <time>2017-12-25T12:48:54Z</time>
      </trkpt>
      <trkpt lat="62.630332377207" lon="17.971322162614">
        <ele>78.8</ele>
        <time>2017-12-25T12:48:55Z</time>
      </trkpt>
      <trkpt lat="62.63032877299" lon="17.971246390238">
        <ele>78.6</ele>
        <time>2017-12-25T12:48:56Z</time>
      </trkpt>
      <trkpt lat="62.63032542023" lon="17.971155195166">
        <ele>78.4</ele>
        <time>2017-12-25T12:48:57Z</time>
      </trkpt>
      <trkpt lat="62.630323492393" lon="17.971080428618">
        <ele>78.4</ele>
        <time>2017-12-25T12:48:58Z</time>
      </trkpt>
      <trkpt lat="62.630324246764" lon="17.971001974034">
        <ele>78.6</ele>
        <time>2017-12-25T12:48:59Z</time>
      </trkpt>
      <trkpt lat="62.63032709661" lon="17.970852860033">
        <ele>78.6</ele>
        <time>2017-12-25T12:49:01Z</time>
      </trkpt>
      <trkpt lat="62.630336651976" lon="17.970772729069">
        <ele>78.6</ele>
        <time>2017-12-25T12:49:02Z</time>
      </trkpt>
      <trkpt lat="62.630349811559" lon="17.970703243118">
        <ele>78.6</ele>
        <time>2017-12-25T12:49:03Z</time>
      </trkpt>
      <trkpt lat="62.630369592843" lon="17.97064524037">
        <ele>78.4</ele>
        <time>2017-12-25T12:49:04Z</time>
      </trkpt>
      <trkpt lat="62.630390212317" lon="17.970589416916">
        <ele>78.4</ele>
        <time>2017-12-25T12:49:05Z</time>
      </trkpt>
      <trkpt lat="62.630413094904" lon="17.970528815779">
        <ele>78.2</ele>
        <time>2017-12-25T12:49:06Z</time>
      </trkpt>
      <trkpt lat="62.630437234776" lon="17.970476931818">
        <ele>78</ele>
        <time>2017-12-25T12:49:07Z</time>
      </trkpt>
      <trkpt lat="62.630461374648" lon="17.970431921015">
        <ele>78</ele>
        <time>2017-12-25T12:49:08Z</time>
      </trkpt>
      <trkpt lat="62.630487526176" lon="17.970392777542">
        <ele>78</ele>
        <time>2017-12-25T12:49:09Z</time>
      </trkpt>
      <trkpt lat="62.630512755695" lon="17.970364781996">
        <ele>77.6</ele>
        <time>2017-12-25T12:49:10Z</time>
      </trkpt>
      <trkpt lat="62.630536225015" lon="17.970339217201">
        <ele>77.4</ele>
        <time>2017-12-25T12:49:11Z</time>
      </trkpt>
      <trkpt lat="62.630565394027" lon="17.970310383465">
        <ele>77</ele>
        <time>2017-12-25T12:49:12Z</time>
      </trkpt>
      <trkpt lat="62.630590539727" lon="17.970292278561">
        <ele>76.8</ele>
        <time>2017-12-25T12:49:13Z</time>
      </trkpt>
      <trkpt lat="62.630616188341" lon="17.970277023503">
        <ele>76.6</ele>
        <time>2017-12-25T12:49:14Z</time>
      </trkpt>
      <trkpt lat="62.630637478367" lon="17.970262019902">
        <ele>76.6</ele>
        <time>2017-12-25T12:49:15Z</time>
      </trkpt>
      <trkpt lat="62.630663629895" lon="17.970247183939">
        <ele>76.4</ele>
        <time>2017-12-25T12:49:16Z</time>
      </trkpt>
      <trkpt lat="62.630690368156" lon="17.970234694908">
        <ele>76.2</ele>
        <time>2017-12-25T12:49:17Z</time>
      </trkpt>
      <trkpt lat="62.630715346218" lon="17.970222122058">
        <ele>76</ele>
        <time>2017-12-25T12:49:18Z</time>
      </trkpt>
      <trkpt lat="62.630739653728" lon="17.970213153425">
        <ele>76</ele>
        <time>2017-12-25T12:49:19Z</time>
      </trkpt>
      <trkpt lat="62.630761530487" lon="17.970205358258">
        <ele>75.8</ele>
        <time>2017-12-25T12:49:20Z</time>
      </trkpt>
      <trkpt lat="62.630782317599" lon="17.970194797064">
        <ele>75.8</ele>
        <time>2017-12-25T12:49:21Z</time>
      </trkpt>
      <trkpt lat="62.630798243209" lon="17.970188259182">
        <ele>75.6</ele>
        <time>2017-12-25T12:49:22Z</time>
      </trkpt>
      <trkpt lat="62.63081324681" lon="17.970185576974">
        <ele>75.6</ele>
        <time>2017-12-25T12:49:23Z</time>
      </trkpt>
      <trkpt lat="62.630830429705" lon="17.970197982186">
        <ele>75.6</ele>
        <time>2017-12-25T12:49:24Z</time>
      </trkpt>
      <trkpt lat="62.63083168699" lon="17.970189684105">
        <ele>75.6</ele>
        <time>2017-12-25T12:49:25Z</time>
      </trkpt>
      <trkpt lat="62.630842918736" lon="17.970189348829">
        <ele>75.4</ele>
        <time>2017-12-25T12:49:26Z</time>
      </trkpt>
      <trkpt lat="62.630842751098" lon="17.970192366313">
        <ele>75.4</ele>
        <time>2017-12-25T12:49:27Z</time>
      </trkpt>
      <trkpt lat="62.630843254012" lon="17.970178536178">
        <ele>75.2</ele>
        <time>2017-12-25T12:49:28Z</time>
      </trkpt>
      <trkpt lat="62.630837805777" lon="17.970162275292">
        <ele>75.2</ele>
        <time>2017-12-25T12:49:29Z</time>
      </trkpt>
      <trkpt lat="62.630850210989" lon="17.970163616396">
        <ele>75.2</ele>
        <time>2017-12-25T12:49:30Z</time>
      </trkpt>
      <trkpt lat="62.630852390283" lon="17.9701733394">
        <ele>75.2</ele>
        <time>2017-12-25T12:49:31Z</time>
      </trkpt>
      <trkpt lat="62.631088592225" lon="17.970033194032">
        <ele>75</ele>
        <time>2017-12-25T12:51:17Z</time>
      </trkpt>
      <trkpt lat="62.631111223355" lon="17.970022884295">
        <ele>75</ele>
        <time>2017-12-25T12:51:18Z</time>
      </trkpt>
      <trkpt lat="62.631132848657" lon="17.970011401092">
        <ele>75</ele>
        <time>2017-12-25T12:51:19Z</time>
      </trkpt>
      <trkpt lat="62.631150702104" lon="17.970002013364">
        <ele>75</ele>
        <time>2017-12-25T12:51:20Z</time>
      </trkpt>
      <trkpt lat="62.631174841976" lon="17.96999145217">
        <ele>74.8</ele>
        <time>2017-12-25T12:51:21Z</time>
      </trkpt>
      <trkpt lat="62.631192695423" lon="17.969980052786">
        <ele>74.8</ele>
        <time>2017-12-25T12:51:22Z</time>
      </trkpt>
      <trkpt lat="62.631216500019" lon="17.969963288986">
        <ele>74.6</ele>
        <time>2017-12-25T12:51:23Z</time>
      </trkpt>
      <trkpt lat="62.631239131149" lon="17.969949794127">
        <ele>74.6</ele>
        <time>2017-12-25T12:51:24Z</time>
      </trkpt>
      <trkpt lat="62.631257152234" lon="17.969936550725">
        <ele>74.6</ele>
        <time>2017-12-25T12:51:25Z</time>
      </trkpt>
      <trkpt lat="62.631280873011" lon="17.969919200192">
        <ele>74.6</ele>
        <time>2017-12-25T12:51:26Z</time>
      </trkpt>
      <trkpt lat="62.631303085046" lon="17.96990595679">
        <ele>74.4</ele>
        <time>2017-12-25T12:51:27Z</time>
      </trkpt>
      <trkpt lat="62.631321106131" lon="17.969890953189">
        <ele>74.4</ele>
        <time>2017-12-25T12:51:28Z</time>
      </trkpt>
      <trkpt lat="62.631343318166" lon="17.969875027579">
        <ele>74.4</ele>
        <time>2017-12-25T12:51:29Z</time>
      </trkpt>
      <trkpt lat="62.631365111106" lon="17.969861784177">
        <ele>74.4</ele>
        <time>2017-12-25T12:51:30Z</time>
      </trkpt>
      <trkpt lat="62.63138573058" lon="17.969846110024">
        <ele>74.4</ele>
        <time>2017-12-25T12:51:31Z</time>
      </trkpt>
      <trkpt lat="62.631408948443" lon="17.969832447527">
        <ele>74.4</ele>
        <time>2017-12-25T12:51:32Z</time>
      </trkpt>
      <trkpt lat="62.631430070831" lon="17.969821970152">
        <ele>74.2</ele>
        <time>2017-12-25T12:51:33Z</time>
      </trkpt>
      <trkpt lat="62.631447924278" lon="17.969811073682">
        <ele>74.2</ele>
        <time>2017-12-25T12:51:34Z</time>
      </trkpt>
      <trkpt lat="62.631470136313" lon="17.969802188868">
        <ele>74.2</ele>
        <time>2017-12-25T12:51:35Z</time>
      </trkpt>
      <trkpt lat="62.63149385709" lon="17.969790538027">
        <ele>74</ele>
        <time>2017-12-25T12:51:36Z</time>
      </trkpt>
      <trkpt lat="62.631515482392" lon="17.969781569394">
        <ele>74</ele>
        <time>2017-12-25T12:51:37Z</time>
      </trkpt>
      <trkpt lat="62.631538448798" lon="17.969768828906">
        <ele>74.2</ele>
        <time>2017-12-25T12:51:38Z</time>
      </trkpt>
      <trkpt lat="62.631559655005" lon="17.969753154753">
        <ele>74.2</ele>
        <time>2017-12-25T12:51:39Z</time>
      </trkpt>
      <trkpt lat="62.631580106841" lon="17.969741168636">
        <ele>74</ele>
        <time>2017-12-25T12:51:40Z</time>
      </trkpt>
      <trkpt lat="62.631605671636" lon="17.969725829759">
        <ele>74</ele>
        <time>2017-12-25T12:51:41Z</time>
      </trkpt>
      <trkpt lat="62.631627883671" lon="17.969706886665">
        <ele>74.2</ele>
        <time>2017-12-25T12:51:42Z</time>
      </trkpt>
      <trkpt lat="62.63165059862" lon="17.969685345182">
        <ele>74</ele>
        <time>2017-12-25T12:51:43Z</time>
      </trkpt>
      <trkpt lat="62.631673900302" lon="17.96966539626">
        <ele>74</ele>
        <time>2017-12-25T12:51:44Z</time>
      </trkpt>
      <trkpt lat="62.631692256663" lon="17.969646285528">
        <ele>74</ele>
        <time>2017-12-25T12:51:45Z</time>
      </trkpt>
      <trkpt lat="62.631714636336" lon="17.969620301638">
        <ele>74</ele>
        <time>2017-12-25T12:51:46Z</time>
      </trkpt>
      <trkpt lat="62.631737938018" lon="17.969593479558">
        <ele>73.8</ele>
        <time>2017-12-25T12:51:47Z</time>
      </trkpt>
      <trkpt lat="62.631756881112" lon="17.969570596971">
        <ele>73.8</ele>
        <time>2017-12-25T12:51:48Z</time>
      </trkpt>
      <trkpt lat="62.631783200278" lon="17.969549977497">
        <ele>73.8</ele>
        <time>2017-12-25T12:51:49Z</time>
      </trkpt>
      <trkpt lat="62.631804574123" lon="17.969533716611">
        <ele>73.6</ele>
        <time>2017-12-25T12:51:50Z</time>
      </trkpt>
      <trkpt lat="62.631827959624" lon="17.969522401046">
        <ele>73.4</ele>
        <time>2017-12-25T12:51:51Z</time>
      </trkpt>
      <trkpt lat="62.631849417288" lon="17.969517288087">
        <ele>73.2</ele>
        <time>2017-12-25T12:51:52Z</time>
      </trkpt>
      <trkpt lat="62.631873473341" lon="17.969516449897">
        <ele>73.2</ele>
        <time>2017-12-25T12:51:53Z</time>
      </trkpt>
      <trkpt lat="62.631896523566" lon="17.969514102965">
        <ele>73</ele>
        <time>2017-12-25T12:51:54Z</time>
      </trkpt>
      <trkpt lat="62.631917729773" lon="17.969511588395">
        <ele>73</ele>
        <time>2017-12-25T12:51:55Z</time>
      </trkpt>
      <trkpt lat="62.631943378387" lon="17.969507397445">
        <ele>73</ele>
        <time>2017-12-25T12:51:56Z</time>
      </trkpt>
      <trkpt lat="62.631966931526" lon="17.969509073825">
        <ele>73.2</ele>
        <time>2017-12-25T12:51:57Z</time>
      </trkpt>
      <trkpt lat="62.631991071398" lon="17.969505469608">
        <ele>73.2</ele>
        <time>2017-12-25T12:51:58Z</time>
      </trkpt>
      <trkpt lat="62.632016971469" lon="17.969500691925">
        <ele>73.4</ele>
        <time>2017-12-25T12:51:59Z</time>
      </trkpt>
      <trkpt lat="62.632036920391" lon="17.969495578966">
        <ele>73.6</ele>
        <time>2017-12-25T12:52:00Z</time>
      </trkpt>
      <trkpt lat="62.632065251213" lon="17.969494824595">
        <ele>73.6</ele>
        <time>2017-12-25T12:52:01Z</time>
      </trkpt>
      <trkpt lat="62.632089391085" lon="17.969491220378">
        <ele>73.4</ele>
        <time>2017-12-25T12:52:02Z</time>
      </trkpt>
      <trkpt lat="62.632110010559" lon="17.969487197066">
        <ele>73.6</ele>
        <time>2017-12-25T12:52:03Z</time>
      </trkpt>
      <trkpt lat="62.632137167915" lon="17.96948099446">
        <ele>73.6</ele>
        <time>2017-12-25T12:52:04Z</time>
      </trkpt>
      <trkpt lat="62.63216273271" lon="17.969478228433">
        <ele>73.6</ele>
        <time>2017-12-25T12:52:05Z</time>
      </trkpt>
      <trkpt lat="62.632191482627" lon="17.969474959492">
        <ele>73.8</ele>
        <time>2017-12-25T12:52:06Z</time>
      </trkpt>
      <trkpt lat="62.632218220888" lon="17.96947512713">
        <ele>73.8</ele>
        <time>2017-12-25T12:52:07Z</time>
      </trkpt>
      <trkpt lat="62.632242863674" lon="17.969471271456">
        <ele>73.8</ele>
        <time>2017-12-25T12:52:08Z</time>
      </trkpt>
      <trkpt lat="62.632267422641" lon="17.969468505429">
        <ele>73.8</ele>
        <time>2017-12-25T12:52:09Z</time>
      </trkpt>
      <trkpt lat="62.632290891961" lon="17.969465404126">
        <ele>73.8</ele>
        <time>2017-12-25T12:52:10Z</time>
      </trkpt>
      <trkpt lat="62.632318300774" lon="17.969464565936">
        <ele>73.8</ele>
        <time>2017-12-25T12:52:11Z</time>
      </trkpt>
      <trkpt lat="62.632344703759" lon="17.969460458805">
        <ele>73.8</ele>
        <time>2017-12-25T12:52:12Z</time>
      </trkpt>
      <trkpt lat="62.632368675993" lon="17.969461632271">
        <ele>73.8</ele>
        <time>2017-12-25T12:52:13Z</time>
      </trkpt>
      <trkpt lat="62.632393318779" lon="17.969460123529">
        <ele>74</ele>
        <time>2017-12-25T12:52:14Z</time>
      </trkpt>
      <trkpt lat="62.632416536642" lon="17.969457189864">
        <ele>73.8</ele>
        <time>2017-12-25T12:52:15Z</time>
      </trkpt>
      <trkpt lat="62.632442352894" lon="17.969459369158">
        <ele>73.8</ele>
        <time>2017-12-25T12:52:16Z</time>
      </trkpt>
      <trkpt lat="62.632469258793" lon="17.969461883728">
        <ele>73.8</ele>
        <time>2017-12-25T12:52:17Z</time>
      </trkpt>
      <trkpt lat="62.632494907407" lon="17.969461380814">
        <ele>73.8</ele>
        <time>2017-12-25T12:52:18Z</time>
      </trkpt>
      <trkpt lat="62.63252483079" lon="17.969467080506">
        <ele>73.6</ele>
        <time>2017-12-25T12:52:19Z</time>
      </trkpt>
      <trkpt lat="62.632545450264" lon="17.969466242316">
        <ele>73.8</ele>
        <time>2017-12-25T12:52:20Z</time>
      </trkpt>
      <trkpt lat="62.632574451638" lon="17.969468924524">
        <ele>73.6</ele>
        <time>2017-12-25T12:52:21Z</time>
      </trkpt>
      <trkpt lat="62.632599262062" lon="17.969473366931">
        <ele>73.8</ele>
        <time>2017-12-25T12:52:22Z</time>
      </trkpt>
      <trkpt lat="62.632624156305" lon="17.969476971148">
        <ele>73.8</ele>
        <time>2017-12-25T12:52:23Z</time>
      </trkpt>
      <trkpt lat="62.632646452159" lon="17.969482838478">
        <ele>73.8</ele>
        <time>2017-12-25T12:52:24Z</time>
      </trkpt>
      <trkpt lat="62.632669250927" lon="17.969488119075">
        <ele>73.8</ele>
        <time>2017-12-25T12:52:25Z</time>
      </trkpt>
      <trkpt lat="62.632696492102" lon="17.969492812939">
        <ele>74</ele>
        <time>2017-12-25T12:52:26Z</time>
      </trkpt>
      <trkpt lat="62.632723314182" lon="17.969495495147">
        <ele>73.8</ele>
        <time>2017-12-25T12:52:27Z</time>
      </trkpt>
      <trkpt lat="62.632743682199" lon="17.969499099364">
        <ele>74</ele>
        <time>2017-12-25T12:52:28Z</time>
      </trkpt>
      <trkpt lat="62.632768660261" lon="17.969498764088">
        <ele>74</ele>
        <time>2017-12-25T12:52:29Z</time>
      </trkpt>
      <trkpt lat="62.632792381038" lon="17.969499518459">
        <ele>74</ele>
        <time>2017-12-25T12:52:30Z</time>
      </trkpt>
      <trkpt lat="62.632819119299" lon="17.969502619762">
        <ele>74</ele>
        <time>2017-12-25T12:52:31Z</time>
      </trkpt>
      <trkpt lat="62.632842588619" lon="17.969502200667">
        <ele>74</ele>
        <time>2017-12-25T12:52:32Z</time>
      </trkpt>
      <trkpt lat="62.632865303568" lon="17.96950194921">
        <ele>74</ele>
        <time>2017-12-25T12:52:33Z</time>
      </trkpt>
      <trkpt lat="62.632889024345" lon="17.969499602278">
        <ele>74.2</ele>
        <time>2017-12-25T12:52:34Z</time>
      </trkpt>
      <trkpt lat="62.632911739294" lon="17.969500691925">
        <ele>74.2</ele>
        <time>2017-12-25T12:52:35Z</time>
      </trkpt>
      <trkpt lat="62.632940824487" lon="17.969505721065">
        <ele>74.4</ele>
        <time>2017-12-25T12:52:36Z</time>
      </trkpt>
      <trkpt lat="62.632964545264" lon="17.969508487092">
        <ele>74.4</ele>
        <time>2017-12-25T12:52:37Z</time>
      </trkpt>
      <trkpt lat="62.632991199706" lon="17.969509660558">
        <ele>74.4</ele>
        <time>2017-12-25T12:52:38Z</time>
      </trkpt>
      <trkpt lat="62.633017770329" lon="17.969516366078">
        <ele>74.6</ele>
        <time>2017-12-25T12:52:39Z</time>
      </trkpt>
      <trkpt lat="62.633040066183" lon="17.969520473209">
        <ele>74.6</ele>
        <time>2017-12-25T12:52:40Z</time>
      </trkpt>
      <trkpt lat="62.633066804444" lon="17.969523071598">
        <ele>74.6</ele>
        <time>2017-12-25T12:52:41Z</time>
      </trkpt>
      <trkpt lat="62.633094716171" lon="17.969529274204">
        <ele>74.8</ele>
        <time>2017-12-25T12:52:42Z</time>
      </trkpt>
      <trkpt lat="62.633117766396" lon="17.969531453498">
        <ele>74.8</ele>
        <time>2017-12-25T12:52:43Z</time>
      </trkpt>
      <trkpt lat="62.633144839933" lon="17.969532794602">
        <ele>74.8</ele>
        <time>2017-12-25T12:52:44Z</time>
      </trkpt>
      <trkpt lat="62.633166632873" lon="17.969534722439">
        <ele>74.8</ele>
        <time>2017-12-25T12:52:45Z</time>
      </trkpt>
      <trkpt lat="62.633192281487" lon="17.969535560629">
        <ele>75</ele>
        <time>2017-12-25T12:52:46Z</time>
      </trkpt>
      <trkpt lat="62.633220025576" lon="17.969536985552">
        <ele>75</ele>
        <time>2017-12-25T12:52:47Z</time>
      </trkpt>
      <trkpt lat="62.633243578715" lon="17.969534890077">
        <ele>74.8</ele>
        <time>2017-12-25T12:52:48Z</time>
      </trkpt>
      <trkpt lat="62.633273166822" lon="17.969533129878">
        <ele>75</ele>
        <time>2017-12-25T12:52:49Z</time>
      </trkpt>
      <trkpt lat="62.633294037753" lon="17.969531537317">
        <ele>75</ele>
        <time>2017-12-25T12:52:50Z</time>
      </trkpt>
      <trkpt lat="62.63331775853" lon="17.969513600051">
        <ele>75</ele>
        <time>2017-12-25T12:52:51Z</time>
      </trkpt>
      <trkpt lat="62.633332929769" lon="17.969489460179">
        <ele>75</ele>
        <time>2017-12-25T12:52:52Z</time>
      </trkpt>
      <trkpt lat="62.633349442112" lon="17.969461799909">
        <ele>75</ele>
        <time>2017-12-25T12:52:53Z</time>
      </trkpt>
      <trkpt lat="62.633364780989" lon="17.969430954517">
        <ele>75</ele>
        <time>2017-12-25T12:52:54Z</time>
      </trkpt>
      <trkpt lat="62.633373162889" lon="17.969402958971">
        <ele>75</ele>
        <time>2017-12-25T12:52:55Z</time>
      </trkpt>
      <trkpt lat="62.633378778762" lon="17.969356187969">
        <ele>75</ele>
        <time>2017-12-25T12:52:56Z</time>
      </trkpt>
      <trkpt lat="62.633380538961" lon="17.969303968732">
        <ele>75</ele>
        <time>2017-12-25T12:52:57Z</time>
      </trkpt>
      <trkpt lat="62.633382550617" lon="17.969251498038">
        <ele>75</ele>
        <time>2017-12-25T12:52:58Z</time>
      </trkpt>
      <trkpt lat="62.633381293332" lon="17.969211348737">
        <ele>75</ele>
        <time>2017-12-25T12:52:59Z</time>
      </trkpt>
      <trkpt lat="62.633383891721" lon="17.969152591618">
        <ele>75</ele>
        <time>2017-12-25T12:53:00Z</time>
      </trkpt>
      <trkpt lat="62.633386741567" lon="17.969096851983">
        <ele>75</ele>
        <time>2017-12-25T12:53:01Z</time>
      </trkpt>
      <trkpt lat="62.633389926689" lon="17.969047566411">
        <ele>74.8</ele>
        <time>2017-12-25T12:53:02Z</time>
      </trkpt>
      <trkpt lat="62.63339403382" lon="17.969004315807">
        <ele>74.6</ele>
        <time>2017-12-25T12:53:03Z</time>
      </trkpt>
      <trkpt lat="62.633399649693" lon="17.968958047719">
        <ele>74.4</ele>
        <time>2017-12-25T12:53:04Z</time>
      </trkpt>
      <trkpt lat="62.633404259738" lon="17.968908929785">
        <ele>74.2</ele>
        <time>2017-12-25T12:53:05Z</time>
      </trkpt>
      <trkpt lat="62.633410881439" lon="17.968853776883">
        <ele>74.2</ele>
        <time>2017-12-25T12:53:06Z</time>
      </trkpt>
      <trkpt lat="62.633415575303" lon="17.968808849899">
        <ele>74</ele>
        <time>2017-12-25T12:53:07Z</time>
      </trkpt>
      <trkpt lat="62.633419598615" lon="17.968763000906">
        <ele>73.8</ele>
        <time>2017-12-25T12:53:08Z</time>
      </trkpt>
      <trkpt lat="62.633425382126" lon="17.968712458049">
        <ele>73.8</ele>
        <time>2017-12-25T12:53:09Z</time>
      </trkpt>
      <trkpt lat="62.633427058506" lon="17.968671638196">
        <ele>73.6</ele>
        <time>2017-12-25T12:53:10Z</time>
      </trkpt>
      <trkpt lat="62.633432003827" lon="17.968619670416">
        <ele>73.6</ele>
        <time>2017-12-25T12:53:11Z</time>
      </trkpt>
      <trkpt lat="62.633446336876" lon="17.968573653785">
        <ele>73.4</ele>
        <time>2017-12-25T12:53:12Z</time>
      </trkpt>
      <trkpt lat="62.633464357961" lon="17.96853719252">
        <ele>73.2</ele>
        <time>2017-12-25T12:53:13Z</time>
      </trkpt>
      <trkpt lat="62.633481708494" lon="17.968502156178">
        <ele>73.2</ele>
        <time>2017-12-25T12:53:14Z</time>
      </trkpt>
      <trkpt lat="62.633495706267" lon="17.968466449284">
        <ele>73</ele>
        <time>2017-12-25T12:53:15Z</time>
      </trkpt>
      <trkpt lat="62.633510206954" lon="17.968426383802">
        <ele>73</ele>
        <time>2017-12-25T12:53:16Z</time>
      </trkpt>
      <trkpt lat="62.633521103424" lon="17.968384977216">
        <ele>72.6</ele>
        <time>2017-12-25T12:53:17Z</time>
      </trkpt>
      <trkpt lat="62.633531077885" lon="17.968338625309">
        <ele>72.4</ele>
        <time>2017-12-25T12:53:18Z</time>
      </trkpt>
      <trkpt lat="62.633541639079" lon="17.968282047484">
        <ele>72</ele>
        <time>2017-12-25T12:53:19Z</time>
      </trkpt>
      <trkpt lat="62.633548093142" lon="17.968238964518">
        <ele>71.8</ele>
        <time>2017-12-25T12:53:20Z</time>
      </trkpt>
      <trkpt lat="62.633556055947" lon="17.968186577643">
        <ele>71.6</ele>
        <time>2017-12-25T12:53:21Z</time>
      </trkpt>
      <trkpt lat="62.633562342372" lon="17.968142740306">
        <ele>71.4</ele>
        <time>2017-12-25T12:53:22Z</time>
      </trkpt>
      <trkpt lat="62.63356921553" lon="17.968088844689">
        <ele>71.2</ele>
        <time>2017-12-25T12:53:23Z</time>
      </trkpt>
      <trkpt lat="62.633576843059" lon="17.968038218013">
        <ele>71</ele>
        <time>2017-12-25T12:53:24Z</time>
      </trkpt>
      <trkpt lat="62.633582794208" lon="17.967991195554">
        <ele>71</ele>
        <time>2017-12-25T12:53:25Z</time>
      </trkpt>
      <trkpt lat="62.633588745357" lon="17.967935288281">
        <ele>70.8</ele>
        <time>2017-12-25T12:53:26Z</time>
      </trkpt>
      <trkpt lat="62.633594109773" lon="17.967879800103">
        <ele>70.6</ele>
        <time>2017-12-25T12:53:27Z</time>
      </trkpt>
      <trkpt lat="62.633600144741" lon="17.96782892197">
        <ele>70.4</ele>
        <time>2017-12-25T12:53:28Z</time>
      </trkpt>
      <trkpt lat="62.633605676795" lon="17.967777289466">
        <ele>70.2</ele>
        <time>2017-12-25T12:53:29Z</time>
      </trkpt>
      <trkpt lat="62.633612466134" lon="17.967728925903">
        <ele>70.2</ele>
        <time>2017-12-25T12:53:30Z</time>
      </trkpt>
      <trkpt lat="62.633621937681" lon="17.967673940639">
        <ele>70</ele>
        <time>2017-12-25T12:53:31Z</time>
      </trkpt>
      <trkpt lat="62.633629062296" lon="17.96762272723">
        <ele>69.8</ele>
        <time>2017-12-25T12:53:32Z</time>
      </trkpt>
      <trkpt lat="62.633634426712" lon="17.967574615124">
        <ele>69.6</ele>
        <time>2017-12-25T12:53:33Z</time>
      </trkpt>
      <trkpt lat="62.633641886603" lon="17.967519378403">
        <ele>69.6</ele>
        <time>2017-12-25T12:53:34Z</time>
      </trkpt>
      <trkpt lat="62.633648089209" lon="17.967465818062">
        <ele>69.4</ele>
        <time>2017-12-25T12:53:35Z</time>
      </trkpt>
      <trkpt lat="62.633656638747" lon="17.96740312145">
        <ele>69.4</ele>
        <time>2017-12-25T12:53:36Z</time>
      </trkpt>
      <trkpt lat="62.633666948484" lon="17.967350650756">
        <ele>69.2</ele>
        <time>2017-12-25T12:53:37Z</time>
      </trkpt>
      <trkpt lat="62.63367398928" lon="17.967293737655">
        <ele>68.8</ele>
        <time>2017-12-25T12:53:38Z</time>
      </trkpt>
      <trkpt lat="62.633681113895" lon="17.967238249477">
        <ele>68.6</ele>
        <time>2017-12-25T12:53:39Z</time>
      </trkpt>
      <trkpt lat="62.633687651777" lon="17.967187958077">
        <ele>68.2</ele>
        <time>2017-12-25T12:53:40Z</time>
      </trkpt>
      <trkpt lat="62.633694608754" lon="17.967128446587">
        <ele>68</ele>
        <time>2017-12-25T12:53:41Z</time>
      </trkpt>
      <trkpt lat="62.633701314274" lon="17.967069605649">
        <ele>67.6</ele>
        <time>2017-12-25T12:53:42Z</time>
      </trkpt>
      <trkpt lat="62.633706930147" lon="17.967011519082">
        <ele>67.4</ele>
        <time>2017-12-25T12:53:43Z</time>
      </trkpt>
      <trkpt lat="62.633713468029" lon="17.966959467483">
        <ele>67.2</ele>
        <time>2017-12-25T12:53:44Z</time>
      </trkpt>
      <trkpt lat="62.63372008973" lon="17.966912025929">
        <ele>67</ele>
        <time>2017-12-25T12:53:45Z</time>
      </trkpt>
      <trkpt lat="62.633728387811" lon="17.966852011525">
        <ele>66.8</ele>
        <time>2017-12-25T12:53:46Z</time>
      </trkpt>
      <trkpt lat="62.633734674236" lon="17.966796188071">
        <ele>66.4</ele>
        <time>2017-12-25T12:53:47Z</time>
      </trkpt>
      <trkpt lat="62.633742050308" lon="17.966745226119">
        <ele>66.4</ele>
        <time>2017-12-25T12:53:48Z</time>
      </trkpt>
      <trkpt lat="62.633751270398" lon="17.966682194231">
        <ele>66</ele>
        <time>2017-12-25T12:53:49Z</time>
      </trkpt>
      <trkpt lat="62.633756383357" lon="17.966632657202">
        <ele>65.8</ele>
        <time>2017-12-25T12:53:50Z</time>
      </trkpt>
      <trkpt lat="62.633762585963" lon="17.966567781296">
        <ele>65.8</ele>
        <time>2017-12-25T12:53:51Z</time>
      </trkpt>
      <trkpt lat="62.633769123845" lon="17.966513466584">
        <ele>65.6</ele>
        <time>2017-12-25T12:53:52Z</time>
      </trkpt>
      <trkpt lat="62.633775158813" lon="17.966452194895">
        <ele>65.4</ele>
        <time>2017-12-25T12:53:53Z</time>
      </trkpt>
      <trkpt lat="62.633781948152" lon="17.966395449432">
        <ele>65.4</ele>
        <time>2017-12-25T12:53:54Z</time>
      </trkpt>
      <trkpt lat="62.633788066939" lon="17.966338703969">
        <ele>65.2</ele>
        <time>2017-12-25T12:53:55Z</time>
      </trkpt>
      <trkpt lat="62.63379552683" lon="17.966272654597">
        <ele>64.8</ele>
        <time>2017-12-25T12:53:56Z</time>
      </trkpt>
      <trkpt lat="62.633801729436" lon="17.966213143107">
        <ele>64.8</ele>
        <time>2017-12-25T12:53:57Z</time>
      </trkpt>
      <trkpt lat="62.633807429128" lon="17.966156062368">
        <ele>64.6</ele>
        <time>2017-12-25T12:53:58Z</time>
      </trkpt>
      <trkpt lat="62.633813715553" lon="17.966096969973">
        <ele>64.4</ele>
        <time>2017-12-25T12:53:59Z</time>
      </trkpt>
      <trkpt lat="62.633820421073" lon="17.966042990537">
        <ele>64.2</ele>
        <time>2017-12-25T12:54:00Z</time>
      </trkpt>
      <trkpt lat="62.633827629507" lon="17.96597903664">
        <ele>63.8</ele>
        <time>2017-12-25T12:54:01Z</time>
      </trkpt>
      <trkpt lat="62.633833664475" lon="17.965924805747">
        <ele>63.6</ele>
        <time>2017-12-25T12:54:02Z</time>
      </trkpt>
      <trkpt lat="62.633837352511" lon="17.96587761565">
        <ele>63.2</ele>
        <time>2017-12-25T12:54:03Z</time>
      </trkpt>
      <trkpt lat="62.633842046375" lon="17.96581810416">
        <ele>63</ele>
        <time>2017-12-25T12:54:04Z</time>
      </trkpt>
      <trkpt lat="62.633845650592" lon="17.965764879095">
        <ele>62.6</ele>
        <time>2017-12-25T12:54:05Z</time>
      </trkpt>
      <trkpt lat="62.633848248981" lon="17.96570243394">
        <ele>62.6</ele>
        <time>2017-12-25T12:54:06Z</time>
      </trkpt>
      <trkpt lat="62.633850763551" lon="17.965644179735">
        <ele>62.4</ele>
        <time>2017-12-25T12:54:07Z</time>
      </trkpt>
      <trkpt lat="62.63385084737" lon="17.965586260806">
        <ele>62.2</ele>
        <time>2017-12-25T12:54:08Z</time>
      </trkpt>
      <trkpt lat="62.633849003352" lon="17.965529682981">
        <ele>62</ele>
        <time>2017-12-25T12:54:09Z</time>
      </trkpt>
      <trkpt lat="62.633846740239" lon="17.96547696083">
        <ele>62</ele>
        <time>2017-12-25T12:54:10Z</time>
      </trkpt>
      <trkpt lat="62.633844393307" lon="17.965415102408">
        <ele>61.8</ele>
        <time>2017-12-25T12:54:11Z</time>
      </trkpt>
      <trkpt lat="62.633840118538" lon="17.965357183479">
        <ele>61.6</ele>
        <time>2017-12-25T12:54:12Z</time>
      </trkpt>
      <trkpt lat="62.633835089398" lon="17.965298845455">
        <ele>61.6</ele>
        <time>2017-12-25T12:54:13Z</time>
      </trkpt>
      <trkpt lat="62.633830144077" lon="17.965243776372">
        <ele>61.4</ele>
        <time>2017-12-25T12:54:14Z</time>
      </trkpt>
      <trkpt lat="62.633827294231" lon="17.965192646782">
        <ele>61.2</ele>
        <time>2017-12-25T12:54:15Z</time>
      </trkpt>
      <trkpt lat="62.63382570167" lon="17.965132883835">
        <ele>61</ele>
        <time>2017-12-25T12:54:16Z</time>
      </trkpt>
      <trkpt lat="62.633823773833" lon="17.96507211506">
        <ele>60.8</ele>
        <time>2017-12-25T12:54:17Z</time>
      </trkpt>
      <trkpt lat="62.633824360566" lon="17.965020817832">
        <ele>60.6</ele>
        <time>2017-12-25T12:54:18Z</time>
      </trkpt>
      <trkpt lat="62.63382737805" lon="17.964955355193">
        <ele>60.4</ele>
        <time>2017-12-25T12:54:19Z</time>
      </trkpt>
      <trkpt lat="62.633831652819" lon="17.964907243087">
        <ele>60.2</ele>
        <time>2017-12-25T12:54:20Z</time>
      </trkpt>
      <trkpt lat="62.633842884565" lon="17.964851922547">
        <ele>60</ele>
        <time>2017-12-25T12:54:21Z</time>
      </trkpt>
      <trkpt lat="62.633862079116" lon="17.964815964196">
        <ele>59.6</ele>
        <time>2017-12-25T12:54:22Z</time>
      </trkpt>
      <trkpt lat="62.633889655567" lon="17.964786124632">
        <ele>59.4</ele>
        <time>2017-12-25T12:54:23Z</time>
      </trkpt>
      <trkpt lat="62.633913963077" lon="17.964769696108">
        <ele>59</ele>
        <time>2017-12-25T12:54:24Z</time>
      </trkpt>
      <trkpt lat="62.633938438225" lon="17.964755027783">
        <ele>58.8</ele>
        <time>2017-12-25T12:54:25Z</time>
      </trkpt>
      <trkpt lat="62.633962997192" lon="17.964730636454">
        <ele>58.6</ele>
        <time>2017-12-25T12:54:26Z</time>
      </trkpt>
      <trkpt lat="62.63398663415" lon="17.964701383623">
        <ele>58.2</ele>
        <time>2017-12-25T12:54:27Z</time>
      </trkpt>
      <trkpt lat="62.634009768194" lon="17.964672968982">
        <ele>58.2</ele>
        <time>2017-12-25T12:54:28Z</time>
      </trkpt>
      <trkpt lat="62.634034243342" lon="17.964646901273">
        <ele>58</ele>
        <time>2017-12-25T12:54:29Z</time>
      </trkpt>
      <trkpt lat="62.634057209748" lon="17.964636926812">
        <ele>58</ele>
        <time>2017-12-25T12:54:30Z</time>
      </trkpt>
      <trkpt lat="62.634087803683" lon="17.964636926812">
        <ele>57.8</ele>
        <time>2017-12-25T12:54:31Z</time>
      </trkpt>
      <trkpt lat="62.634111440641" lon="17.964640531029">
        <ele>57.8</ele>
        <time>2017-12-25T12:54:32Z</time>
      </trkpt>
      <trkpt lat="62.634136167246" lon="17.964639273744">
        <ele>57.8</ele>
        <time>2017-12-25T12:54:33Z</time>
      </trkpt>
      <trkpt lat="62.634164246611" lon="17.964638603192">
        <ele>57.8</ele>
        <time>2017-12-25T12:54:34Z</time>
      </trkpt>
      <trkpt lat="62.634189140854" lon="17.964636507717">
        <ele>57.8</ele>
        <time>2017-12-25T12:54:35Z</time>
      </trkpt>
      <trkpt lat="62.63421881278" lon="17.964636507717">
        <ele>57.8</ele>
        <time>2017-12-25T12:54:36Z</time>
      </trkpt>
      <trkpt lat="62.634244629032" lon="17.964638100278">
        <ele>57.6</ele>
        <time>2017-12-25T12:54:37Z</time>
      </trkpt>
      <trkpt lat="62.634270529103" lon="17.96464044721">
        <ele>57.6</ele>
        <time>2017-12-25T12:54:38Z</time>
      </trkpt>
      <trkpt lat="62.634299698115" lon="17.964640614848">
        <ele>57.6</ele>
        <time>2017-12-25T12:54:39Z</time>
      </trkpt>
      <trkpt lat="62.634322245426" lon="17.964640782486">
        <ele>57.4</ele>
        <time>2017-12-25T12:54:40Z</time>
      </trkpt>
      <trkpt lat="62.634351162981" lon="17.964643716151">
        <ele>57.4</ele>
        <time>2017-12-25T12:54:41Z</time>
      </trkpt>
      <trkpt lat="62.63437806888" lon="17.964643967608">
        <ele>57.4</ele>
        <time>2017-12-25T12:54:42Z</time>
      </trkpt>
      <trkpt lat="62.634405142417" lon="17.964645560169">
        <ele>57.2</ele>
        <time>2017-12-25T12:54:43Z</time>
      </trkpt>
      <trkpt lat="62.634430455755" lon="17.964642710323">
        <ele>57.4</ele>
        <time>2017-12-25T12:54:44Z</time>
      </trkpt>
      <trkpt lat="62.634454008894" lon="17.964642626504">
        <ele>57.2</ele>
        <time>2017-12-25T12:54:45Z</time>
      </trkpt>
      <trkpt lat="62.634481082431" lon="17.964644805798">
        <ele>57.2</ele>
        <time>2017-12-25T12:54:46Z</time>
      </trkpt>
      <trkpt lat="62.634507317778" lon="17.96464463816">
        <ele>57.2</ele>
        <time>2017-12-25T12:54:47Z</time>
      </trkpt>
      <trkpt lat="62.634531290012" lon="17.964645643988">
        <ele>57.2</ele>
        <time>2017-12-25T12:54:48Z</time>
      </trkpt>
      <trkpt lat="62.634560459024" lon="17.964644219065">
        <ele>57</ele>
        <time>2017-12-25T12:54:49Z</time>
      </trkpt>
      <trkpt lat="62.634583341611" lon="17.964639692839">
        <ele>57</ele>
        <time>2017-12-25T12:54:50Z</time>
      </trkpt>
      <trkpt lat="62.634615863383" lon="17.964638603192">
        <ele>57</ele>
        <time>2017-12-25T12:54:51Z</time>
      </trkpt>
      <trkpt lat="62.634638243056" lon="17.964638435554">
        <ele>57</ele>
        <time>2017-12-25T12:54:52Z</time>
      </trkpt>
      <trkpt lat="62.634664226946" lon="17.964634915156">
        <ele>57</ele>
        <time>2017-12-25T12:54:53Z</time>
      </trkpt>
      <trkpt lat="62.634690797569" lon="17.964633071138">
        <ele>56.8</ele>
        <time>2017-12-25T12:54:54Z</time>
      </trkpt>
      <trkpt lat="62.634715105079" lon="17.964634915156">
        <ele>56.8</ele>
        <time>2017-12-25T12:54:55Z</time>
      </trkpt>
      <trkpt lat="62.634742597711" lon="17.964631143301">
        <ele>56.8</ele>
        <time>2017-12-25T12:54:56Z</time>
      </trkpt>
      <trkpt lat="62.634770509438" lon="17.964630053654">
        <ele>56.8</ele>
        <time>2017-12-25T12:54:57Z</time>
      </trkpt>
      <trkpt lat="62.634791715645" lon="17.964631478577">
        <ele>56.6</ele>
        <time>2017-12-25T12:54:58Z</time>
      </trkpt>
      <trkpt lat="62.634818621544" lon="17.964629969835">
        <ele>56.6</ele>
        <time>2017-12-25T12:54:59Z</time>
      </trkpt>
      <trkpt lat="62.634843431968" lon="17.964630053654">
        <ele>56.6</ele>
        <time>2017-12-25T12:55:00Z</time>
      </trkpt>
      <trkpt lat="62.63487343917" lon="17.964628041998">
        <ele>56.6</ele>
        <time>2017-12-25T12:55:01Z</time>
      </trkpt>
      <trkpt lat="62.634899590698" lon="17.964624437781">
        <ele>56.4</ele>
        <time>2017-12-25T12:55:02Z</time>
      </trkpt>
      <trkpt lat="62.634924149665" lon="17.964621587935">
        <ele>56.4</ele>
        <time>2017-12-25T12:55:03Z</time>
      </trkpt>
      <trkpt lat="62.634950887926" lon="17.964616558795">
        <ele>56.4</ele>
        <time>2017-12-25T12:55:04Z</time>
      </trkpt>
      <trkpt lat="62.634974357246" lon="17.964612619302">
        <ele>56.4</ele>
        <time>2017-12-25T12:55:05Z</time>
      </trkpt>
      <trkpt lat="62.635003023344" lon="17.964608344533">
        <ele>56.4</ele>
        <time>2017-12-25T12:55:06Z</time>
      </trkpt>
      <trkpt lat="62.63502598975" lon="17.964605662325">
        <ele>56.4</ele>
        <time>2017-12-25T12:55:07Z</time>
      </trkpt>
      <trkpt lat="62.635050883993" lon="17.964596190778">
        <ele>56.2</ele>
        <time>2017-12-25T12:55:08Z</time>
      </trkpt>
      <trkpt lat="62.635078628082" lon="17.964590323448">
        <ele>56.4</ele>
        <time>2017-12-25T12:55:09Z</time>
      </trkpt>
      <trkpt lat="62.635101175393" lon="17.964584875213">
        <ele>56.4</ele>
        <time>2017-12-25T12:55:10Z</time>
      </trkpt>
      <trkpt lat="62.635130512043" lon="17.964572889096">
        <ele>56.2</ele>
        <time>2017-12-25T12:55:11Z</time>
      </trkpt>
      <trkpt lat="62.635156831209" lon="17.964564004282">
        <ele>56.2</ele>
        <time>2017-12-25T12:55:12Z</time>
      </trkpt>
      <trkpt lat="62.635180132891" lon="17.96455579002">
        <ele>56.2</ele>
        <time>2017-12-25T12:55:13Z</time>
      </trkpt>
      <trkpt lat="62.635204859496" lon="17.96454154079">
        <ele>56.2</ele>
        <time>2017-12-25T12:55:14Z</time>
      </trkpt>
      <trkpt lat="62.635228915549" lon="17.964531817786">
        <ele>56.2</ele>
        <time>2017-12-25T12:55:15Z</time>
      </trkpt>
      <trkpt lat="62.63525313924" lon="17.964516898004">
        <ele>56.2</ele>
        <time>2017-12-25T12:55:16Z</time>
      </trkpt>
      <trkpt lat="62.635281721519" lon="17.964502062041">
        <ele>56</ele>
        <time>2017-12-25T12:55:17Z</time>
      </trkpt>
      <trkpt lat="62.635305442296" lon="17.964495691797">
        <ele>56</ele>
        <time>2017-12-25T12:55:18Z</time>
      </trkpt>
      <trkpt lat="62.635332012919" lon="17.964484124775">
        <ele>56</ele>
        <time>2017-12-25T12:55:19Z</time>
      </trkpt>
      <trkpt lat="62.635355649877" lon="17.964475659056">
        <ele>56</ele>
        <time>2017-12-25T12:55:20Z</time>
      </trkpt>
      <trkpt lat="62.63538557326" lon="17.96446275093">
        <ele>55.8</ele>
        <time>2017-12-25T12:55:21Z</time>
      </trkpt>
      <trkpt lat="62.635408791123" lon="17.964452022098">
        <ele>55.8</ele>
        <time>2017-12-25T12:55:22Z</time>
      </trkpt>
      <trkpt lat="62.635438295411" lon="17.964435677393">
        <ele>55.8</ele>
        <time>2017-12-25T12:55:23Z</time>
      </trkpt>
      <trkpt lat="62.635465871862" lon="17.964418159222">
        <ele>55.8</ele>
        <time>2017-12-25T12:55:24Z</time>
      </trkpt>
      <trkpt lat="62.635488838268" lon="17.964404748182">
        <ele>55.6</ele>
        <time>2017-12-25T12:55:25Z</time>
      </trkpt>
      <trkpt lat="62.635520186574" lon="17.964387732925">
        <ele>55.6</ele>
        <time>2017-12-25T12:55:26Z</time>
      </trkpt>
      <trkpt lat="62.635547092473" lon="17.964373316057">
        <ele>55.6</ele>
        <time>2017-12-25T12:55:27Z</time>
      </trkpt>
      <trkpt lat="62.635571399983" lon="17.964359821198">
        <ele>55.4</ele>
        <time>2017-12-25T12:55:28Z</time>
      </trkpt>
      <trkpt lat="62.635597048597" lon="17.964344147045">
        <ele>55.2</ele>
        <time>2017-12-25T12:55:29Z</time>
      </trkpt>
      <trkpt lat="62.635619763546" lon="17.964327886159">
        <ele>55.2</ele>
        <time>2017-12-25T12:55:30Z</time>
      </trkpt>
      <trkpt lat="62.635647339997" lon="17.964308607789">
        <ele>55.2</ele>
        <time>2017-12-25T12:55:31Z</time>
      </trkpt>
      <trkpt lat="62.635673491525" lon="17.964291341075">
        <ele>55.2</ele>
        <time>2017-12-25T12:55:32Z</time>
      </trkpt>
      <trkpt lat="62.635693859542" lon="17.964275164008">
        <ele>55.2</ele>
        <time>2017-12-25T12:55:33Z</time>
      </trkpt>
      <trkpt lat="62.635718502328" lon="17.964261166235">
        <ele>55</ele>
        <time>2017-12-25T12:55:34Z</time>
      </trkpt>
      <trkpt lat="62.635741217277" lon="17.964244067159">
        <ele>55</ele>
        <time>2017-12-25T12:55:35Z</time>
      </trkpt>
      <trkpt lat="62.63576694971" lon="17.964224621151">
        <ele>55</ele>
        <time>2017-12-25T12:55:36Z</time>
      </trkpt>
      <trkpt lat="62.635792263048" lon="17.964207689713">
        <ele>55</ele>
        <time>2017-12-25T12:55:37Z</time>
      </trkpt>
      <trkpt lat="62.635817324929" lon="17.964187908429">
        <ele>55</ele>
        <time>2017-12-25T12:55:38Z</time>
      </trkpt>
      <trkpt lat="62.635840039878" lon="17.964171144629">
        <ele>55</ele>
        <time>2017-12-25T12:55:39Z</time>
      </trkpt>
      <trkpt lat="62.635860240257" lon="17.96415345882">
        <ele>55</ele>
        <time>2017-12-25T12:55:40Z</time>
      </trkpt>
      <trkpt lat="62.635889912183" lon="17.964128061663">
        <ele>54.8</ele>
        <time>2017-12-25T12:55:41Z</time>
      </trkpt>
      <trkpt lat="62.635913549141" lon="17.964101574859">
        <ele>55</ele>
        <time>2017-12-25T12:55:42Z</time>
      </trkpt>
      <trkpt lat="62.635937772832" lon="17.964081290661">
        <ele>55</ele>
        <time>2017-12-25T12:55:43Z</time>
      </trkpt>
      <trkpt lat="62.635956464469" lon="17.964067292888">
        <ele>54.8</ele>
        <time>2017-12-25T12:55:44Z</time>
      </trkpt>
      <trkpt lat="62.63596811531" lon="17.964057150789">
        <ele>54.8</ele>
        <time>2017-12-25T12:55:45Z</time>
      </trkpt>
      <trkpt lat="62.635987812775" lon="17.964041811912">
        <ele>54.6</ele>
        <time>2017-12-25T12:55:46Z</time>
      </trkpt>
      <trkpt lat="62.636010108629" lon="17.964022365904">
        <ele>54.6</ele>
        <time>2017-12-25T12:55:47Z</time>
      </trkpt>
      <trkpt lat="62.636028884085" lon="17.964002836077">
        <ele>54.2</ele>
        <time>2017-12-25T12:55:48Z</time>
      </trkpt>
      <trkpt lat="62.636055203251" lon="17.963978025653">
        <ele>54.2</ele>
        <time>2017-12-25T12:55:49Z</time>
      </trkpt>
      <trkpt lat="62.636074313983" lon="17.963959417835">
        <ele>54.2</ele>
        <time>2017-12-25T12:55:50Z</time>
      </trkpt>
      <trkpt lat="62.636096609837" lon="17.963933266307">
        <ele>54.2</ele>
        <time>2017-12-25T12:55:51Z</time>
      </trkpt>
      <trkpt lat="62.636116977854" lon="17.963915496679">
        <ele>54.2</ele>
        <time>2017-12-25T12:55:52Z</time>
      </trkpt>
      <trkpt lat="62.636139273708" lon="17.963890434798">
        <ele>54.2</ele>
        <time>2017-12-25T12:55:53Z</time>
      </trkpt>
      <trkpt lat="62.636158300621" lon="17.963864953822">
        <ele>54.2</ele>
        <time>2017-12-25T12:55:54Z</time>
      </trkpt>
      <trkpt lat="62.636176656982" lon="17.963847603289">
        <ele>54.2</ele>
        <time>2017-12-25T12:55:55Z</time>
      </trkpt>
      <trkpt lat="62.636200545397" lon="17.963820278295">
        <ele>54.2</ele>
        <time>2017-12-25T12:55:56Z</time>
      </trkpt>
      <trkpt lat="62.6362204105" lon="17.963795719328">
        <ele>54</ele>
        <time>2017-12-25T12:55:57Z</time>
      </trkpt>
      <trkpt lat="62.63624136525" lon="17.963770489809">
        <ele>54</ele>
        <time>2017-12-25T12:55:58Z</time>
      </trkpt>
      <trkpt lat="62.636257961412" lon="17.963751379077">
        <ele>54</ele>
        <time>2017-12-25T12:55:59Z</time>
      </trkpt>
      <trkpt lat="62.636280592542" lon="17.963727071567">
        <ele>53.8</ele>
        <time>2017-12-25T12:56:00Z</time>
      </trkpt>
      <trkpt lat="62.636305570604" lon="17.963701758229">
        <ele>53.8</ele>
        <time>2017-12-25T12:56:01Z</time>
      </trkpt>
      <trkpt lat="62.63632602244" lon="17.963676109615">
        <ele>53.8</ele>
        <time>2017-12-25T12:56:02Z</time>
      </trkpt>
      <trkpt lat="62.636342115688" lon="17.963658004711">
        <ele>53.8</ele>
        <time>2017-12-25T12:56:03Z</time>
      </trkpt>
      <trkpt lat="62.636362483705" lon="17.963634451572">
        <ele>53.8</ele>
        <time>2017-12-25T12:56:04Z</time>
      </trkpt>
      <trkpt lat="62.636379918057" lon="17.963607713311">
        <ele>53.8</ele>
        <time>2017-12-25T12:56:05Z</time>
      </trkpt>
      <trkpt lat="62.636397352409" lon="17.963580053041">
        <ele>53.8</ele>
        <time>2017-12-25T12:56:06Z</time>
      </trkpt>
      <trkpt lat="62.636414200028" lon="17.963554404427">
        <ele>53.6</ele>
        <time>2017-12-25T12:56:07Z</time>
      </trkpt>
      <trkpt lat="62.636430880009" lon="17.963535042238">
        <ele>53.6</ele>
        <time>2017-12-25T12:56:08Z</time>
      </trkpt>
      <trkpt lat="62.636449068732" lon="17.963523559035">
        <ele>53.4</ele>
        <time>2017-12-25T12:56:09Z</time>
      </trkpt>
      <trkpt lat="62.6364634856" lon="17.963519451904">
        <ele>53.4</ele>
        <time>2017-12-25T12:56:10Z</time>
      </trkpt>
      <trkpt lat="62.636487290196" lon="17.963538562636">
        <ele>53.2</ele>
        <time>2017-12-25T12:56:11Z</time>
      </trkpt>
      <trkpt lat="62.636509250774" lon="17.963576365005">
        <ele>53</ele>
        <time>2017-12-25T12:56:12Z</time>
      </trkpt>
      <trkpt lat="62.636524170556" lon="17.96361198808">
        <ele>53.2</ele>
        <time>2017-12-25T12:56:13Z</time>
      </trkpt>
      <trkpt lat="62.636540850537" lon="17.963649538992">
        <ele>53.2</ele>
        <time>2017-12-25T12:56:14Z</time>
      </trkpt>
      <trkpt lat="62.6365556865" lon="17.963677953633">
        <ele>53.2</ele>
        <time>2017-12-25T12:56:15Z</time>
      </trkpt>
      <trkpt lat="62.636571109196" lon="17.963711397414">
        <ele>53.4</ele>
        <time>2017-12-25T12:56:16Z</time>
      </trkpt>
      <trkpt lat="62.636585526064" lon="17.963753893647">
        <ele>53.4</ele>
        <time>2017-12-25T12:56:17Z</time>
      </trkpt>
      <trkpt lat="62.636597596" lon="17.963786918333">
        <ele>53.4</ele>
        <time>2017-12-25T12:56:18Z</time>
      </trkpt>
      <trkpt lat="62.636613605429" lon="17.963825810349">
        <ele>53.2</ele>
        <time>2017-12-25T12:56:19Z</time>
      </trkpt>
      <trkpt lat="62.636629698677" lon="17.9638617687">
        <ele>53.4</ele>
        <time>2017-12-25T12:56:20Z</time>
      </trkpt>
      <trkpt lat="62.636649899056" lon="17.96389445811">
        <ele>53.4</ele>
        <time>2017-12-25T12:56:21Z</time>
      </trkpt>
      <trkpt lat="62.636671859634" lon="17.963906611865">
        <ele>53.4</ele>
        <time>2017-12-25T12:56:22Z</time>
      </trkpt>
      <trkpt lat="62.636700525732" lon="17.963929745909">
        <ele>53.4</ele>
        <time>2017-12-25T12:56:23Z</time>
      </trkpt>
      <trkpt lat="62.6367233245" lon="17.963956735627">
        <ele>53.4</ele>
        <time>2017-12-25T12:56:24Z</time>
      </trkpt>
      <trkpt lat="62.636744195431" lon="17.963991017598">
        <ele>53.4</ele>
        <time>2017-12-25T12:56:25Z</time>
      </trkpt>
      <trkpt lat="62.63676774857" lon="17.964036196039">
        <ele>53.4</ele>
        <time>2017-12-25T12:56:26Z</time>
      </trkpt>
      <trkpt lat="62.636787781311" lon="17.964082715584">
        <ele>53.4</ele>
        <time>2017-12-25T12:56:27Z</time>
      </trkpt>
      <trkpt lat="62.636804880387" lon="17.964130743871">
        <ele>53.4</ele>
        <time>2017-12-25T12:56:28Z</time>
      </trkpt>
      <trkpt lat="62.636824410214" lon="17.964182124918">
        <ele>53.4</ele>
        <time>2017-12-25T12:56:29Z</time>
      </trkpt>
      <trkpt lat="62.636840754919" lon="17.964221603667">
        <ele>53.2</ele>
        <time>2017-12-25T12:56:30Z</time>
      </trkpt>
      <trkpt lat="62.636864475696" lon="17.964267117384">
        <ele>53.4</ele>
        <time>2017-12-25T12:56:31Z</time>
      </trkpt>
      <trkpt lat="62.636889034663" lon="17.964298130414">
        <ele>53.4</ele>
        <time>2017-12-25T12:56:32Z</time>
      </trkpt>
      <trkpt lat="62.636912839259" lon="17.964332160928">
        <ele>53.4</ele>
        <time>2017-12-25T12:56:33Z</time>
      </trkpt>
      <trkpt lat="62.636936811493" lon="17.964371723496">
        <ele>53.4</ele>
        <time>2017-12-25T12:56:34Z</time>
      </trkpt>
      <trkpt lat="62.636959358804" lon="17.96440323944">
        <ele>53.6</ele>
        <time>2017-12-25T12:56:35Z</time>
      </trkpt>
      <trkpt lat="62.636983498676" lon="17.964440371257">
        <ele>53.4</ele>
        <time>2017-12-25T12:56:36Z</time>
      </trkpt>
      <trkpt lat="62.637001435942" lon="17.964464846405">
        <ele>53.4</ele>
        <time>2017-12-25T12:56:37Z</time>
      </trkpt>
      <trkpt lat="62.637028844755" lon="17.96447280921">
        <ele>53.4</ele>
        <time>2017-12-25T12:56:38Z</time>
      </trkpt>
      <trkpt lat="62.637049631867" lon="17.964461745102">
        <ele>53.4</ele>
        <time>2017-12-25T12:56:39Z</time>
      </trkpt>
      <trkpt lat="62.637067401495" lon="17.964438108144">
        <ele>53.2</ele>
        <time>2017-12-25T12:56:40Z</time>
      </trkpt>
      <trkpt lat="62.637089110616" lon="17.964408184761">
        <ele>53.2</ele>
        <time>2017-12-25T12:56:41Z</time>
      </trkpt>
      <trkpt lat="62.637108808081" lon="17.964373735152">
        <ele>53.2</ele>
        <time>2017-12-25T12:56:42Z</time>
      </trkpt>
      <trkpt lat="62.637125152786" lon="17.964336770973">
        <ele>53</ele>
        <time>2017-12-25T12:56:43Z</time>
      </trkpt>
      <trkpt lat="62.637139402016" lon="17.964294190921">
        <ele>53</ele>
        <time>2017-12-25T12:56:44Z</time>
      </trkpt>
      <trkpt lat="62.637155411445" lon="17.964263513167">
        <ele>53</ele>
        <time>2017-12-25T12:56:45Z</time>
      </trkpt>
      <trkpt lat="62.637173851625" lon="17.964229063558">
        <ele>53</ele>
        <time>2017-12-25T12:56:46Z</time>
      </trkpt>
      <trkpt lat="62.637193800547" lon="17.964190506818">
        <ele>53</ele>
        <time>2017-12-25T12:56:47Z</time>
      </trkpt>
      <trkpt lat="62.637210145252" lon="17.964159158512">
        <ele>53</ele>
        <time>2017-12-25T12:56:48Z</time>
      </trkpt>
      <trkpt lat="62.637228836889" lon="17.96412663674">
        <ele>52.8</ele>
        <time>2017-12-25T12:56:49Z</time>
      </trkpt>
      <trkpt lat="62.637246187422" lon="17.96410400561">
        <ele>52.8</ele>
        <time>2017-12-25T12:56:50Z</time>
      </trkpt>
      <trkpt lat="62.637269153828" lon="17.964075842426">
        <ele>52.6</ele>
        <time>2017-12-25T12:56:51Z</time>
      </trkpt>
      <trkpt lat="62.637287594008" lon="17.964052624563">
        <ele>52.6</ele>
        <time>2017-12-25T12:56:52Z</time>
      </trkpt>
      <trkpt lat="62.637311230966" lon="17.964020605705">
        <ele>52.4</ele>
        <time>2017-12-25T12:56:53Z</time>
      </trkpt>
      <trkpt lat="62.637332185716" lon="17.963992358702">
        <ele>52</ele>
        <time>2017-12-25T12:56:54Z</time>
      </trkpt>
      <trkpt lat="62.637348111326" lon="17.963967129183">
        <ele>52</ele>
        <time>2017-12-25T12:56:55Z</time>
      </trkpt>
      <trkpt lat="62.637369736628" lon="17.963937624895">
        <ele>51.8</ele>
        <time>2017-12-25T12:56:56Z</time>
      </trkpt>
      <trkpt lat="62.637391110473" lon="17.963911557186">
        <ele>51.8</ele>
        <time>2017-12-25T12:56:57Z</time>
      </trkpt>
      <trkpt lat="62.637408041911" lon="17.963889680427">
        <ele>51.6</ele>
        <time>2017-12-25T12:56:58Z</time>
      </trkpt>
      <trkpt lat="62.637427907014" lon="17.963867552211">
        <ele>51.6</ele>
        <time>2017-12-25T12:56:59Z</time>
      </trkpt>
      <trkpt lat="62.637446850108" lon="17.963857158655">
        <ele>51.6</ele>
        <time>2017-12-25T12:57:00Z</time>
      </trkpt>
      <trkpt lat="62.637467301944" lon="17.963871240247">
        <ele>51.4</ele>
        <time>2017-12-25T12:57:01Z</time>
      </trkpt>
      <trkpt lat="62.63747853369" lon="17.963905186942">
        <ele>51.4</ele>
        <time>2017-12-25T12:57:02Z</time>
      </trkpt>
      <trkpt lat="62.637486580314" lon="17.963941983483">
        <ele>51.4</ele>
        <time>2017-12-25T12:57:03Z</time>
      </trkpt>
      <trkpt lat="62.637493788748" lon="17.963978780024">
        <ele>51.2</ele>
        <time>2017-12-25T12:57:04Z</time>
      </trkpt>
      <trkpt lat="62.637499823716" lon="17.96400845195">
        <ele>51.2</ele>
        <time>2017-12-25T12:57:05Z</time>
      </trkpt>
      <trkpt lat="62.637509965815" lon="17.964030328709">
        <ele>51.2</ele>
        <time>2017-12-25T12:57:06Z</time>
      </trkpt>
      <trkpt lat="62.637520275552" lon="17.964045583767">
        <ele>51.2</ele>
        <time>2017-12-25T12:57:07Z</time>
      </trkpt>
    </trkseg>
  </trk>
</gpx>